[[{"header":{"parameterUnit":"m.s-1","parameterCategory":1,"la1":30.6,"la2":28.766,"lo1":-90.7593,"lo2":-88.6598,"dy":0.0162,"dx":0.0183,"nx":116,"ny":114,"refTime":"2023-03-07T06:00:00:Z","depth":0,"parameterNumber":2,"parameterNumberName":"U-component_of_WINDS"},"data":[0.0,0.0,0.0,0.0,0.0,0.0,0.0,0.0,0.0,0.0,0.0,0.0,0.0,0.0,0.0,0.0,0.0,0.0,0.0,0.0,0.0,0.0,0.0,0.0,0.0,0.0,0.0,0.0,0.0,0.0,0.0,0.0,0.0,0.0,0.0,0.0,0.0,0.0,0.0,0.0,0.0,0.0,0.0,0.0,0.0,0.0,0.0,0.0,0.0,0.0,0.0,0.0,0.0,0.0,0.0,0.0,0.0,0.0,0.0,0.0,0.0,0.0,0.0,0.0,0.0,0.0,0.0,0.0,0.0,0.0,0.0,0.0,0.0,0.0,0.0,0.0,0.0,0.0,0.0,0.0,0.0,0.0,0.0,0.0,0.0,0.0,0.0,0.0,0.0,0.0,0.0,0.0,0.0,0.0,0.0,0.0,0.0,0.0,0.0,0.0,0.0,0.0,0.0,0.0,0.0,0.0,0.0,0.0,0.0,0.0,0.0,0.0,0.0,0.0,0.0,0.0,0.0,0.0,0.0,0.0,0.0,0.0,0.0,0.0,0.0,0.0,0.0,0.0,0.0,0.0,0.0,0.0,0.0,0.0,0.0,0.0,0.0,0.0,0.0,0.0,0.0,0.0,0.0,0.0,0.0,0.0,0.0,0.0,0.0,0.0,0.0,0.0,0.0,0.0,0.0,0.0,0.0,0.0,0.0,0.0,0.0,0.0,0.0,0.0,0.0,0.0,0.0,0.0,0.0,0.0,0.0,0.0,0.0,0.0,0.0,0.0,0.0,0.0,0.0,0.0,0.0,0.0,0.0,0.0,0.0,0.0,0.0,0.0,0.0,0.0,0.0,0.0,0.0,0.0,0.0,0.0,0.0,0.0,0.0,0.0,0.0,0.0,0.0,0.0,0.0,0.0,0.0,0.0,0.0,0.0,0.0,0.0,0.0,0.0,0.0,0.0,0.0,0.0,0.0,0.0,0.0,0.0,0.0,0.0,0.0,0.0,0.0,0.0,0.0,0.0,0.0,0.0,0.0,0.0,0.0,0.0,0.0,0.0,0.0,0.0,0.0,0.0,0.0,0.0,0.0,0.0,0.0,0.0,0.0,0.0,0.0,0.0,0.0,0.0,0.0,0.0,0.0,0.0,0.0,0.0,0.0,0.0,0.0,0.0,0.0,0.0,0.0,0.0,0.0,0.0,0.0,0.0,0.0,0.0,0.0,0.0,0.0,0.0,0.0,0.0,0.0,0.0,0.0,0.0,0.0,0.0,0.0,0.0,0.0,0.0,0.0,0.0,0.0,0.0,0.0,0.0,0.0,0.0,0.0,0.0,0.0,0.0,0.0,0.0,0.0,0.0,0.0,0.0,0.0,0.0,0.0,0.0,0.0,0.0,0.0,0.0,0.0,0.0,0.0,0.0,0.0,0.0,0.0,0.0,0.0,0.0,0.0,0.0,0.0,0.0,0.0,0.0,0.0,0.0,0.0,0.0,0.0,0.0,0.0,0.0,0.0,0.0,0.0,0.0,0.0,0.0,0.0,0.0,0.0,0.0,0.0,0.0,0.0,0.0,0.0,0.0,0.0,0.0,0.0,0.0,0.0,0.0,0.0,0.0,0.0,0.0,0.0,0.0,0.0,0.0,0.0,0.0,0.0,0.0,0.0,0.0,0.0,0.0,0.0,0.0,0.0,0.0,0.0,0.0,0.0,0.0,0.0,0.0,0.0,0.0,0.0,0.0,0.0,0.0,0.0,0.0,0.0,0.0,0.0,0.0,0.0,0.0,0.0,0.0,0.0,0.0,0.0,0.0,0.0,0.0,0.0,0.0,0.0,0.0,0.0,0.0,0.0,0.0,0.0,0.0,0.0,0.0,0.0,0.0,0.0,0.0,0.0,0.0,0.0,0.0,0.0,0.0,0.0,0.0,0.0,0.0,0.0,0.0,0.0,0.0,0.0,0.0,0.0,0.0,0.0,0.0,0.0,0.0,0.0,0.0,0.0,0.0,0.0,0.0,0.0,0.0,0.0,0.0,0.0,0.0,0.0,0.0,0.0,0.0,0.0,0.0,0.0,0.0,0.0,0.0,0.0,0.0,0.0,0.0,0.0,0.0,0.0,0.0,0.0,0.0,0.0,0.0,0.0,0.0,0.0,0.0,0.0,0.0,0.0,0.0,0.0,0.0,0.0,0.0,0.0,0.0,0.0,0.0,0.0,0.0,0.0,0.0,0.0,0.0,0.0,0.0,0.0,0.0,0.0,0.0,0.0,0.0,0.0,0.0,0.0,0.0,0.0,0.0,0.0,0.0,0.0,0.0,0.0,0.0,0.0,0.0,0.0,0.0,0.0,0.0,0.0,0.0,0.0,0.0,0.0,0.0,0.0,0.0,0.0,0.0,0.0,0.0,0.0,0.0,0.0,0.0,0.0,0.0,0.0,0.0,0.0,0.0,0.0,0.0,0.0,0.0,0.0,0.0,0.0,0.0,0.0,0.0,0.0,0.0,0.0,0.0,0.0,0.0,0.0,0.0,0.0,0.0,0.0,0.0,0.0,0.0,0.0,0.0,0.0,0.0,0.0,0.0,0.0,0.0,0.0,0.0,0.0,0.0,0.0,0.0,0.0,0.0,0.0,0.0,0.0,0.0,0.0,0.0,0.0,0.0,0.0,0.0,0.0,0.0,0.0,0.0,0.0,0.0,0.0,0.0,0.0,0.0,0.0,0.0,0.0,0.0,0.0,0.0,0.0,0.0,0.0,0.0,0.0,0.0,0.0,0.0,0.0,0.0,0.0,0.0,0.0,0.0,0.0,0.0,0.0,0.0,0.0,0.0,0.0,0.0,0.0,0.0,0.0,0.0,0.0,0.0,0.0,0.0,0.0,0.0,0.0,0.0,0.0,0.0,0.0,0.0,0.0,0.0,0.0,0.0,0.0,0.0,0.0,0.0,0.0,0.0,0.0,0.0,0.0,0.0,0.0,0.0,0.0,0.0,0.0,0.0,0.0,0.0,0.0,0.0,0.0,0.0,0.0,0.0,0.0,0.0,0.0,0.0,0.0,0.0,0.0,0.0,0.0,0.0,0.0,0.0,0.0,0.0,0.0,0.0,0.0,0.0,0.0,0.0,0.0,0.0,0.0,0.0,0.0,0.0,0.0,0.0,0.0,0.0,0.0,0.0,0.0,0.0,0.0,0.0,0.0,0.0,0.0,0.0,0.0,0.0,0.0,0.0,0.0,0.0,0.0,0.0,0.0,0.0,0.0,0.0,0.0,0.0,0.0,0.0,0.0,0.0,0.0,0.0,0.0,0.0,0.0,0.0,0.0,0.0,0.0,0.0,0.0,0.0,0.0,0.0,0.0,0.0,0.0,0.0,0.0,0.0,0.0,0.0,0.0,0.0,0.0,0.0,0.0,0.0,0.0,0.0,0.0,0.0,0.0,0.0,0.0,0.0,0.0,0.0,0.0,0.0,0.0,0.0,0.0,0.0,0.0,0.0,0.0,0.0,0.0,0.0,0.0,0.0,0.0,0.0,0.0,0.0,0.0,0.0,0.0,0.0,0.0,0.0,0.0,0.0,0.0,0.0,0.0,0.0,0.0,0.0,0.0,0.0,0.0,0.0,0.0,0.0,0.0,0.0,0.0,0.0,0.0,0.0,0.0,0.0,0.0,0.0,0.0,0.0,0.0,0.0,0.0,0.0,0.0,0.0,0.0,0.0,0.0,0.0,0.0,0.0,0.0,0.0,0.0,0.0,0.0,0.0,0.0,0.0,0.0,0.0,0.0,0.0,0.0,0.0,0.0,0.0,0.0,0.0,0.0,0.0,0.0,0.0,0.0,0.0,0.0,0.0,0.0,0.0,0.0,0.0,0.0,0.0,0.0,0.0,0.0,0.0,0.0,0.0,0.0,0.0,0.0,0.0,0.0,0.0,0.0,0.0,0.0,0.0,0.0,0.0,0.0,0.0,0.0,0.0,0.0,0.0,0.0,0.0,0.0,0.0,0.0,0.0,0.0,0.0,0.0,0.0,0.0,0.0,0.0,0.0,0.0,0.0,0.0,0.0,0.0,0.0,0.0,0.0,0.0,0.0,0.0,0.0,0.0,0.0,0.0,0.0,0.0,0.0,0.0,0.0,0.0,0.0,0.0,0.0,0.0,0.0,0.0,0.0,0.0,0.0,0.0,0.0,0.0,0.0,0.0,0.0,0.0,0.0,0.0,0.0,0.0,0.0,0.0,0.0,0.0,0.0,0.0,0.0,0.0,0.0,0.0,0.0,0.0,0.0,0.0,0.0,0.0,0.0,0.0,0.0,0.0,0.0,0.0,0.0,0.0,0.0,0.0,0.0,0.0,0.0,0.0,0.0,0.0,0.0,0.0,0.0,0.0,0.0,0.0,0.0,0.0,0.0,0.0,0.0,0.0,0.0,0.0,0.0,0.0,0.0,0.0,0.0,0.0,0.0,0.0,0.0,0.0,0.0,0.0,0.0,0.0,0.0,0.0,0.0,0.0,0.0,0.0,0.0,0.0,0.0,0.0,0.0,0.0,0.0,0.0,0.0,0.0,0.0,0.0,0.0,0.0,0.0,0.0,0.0,0.0,0.0,0.0,0.0,0.0,0.0,0.0,0.0,0.0,0.0,0.0,0.0,0.0,0.0,0.0,0.0,0.0,0.0,0.0,0.0,0.0,0.0,0.0,0.0,0.0,0.0,0.0,0.0,0.0,0.0,0.0,0.0,0.0,0.0,0.0,0.0,0.0,0.0,0.0,0.0,0.0,0.0,0.0,0.0,0.0,0.0,0.0,0.0,0.0,0.0,0.0,0.0,0.0,0.0,0.0,0.0,0.0,0.0,0.0,0.0,0.0,0.0,0.0,0.0,0.0,0.0,0.0,0.0,0.0,0.0,0.0,0.0,0.0,0.0,0.0,0.0,0.0,0.0,0.0,0.0,0.0,0.0,0.0,0.0,0.0,0.0,0.0,0.0,0.0,0.0,0.0,0.0,0.0,0.0,0.0,0.0,0.0,0.0,0.0,0.0,0.0,0.0,0.0,0.0,0.0,0.0,0.0,0.0,0.0,0.0,0.0,0.0,0.0,0.0,0.0,0.0,0.0,0.0,0.0,0.0,0.0,0.0,0.0,0.0,0.0,0.0,0.0,0.0,0.0,0.0,0.0,0.0,0.0,0.0,0.0,0.0,0.0,0.0,0.0,0.0,0.0,0.0,0.0,0.0,0.0,0.0,0.0,0.0,0.0,0.0,0.0,0.0,0.0,0.0,0.0,0.0,0.0,0.0,0.0,0.0,0.0,0.0,0.0,0.0,0.0,0.0,0.0,0.0,0.0,0.0,0.0,0.0,0.0,0.0,0.0,0.0,0.0,0.0,0.0,0.0,0.0,0.0,0.0,0.0,0.0,0.0,0.0,0.0,0.0,0.0,0.0,0.0,0.0,0.0,0.0,0.0,0.0,0.0,0.0,0.0,0.0,0.0,0.0,0.0,0.0,0.0,0.0,0.0,0.0,0.0,0.0,0.0,0.0,0.0,0.0,0.0,0.0,0.0,0.0,0.0,0.0,0.0,0.0,0.0,0.0,0.0,0.0,0.0,0.0,0.0,0.0,0.0,0.0,0.0,0.0,0.0,0.0,0.0,0.0,0.0,0.0,0.0,0.0,0.0,0.0,0.0,0.0,0.0,0.0,0.0,0.0,0.0,0.0,0.0,0.0,0.0,0.0,0.0,0.0,0.0,0.0,0.0,0.0,0.0,0.0,0.0,0.0,0.0,0.0,0.0,0.0,0.0,0.0,0.0,0.0,0.0,0.0,0.0,0.0,0.0,0.0,0.0,0.0,0.0,0.0,0.0,0.0,0.0,0.0,0.0,0.0,0.0,0.0,0.0,0.0,0.0,0.0,0.0,0.0,0.0,0.0,0.0,0.0,0.0,0.0,0.0,0.0,0.0,0.0,0.0,0.0,0.0,0.0,0.0,0.0,0.0,0.0,0.0,0.0,0.0,0.0,0.0,0.0,0.0,0.0,0.0,0.0,0.0,0.0,0.0,0.0,0.0,0.0,0.0,0.0,0.0,0.0,0.0,0.0,0.0,0.0,0.0,0.0,0.0,-4.9872,-4.9343,0.0,0.0,0.0,0.0,0.0,0.0,0.0,0.0,0.0,0.0,0.0,0.0,0.0,0.0,0.0,0.0,0.0,0.0,0.0,0.0,0.0,0.0,0.0,0.0,0.0,0.0,0.0,0.0,0.0,0.0,0.0,0.0,0.0,0.0,0.0,0.0,0.0,0.0,0.0,0.0,0.0,0.0,0.0,0.0,0.0,0.0,0.0,0.0,0.0,0.0,0.0,0.0,0.0,0.0,0.0,0.0,0.0,0.0,0.0,0.0,0.0,0.0,0.0,0.0,0.0,0.0,0.0,0.0,0.0,0.0,0.0,0.0,0.0,0.0,0.0,0.0,0.0,0.0,0.0,0.0,0.0,0.0,0.0,0.0,0.0,0.0,0.0,0.0,0.0,0.0,0.0,0.0,0.0,0.0,0.0,0.0,0.0,0.0,0.0,0.0,0.0,0.0,0.0,0.0,0.0,0.0,0.0,0.0,0.0,0.0,0.0,0.0,0.0,0.0,-5.0831,-5.0298,0.0,0.0,0.0,0.0,0.0,0.0,0.0,0.0,0.0,0.0,0.0,0.0,0.0,0.0,0.0,0.0,0.0,0.0,0.0,0.0,0.0,0.0,0.0,0.0,0.0,0.0,0.0,0.0,0.0,0.0,0.0,0.0,0.0,0.0,0.0,0.0,0.0,0.0,0.0,0.0,0.0,0.0,0.0,0.0,0.0,0.0,0.0,0.0,0.0,0.0,0.0,0.0,0.0,0.0,0.0,0.0,0.0,0.0,0.0,0.0,0.0,0.0,0.0,0.0,0.0,0.0,0.0,0.0,0.0,0.0,0.0,0.0,0.0,0.0,0.0,0.0,0.0,0.0,0.0,0.0,0.0,0.0,0.0,0.0,0.0,0.0,0.0,0.0,0.0,0.0,0.0,0.0,0.0,0.0,0.0,0.0,0.0,0.0,0.0,0.0,0.0,0.0,0.0,0.0,0.0,0.0,0.0,0.0,-5.1704,-5.1779,-5.1796,-5.1909,-5.1984,-5.1984,-5.1984,-5.1495,-5.0646,-5.0116,0.0,0.0,0.0,0.0,0.0,0.0,0.0,0.0,0.0,0.0,0.0,0.0,0.0,0.0,0.0,0.0,0.0,0.0,0.0,0.0,0.0,0.0,0.0,0.0,0.0,0.0,0.0,0.0,0.0,0.0,0.0,0.0,0.0,0.0,0.0,0.0,0.0,0.0,-4.8286,-4.802,-4.7862,-4.7778,-4.7499,0.0,0.0,0.0,0.0,0.0,0.0,0.0,0.0,0.0,0.0,0.0,0.0,0.0,0.0,0.0,0.0,0.0,0.0,0.0,0.0,0.0,0.0,0.0,0.0,0.0,0.0,0.0,0.0,0.0,0.0,0.0,0.0,0.0,0.0,0.0,0.0,0.0,0.0,0.0,0.0,0.0,0.0,0.0,-5.0375,-4.9861,0.0,0.0,0.0,0.0,0.0,0.0,0.0,0.0,0.0,0.0,0.0,0.0,0.0,-5.1267,-5.1267,-5.1378,-5.1452,-5.1523,-5.2158,-5.2493,-5.2585,-5.3219,-5.3516,-5.3516,-5.3516,0.0,-5.1365,-5.034,0.0,0.0,0.0,0.0,0.0,0.0,0.0,0.0,0.0,0.0,0.0,0.0,0.0,0.0,0.0,0.0,0.0,0.0,0.0,0.0,0.0,0.0,0.0,0.0,0.0,0.0,0.0,0.0,0.0,0.0,0.0,0.0,0.0,0.0,0.0,0.0,-4.8739,-4.9106,-4.9588,-4.9388,-4.9388,-4.9507,-4.9295,-4.8553,-4.7365,-4.6823,0.0,0.0,0.0,0.0,0.0,0.0,0.0,0.0,0.0,0.0,0.0,0.0,0.0,0.0,0.0,0.0,0.0,0.0,0.0,0.0,0.0,0.0,0.0,0.0,0.0,0.0,0.0,0.0,0.0,0.0,0.0,0.0,0.0,0.0,0.0,0.0,0.0,0.0,0.0,-4.9843,-5.0322,-4.9627,-4.9977,-4.9957,0.0,0.0,0.0,0.0,0.0,0.0,0.0,0.0,0.0,-5.0822,-5.1639,-5.2067,-5.2067,-5.2512,-5.2754,-5.281,-5.3126,-5.3293,-5.333,-5.3664,-5.3813,-5.3813,-5.3813,-5.3423,-5.2772,-5.1843,-5.1337,-5.1062,0.0,0.0,0.0,0.0,-4.9823,-4.9393,0.0,0.0,0.0,0.0,0.0,0.0,0.0,0.0,0.0,0.0,0.0,0.0,0.0,0.0,0.0,-4.3897,0.0,0.0,0.0,0.0,0.0,0.0,0.0,0.0,0.0,0.0,0.0,0.0,-4.9666,-5.005,-5.0657,-5.0537,-5.0537,-5.0675,-5.0481,-4.9611,-4.8199,-4.7543,-4.7089,0.0,0.0,0.0,0.0,0.0,0.0,0.0,0.0,0.0,0.0,0.0,0.0,0.0,0.0,0.0,0.0,0.0,0.0,0.0,0.0,0.0,0.0,0.0,0.0,0.0,0.0,0.0,0.0,0.0,0.0,0.0,0.0,0.0,0.0,0.0,0.0,0.0,0.0,-5.0205,-5.0536,-4.9643,-5.0208,-5.0342,0.0,0.0,0.0,0.0,0.0,0.0,-5.0432,-5.1249,-5.1714,-5.1714,-5.2494,-5.2921,-5.2921,-5.3497,-5.3813,-5.3813,-5.3813,-5.3813,-5.3813,-5.3813,-5.3813,-5.3813,-5.3813,-5.3813,-5.3738,-5.3014,-5.2379,-5.1853,-5.1664,-5.1607,-5.1572,-5.125,-5.1083,-5.0873,0.0,0.0,0.0,0.0,0.0,0.0,0.0,0.0,0.0,0.0,0.0,0.0,0.0,0.0,-4.5193,-4.5193,-4.64,-4.6829,0.0,0.0,0.0,0.0,0.0,0.0,0.0,0.0,0.0,-4.9881,-5.0505,-5.0855,-5.0891,-5.0675,-5.0702,-5.0863,-5.0554,-4.9962,-4.9231,-4.9059,-4.846,-4.7596,0.0,0.0,0.0,0.0,0.0,0.0,0.0,0.0,0.0,0.0,0.0,0.0,0.0,0.0,0.0,0.0,0.0,0.0,0.0,0.0,0.0,0.0,0.0,0.0,0.0,0.0,0.0,0.0,0.0,0.0,0.0,0.0,0.0,0.0,0.0,0.0,0.0,0.0,0.0,-5.0588,-5.098,0.0,0.0,0.0,0.0,-5.1212,-5.1305,-5.1323,-5.1323,-5.2104,-5.2549,-5.2549,-5.333,-5.3738,-5.3738,-5.3775,-5.3813,-5.3813,-5.3813,-5.3813,-5.3813,-5.3813,-5.3813,-5.3813,-5.3813,-5.3813,-5.3738,-5.3014,-5.2678,-5.2585,-5.1872,-5.1607,-5.1589,-5.1589,-5.1341,-5.0988,0.0,0.0,0.0,0.0,0.0,0.0,0.0,0.0,0.0,0.0,0.0,0.0,0.0,-4.4805,-4.5751,-4.5751,-4.7297,-4.801,-4.7379,0.0,0.0,0.0,0.0,0.0,0.0,0.0,-4.9609,-5.0532,-5.0777,-5.0891,-5.0891,-5.0819,-5.0846,-5.0891,-5.0764,-5.0507,-5.0083,-4.941,-4.8924,-4.8529,-4.7658,-4.7027,0.0,0.0,0.0,0.0,0.0,0.0,0.0,0.0,0.0,0.0,0.0,0.0,0.0,0.0,0.0,0.0,0.0,0.0,0.0,0.0,0.0,0.0,0.0,0.0,0.0,0.0,0.0,0.0,0.0,0.0,0.0,0.0,0.0,0.0,0.0,0.0,0.0,-5.1267,-5.1766,0.0,-5.1185,-5.1213,-5.1327,-5.1397,-5.2077,-5.2411,-5.2178,-5.294,-5.3367,-5.3367,-5.3664,-5.3813,-5.3813,-5.3813,-5.3813,-5.3813,-5.3813,-5.3813,-5.3813,-5.3813,-5.3813,-5.3813,-5.3813,-5.3813,-5.3775,-5.3535,-5.3404,-5.3367,-5.3107,-5.3014,-5.3014,-5.3014,-5.294,-5.277,0.0,0.0,0.0,0.0,0.0,0.0,0.0,0.0,0.0,0.0,0.0,-4.3746,-4.392,-4.5318,-4.6385,-4.6618,-4.8035,-4.8612,-4.7996,0.0,0.0,0.0,0.0,0.0,0.0,-4.9284,-5.0056,-5.0891,-5.0891,-5.0891,-5.0891,-5.0891,-5.0891,-5.0891,-5.0891,-5.0819,-5.0667,-4.9913,-4.9583,-4.9476,-4.8546,-4.7731,-4.7022,0.0,0.0,0.0,0.0,0.0,0.0,0.0,0.0,0.0,0.0,0.0,0.0,0.0,0.0,0.0,0.0,0.0,0.0,0.0,0.0,0.0,0.0,0.0,0.0,0.0,0.0,0.0,0.0,0.0,0.0,0.0,0.0,0.0,0.0,-5.1344,-5.1872,-5.1627,-5.2301,-5.26,-5.2127,-5.232,-5.2497,-5.2531,-5.314,-5.3406,-5.3179,-5.3572,-5.3813,-5.3813,-5.3813,-5.3813,-5.3813,-5.3813,-5.3813,-5.3813,-5.3813,-5.3813,-5.3813,-5.3813,-5.3813,-5.3813,-5.3813,-5.3813,-5.3813,-5.3813,-5.3813,-5.3813,-5.3813,-5.3813,-5.3813,-5.3813,-5.3813,-5.3756,0.0,0.0,0.0,0.0,0.0,0.0,0.0,0.0,0.0,0.0,-4.3889,-4.4391,-4.4919,-4.6113,-4.7119,-4.7852,-4.8541,-4.8652,-4.7976,-4.7909,0.0,0.0,0.0,0.0,-4.9276,-4.9714,-5.0233,-5.0891,-5.0891,-5.0891,-5.0891,-5.0891,-5.0891,-5.0891,-5.0891,-5.0891,-5.0891,-5.0702,-5.0519,-5.0345,-4.9476,-4.8657,-4.785,0.0,0.0,0.0,0.0,0.0,0.0,0.0,0.0,0.0,0.0,0.0,0.0,0.0,0.0,0.0,0.0,0.0,0.0,0.0,0.0,0.0,0.0,0.0,0.0,0.0,0.0,0.0,0.0,0.0,0.0,0.0,0.0,0.0,-5.0565,-5.1815,-5.2472,-5.1758,-5.2561,-5.3163,-5.3241,-5.3475,-5.3968,-5.4735,-5.4511,-5.4313,-5.4315,-5.4,-5.3794,-5.3813,-5.3813,-5.3813,-5.3813,-5.3813,-5.3813,-5.3813,-5.3813,-5.3813,-5.3813,-5.3813,-5.3813,-5.3813,-5.3813,-5.3813,-5.3813,-5.3813,-5.3813,-5.3813,-5.3813,-5.3813,-5.3813,-5.3813,-5.3813,-5.3813,0.0,0.0,0.0,0.0,0.0,0.0,0.0,0.0,0.0,0.0,-4.3889,-4.4391,-4.4919,-4.656,-4.7688,-4.7885,-4.8995,-4.943,-4.8747,0.0,0.0,0.0,0.0,0.0,-4.9284,-5.0008,-5.0573,-5.0891,-5.0891,-5.0891,-5.0891,-5.0891,-5.0891,-5.0891,-5.0891,-5.0891,-5.0891,-5.0846,-5.0792,-5.0719,-5.0244,-4.9538,-4.8744,0.0,0.0,0.0,0.0,0.0,0.0,0.0,0.0,0.0,0.0,0.0,0.0,0.0,0.0,0.0,0.0,0.0,0.0,0.0,0.0,0.0,0.0,0.0,0.0,0.0,0.0,0.0,0.0,0.0,0.0,0.0,-5.1401,-5.2098,-5.2098,-5.2662,-5.3174,-5.3534,-5.4024,-5.4345,-5.436,-5.4657,-5.4822,-5.4802,-5.4938,-5.4802,-5.4332,-5.4212,-5.4054,-5.3813,-5.3813,-5.3813,-5.3813,-5.3813,-5.3813,-5.3813,-5.3813,-5.3813,-5.3813,-5.3813,-5.3813,-5.3813,-5.3813,-5.3813,-5.3813,-5.3813,-5.3813,-5.3813,-5.3813,-5.3813,-5.3813,-5.3813,-5.3813,-5.3813,0.0,0.0,0.0,0.0,0.0,0.0,0.0,0.0,0.0,0.0,-4.3999,-4.4469,-4.5243,-4.6341,-4.7271,-4.7852,-4.8382,-4.8663,-4.8546,0.0,0.0,0.0,0.0,-4.944,-4.9754,-5.032,-5.0702,-5.0891,-5.0891,-5.0891,-5.0891,-5.0891,-5.0891,-5.0891,-5.0891,-5.0891,-5.0891,-5.0891,-5.0846,-5.0747,-5.0564,-4.9945,-4.9163,-4.9035,-4.802,-4.6697,-4.6697,-4.6697,-4.6629,-4.6223,0.0,0.0,0.0,0.0,0.0,0.0,0.0,0.0,0.0,0.0,0.0,0.0,0.0,0.0,0.0,0.0,0.0,0.0,0.0,0.0,0.0,0.0,0.0,0.0,-5.1929,-5.2864,-5.3306,-5.3551,-5.3837,-5.4259,-5.4731,-5.4995,-5.4995,-5.5282,-5.5401,-5.5198,-5.5243,-5.5138,-5.4746,-5.4463,-5.4212,-5.4018,-5.387,-5.3813,-5.3813,-5.3813,-5.3813,-5.3813,-5.3813,-5.3813,-5.3813,-5.3813,-5.3813,-5.3813,-5.3813,-5.3813,-5.3813,-5.3813,-5.3813,-5.3813,0.0,0.0,0.0,0.0,-5.3813,-5.3813,0.0,0.0,0.0,0.0,0.0,0.0,0.0,0.0,0.0,0.0,0.0,-4.461,-4.5685,-4.588,-4.6458,-4.7787,-4.7364,-4.7278,0.0,0.0,0.0,-4.8948,-4.926,-4.9708,-5.0369,-5.0519,-5.0675,-5.0863,-5.0891,-5.0891,-5.0891,-5.0891,-5.0891,-5.0873,-5.0891,-5.0891,-5.0819,-5.0846,-5.0747,-5.0575,-5.0557,-5.009,-4.9368,-4.9072,-4.818,-4.7056,-4.7056,-4.7056,-4.7068,-4.6983,0.0,0.0,0.0,0.0,0.0,0.0,0.0,0.0,0.0,0.0,0.0,0.0,0.0,0.0,0.0,0.0,0.0,0.0,0.0,0.0,0.0,0.0,0.0,0.0,-5.2285,-5.3179,-5.4151,-5.433,-5.4364,-5.4413,-5.4947,-5.5339,-5.5339,-5.5562,-5.5703,-5.5703,-5.5473,-5.5326,-5.5301,-5.4697,0.0,0.0,0.0,-5.3851,-5.3851,-5.3851,-5.3832,-5.3813,-5.3813,-5.3813,-5.3813,-5.3813,-5.3813,-5.3813,-5.3813,-5.3813,-5.3813,-5.3813,-5.3813,-5.3813,-5.3813,-5.3813,-5.3813,-5.3813,-5.3813,-5.3813,0.0,0.0,0.0,0.0,0.0,0.0,0.0,0.0,0.0,-4.4079,-4.4188,-4.461,-4.5685,-4.6282,-4.6965,-4.7819,-4.7821,-4.7863,0.0,0.0,-4.8734,-4.9,-4.9556,-4.9982,-5.0246,-5.0369,-5.0509,-5.0657,-5.0819,-5.0891,-5.0891,-5.0891,-5.0819,-5.0657,-5.0819,-5.0737,-5.0499,-5.062,-5.0575,-5.0425,-5.0313,-5.0187,-5.002,-4.9935,-4.9677,-4.9354,-4.9354,-4.9354,-4.9268,-4.8615,-4.8483,-4.8448,-4.7707,0.0,0.0,0.0,0.0,0.0,0.0,0.0,0.0,0.0,0.0,0.0,0.0,0.0,0.0,0.0,0.0,0.0,0.0,0.0,0.0,-5.1588,-5.2716,-5.374,-5.4226,-5.4528,-5.4806,-5.5064,-5.5406,-5.5618,-5.5618,-5.5662,-5.5703,-5.5703,-5.5651,-5.5539,-5.5314,-5.4924,-5.47,-5.47,-5.438,-5.4194,-5.4194,-5.4194,-5.4072,-5.3813,-5.3813,0.0,-5.3813,-5.3813,-5.3813,-5.3813,-5.3813,-5.3813,-5.3813,-5.3813,-5.3813,-5.3813,-5.3813,-5.3813,-5.3813,-5.3813,-5.3813,-5.3813,0.0,0.0,0.0,0.0,0.0,0.0,0.0,0.0,0.0,0.0,-4.3793,-4.4109,-4.4903,-4.5296,-4.5809,-4.6519,-4.7144,0.0,0.0,-4.8585,-4.9078,-4.9475,-4.9815,-5.008,-5.0189,-5.0274,-5.0369,-5.0492,-5.061,-5.0692,-5.0747,-5.0665,-5.0692,-5.0747,-5.0665,-5.061,-5.0492,-5.0492,-5.0425,-5.0285,-5.0217,-5.016,-5.0092,-5.0092,-5.0051,-5.0011,-5.0011,-5.0011,-4.9942,-4.9614,-4.9504,-4.9366,-4.8706,-4.8248,-4.7798,0.0,0.0,0.0,0.0,0.0,0.0,0.0,0.0,0.0,0.0,0.0,0.0,0.0,0.0,-5.0328,-5.0394,0.0,-5.2154,-5.2154,-5.3088,-5.3981,-5.4479,-5.47,-5.4924,-5.5262,-5.5539,-5.5703,-5.5703,-5.5703,-5.5703,-5.5703,-5.5703,-5.564,-5.5516,-5.5217,-5.5056,-5.5056,-5.4731,-5.4544,-5.4544,-5.438,-5.4212,-5.4035,-5.3889,-5.3813,-5.3813,-5.3813,-5.3813,-5.3813,-5.3813,-5.3813,-5.3813,-5.3813,-5.3813,-5.3813,-5.3813,-5.3813,-5.3813,-5.3813,-5.3813,-5.3813,0.0,0.0,0.0,0.0,0.0,0.0,0.0,0.0,0.0,0.0,-4.3395,-4.3603,-4.4141,-4.4188,-4.4443,0.0,0.0,0.0,0.0,-4.8629,-4.9309,-4.9976,-5.0011,-5.0051,-5.016,-5.0217,-5.0302,-5.0415,-5.0471,-5.0537,-5.0657,-5.0554,-5.061,-5.0819,-5.061,-5.0509,-5.0575,-5.0481,-5.0359,-5.0189,-5.0246,-5.0149,-5.0051,-5.008,-5.0051,-5.0051,-5.0051,-4.9976,-4.993,-5.0165,-5.0142,-4.999,-4.9622,-4.9405,-4.9023,-4.7666,-4.7579,0.0,0.0,0.0,0.0,0.0,0.0,0.0,0.0,-4.9385,-5.004,-5.1194,-5.1434,-5.1469,-5.1572,-5.221,-5.2697,-5.2697,-5.333,-5.4035,-5.47,-5.4791,-5.4938,-5.5339,-5.5573,-5.5703,-5.5703,-5.5703,-5.5703,-5.5703,-5.5703,-5.5703,-5.5703,-5.5437,-5.5326,-5.5376,-5.5069,-5.4895,-5.4895,-5.456,-5.4364,-5.4298,-5.3963,-5.3813,-5.3813,-5.3813,-5.3813,-5.3813,-5.3813,-5.3813,-5.3813,-5.3813,-5.3813,-5.3813,-5.3813,-5.3813,-5.3813,-5.3813,-5.3813,-5.3813,0.0,0.0,0.0,0.0,0.0,0.0,0.0,0.0,0.0,0.0,0.0,0.0,0.0,0.0,0.0,0.0,0.0,0.0,-4.7329,-4.8931,-4.9907,-5.0011,-5.0011,-5.0011,-5.0022,-5.0263,-5.0369,-5.0415,-5.071,-5.0846,-5.0863,-5.0846,-5.0774,-5.063,-5.0774,-5.0682,-5.0425,-5.0519,-5.0436,-5.0217,-5.0331,-5.0302,-5.0189,-5.0302,-5.0274,-5.016,-5.016,-4.9879,-4.9567,-5.0171,-4.9983,-4.9594,-5.0112,-4.9823,-4.9154,-4.8382,0.0,-4.7149,-4.6382,-4.6811,-4.7543,-4.7915,-4.8778,-4.9752,0.0,-5.0858,-5.1231,-5.152,-5.1591,-5.1572,-5.1589,-5.221,-5.2697,-5.2697,-5.333,-5.4035,-5.47,-5.4791,-5.5023,-5.5596,-5.5673,-5.5703,-5.5703,-5.5703,-5.5703,-5.5703,-5.5703,-5.5703,-5.5703,-5.5437,-5.5401,-5.564,-5.5389,-5.523,-5.523,-5.4909,-5.4591,-5.4298,-5.3963,-5.3813,-5.3813,-5.3813,-5.3813,-5.3813,-5.3813,-5.3813,-5.3813,-5.3813,-5.3813,-5.3813,-5.3813,-5.3813,-5.3813,-5.3813,-5.3813,-5.3813,0.0,0.0,0.0,0.0,0.0,0.0,0.0,0.0,0.0,0.0,0.0,0.0,0.0,0.0,0.0,0.0,0.0,0.0,-4.7199,-4.8971,-5.0011,-5.0011,-5.0011,-5.0011,-5.0011,-5.0109,-5.0178,-5.0178,-5.0309,-5.0422,-5.0471,-5.0404,-5.0404,-5.0481,-5.0404,-5.0348,-5.0274,-5.0246,-5.0206,-5.0109,-5.0149,-5.012,-5.0109,-5.0166,-5.0178,-5.0148,-4.9848,-4.9527,0.0,0.0,-4.9691,-4.9497,-5.041,-5.0221,-4.9486,-4.8749,-4.8369,-4.8209,-4.823,-4.8083,-4.8057,-4.8692,-4.9656,-5.052,-5.0831,-5.1531,-5.2234,-5.2717,-5.2847,-5.2883,-5.2883,-5.3126,-5.3349,-5.3349,-5.3609,-5.4035,-5.47,-5.4791,-5.5018,-5.5629,-5.5703,-5.5703,-5.5703,-5.5703,-5.5703,-5.5703,-5.5703,-5.5703,-5.5703,-5.5596,-5.5585,-5.5703,-5.5596,-5.552,-5.552,-5.505,-5.4731,-5.4591,-5.4054,-5.3813,-5.3813,-5.3813,-5.3813,-5.3813,-5.3813,-5.3813,-5.3813,-5.3813,-5.3813,-5.3813,-5.3813,-5.3813,-5.3813,-5.3813,-5.3813,-5.3813,0.0,0.0,0.0,0.0,0.0,0.0,0.0,0.0,0.0,0.0,0.0,0.0,0.0,0.0,0.0,0.0,0.0,0.0,0.0,-4.8793,-4.9815,-4.9993,-5.0011,-5.0011,-5.0011,-5.0022,-5.0051,-5.0051,-5.008,-5.0149,-5.0246,-5.0149,-5.0206,-5.0387,-5.0206,-5.0149,-5.0246,-5.0149,-5.008,-5.0051,-5.0109,-5.008,-5.0051,-5.0109,-5.0039,-4.9892,-4.9468,-4.911,0.0,0.0,-4.9073,-4.9012,-4.9942,-4.9969,-4.9456,-4.8655,-4.8274,-4.8274,-4.8863,-4.8697,-4.8566,-4.9573,-5.0524,-5.13,-5.1615,-5.2316,-5.3049,-5.3584,-5.3754,-5.3813,-5.3813,-5.3813,-5.3813,-5.3813,-5.3813,-5.4035,-5.47,-5.4791,-5.5018,-5.5629,-5.5703,-5.5703,-5.5703,-5.5703,-5.5703,-5.5703,-5.5703,-5.5703,-5.5703,-5.5703,-5.5703,-5.5703,-5.5703,-5.5703,-5.5703,-5.5185,-5.4895,-5.4791,-5.4212,-5.3889,-5.3813,-5.3813,-5.3813,-5.3813,-5.3813,-5.3813,-5.3813,-5.3813,-5.3813,-5.3813,-5.3813,-5.3813,-5.3813,-5.3813,-5.3813,-5.3813,0.0,0.0,0.0,0.0,0.0,0.0,0.0,0.0,0.0,0.0,0.0,0.0,0.0,0.0,0.0,0.0,0.0,0.0,0.0,-4.8333,-4.9314,-4.9976,-5.0011,-5.0011,-5.0011,-5.012,-5.0189,-5.0189,-5.0313,-5.0387,-5.0369,-5.0387,-5.0387,-5.0415,-5.0387,-5.0387,-5.0369,-5.0387,-5.0302,-5.0217,-5.0331,-5.0302,-5.0217,-5.0331,-4.9962,-4.9291,-4.9163,0.0,0.0,0.0,-4.7936,-4.7759,-4.8371,-4.8727,0.0,-4.7886,-4.6995,0.0,-4.7169,-4.7839,-4.873,-5.0498,-5.1454,-5.2219,-5.3201,-5.3541,-5.3676,-5.3714,-5.3754,-5.3813,-5.3813,-5.3813,-5.3813,-5.3813,-5.3813,-5.4035,-5.47,-5.4791,-5.5018,-5.5629,-5.5703,-5.5703,-5.5703,-5.5703,-5.5703,-5.5703,-5.5703,-5.5703,-5.5703,-5.5703,-5.5703,-5.5703,-5.5703,-5.5703,-5.5703,-5.5425,-5.5124,-5.4791,-5.4446,-5.4106,-5.3813,-5.3813,-5.3813,-5.3813,-5.3813,-5.3813,-5.3813,-5.3813,-5.3813,-5.3813,-5.3813,-5.3813,-5.3813,-5.3813,-5.3813,-5.3813,0.0,0.0,0.0,0.0,0.0,0.0,0.0,0.0,0.0,0.0,0.0,0.0,0.0,0.0,0.0,0.0,0.0,0.0,0.0,-4.8068,-4.9054,-4.92,-4.9735,-5.0011,-5.0011,-5.0051,-5.008,-5.008,-5.0092,-5.012,-5.012,-5.012,-5.012,-5.012,-5.012,-5.012,-5.012,-5.012,-5.0109,-5.008,-5.0138,-5.0109,-5.0011,-4.9521,-4.9186,-4.884,0.0,0.0,0.0,0.0,0.0,0.0,-4.7989,0.0,0.0,-4.691,0.0,0.0,-4.7752,-4.8381,-4.9112,-5.033,-5.1304,-5.2084,-5.2435,-5.3112,-5.3714,-5.3714,-5.3347,-5.307,-5.307,-5.307,-5.307,-5.307,-5.3479,-5.3963,-5.4397,-5.467,-5.4952,-5.5389,-5.5596,-5.5703,-5.5703,-5.5703,-5.5703,-5.5703,-5.5703,-5.5703,-5.5703,-5.5703,-5.5703,-5.5703,-5.5703,-5.5703,-5.5703,-5.5425,-5.523,-5.5124,-5.4576,-5.4106,-5.3813,-5.3813,-5.3813,-5.3813,-5.3813,-5.3813,-5.3813,-5.3813,-5.3813,-5.3813,-5.3813,-5.3813,-5.3813,-5.3813,-5.3813,-5.3813,0.0,0.0,0.0,0.0,0.0,0.0,0.0,0.0,0.0,0.0,0.0,0.0,0.0,0.0,0.0,0.0,0.0,0.0,0.0,0.0,-4.8407,-4.8546,-4.9048,-4.9325,-4.9325,-4.9268,-4.9268,-4.9325,-4.9487,-4.9579,-4.9654,-4.9902,-5.0011,-5.0011,-5.0011,-5.0011,-5.0011,-5.0011,-4.9838,-4.9579,-4.9579,-4.9424,-4.9131,-4.8586,-4.8241,0.0,0.0,0.0,0.0,0.0,0.0,0.0,0.0,0.0,0.0,0.0,0.0,-4.73,-4.8373,-4.8874,-4.932,-5.0355,-5.1236,-5.1915,-5.2108,-5.2879,-5.3558,-5.3616,-5.3106,-5.2679,-5.2697,-5.2473,-5.2323,-5.2323,-5.2697,-5.3216,-5.3827,-5.4185,-5.4629,-5.5237,-5.5539,-5.5703,-5.5703,-5.5703,-5.5703,-5.5703,-5.5703,-5.5703,-5.5703,-5.5703,-5.5703,-5.5703,-5.5703,-5.5703,-5.5703,-5.5539,-5.5389,-5.5288,-5.4604,-5.4177,-5.3981,-5.3851,-5.3813,-5.3813,-5.3813,-5.3813,-5.3813,-5.3813,-5.3813,-5.3813,-5.3813,-5.3813,-5.3813,-5.3813,-5.3813,-5.3813,0.0,0.0,0.0,0.0,0.0,0.0,0.0,0.0,0.0,0.0,0.0,0.0,0.0,0.0,0.0,0.0,0.0,0.0,0.0,0.0,0.0,-4.8021,-4.8091,-4.8108,-4.8108,-4.7991,-4.7974,-4.8108,-4.8564,-4.8825,-4.8966,-4.9614,-4.989,-4.989,-4.989,-4.989,-4.989,-4.989,-4.9459,-4.8741,-4.8741,-4.831,-4.7689,-4.7655,0.0,0.0,0.0,0.0,0.0,0.0,0.0,0.0,0.0,0.0,0.0,0.0,0.0,-4.7579,-4.8911,-4.9208,-4.9455,-5.0663,-5.1296,-5.175,-5.225,-5.2857,-5.3341,-5.3425,-5.2973,-5.2549,-5.2585,-5.206,-5.1607,-5.1607,-5.1664,-5.2085,-5.3102,-5.3524,-5.4128,-5.5154,-5.5539,-5.5703,-5.5703,-5.5703,-5.5703,-5.5703,-5.5703,-5.5703,-5.5703,-5.5703,-5.5703,-5.5703,-5.5703,-5.5703,-5.5703,-5.5703,-5.5573,-5.5288,-5.4654,-5.4332,-5.4298,-5.3944,-5.3813,-5.3813,-5.3813,-5.3813,-5.3813,-5.3813,-5.3813,-5.3813,-5.3813,-5.3813,-5.3813,-5.3813,-5.3813,-5.3813,0.0,0.0,0.0,0.0,0.0,0.0,0.0,0.0,0.0,0.0,0.0,0.0,0.0,0.0,0.0,0.0,0.0,0.0,0.0,0.0,0.0,0.0,0.0,0.0,0.0,0.0,0.0,0.0,0.0,-4.8296,-4.8323,-4.8487,-4.8536,-4.8443,-4.8443,-4.8387,-4.8303,-4.8303,-4.8155,-4.7965,0.0,-4.7862,-4.762,0.0,0.0,0.0,0.0,0.0,0.0,0.0,0.0,0.0,0.0,-4.7249,-4.7338,0.0,-4.7969,-4.8488,-4.9014,-4.9535,-5.0031,-5.0457,-5.1236,-5.1939,-5.206,-5.2795,-5.3335,-5.2919,-5.2271,-5.1635,-5.1157,-5.1362,-5.1607,-5.1607,-5.2528,-5.333,-5.3609,-5.4143,-5.4604,-5.489,-5.5382,-5.5703,-5.5703,-5.5703,-5.5703,-5.5703,-5.5703,-5.5703,-5.5703,-5.5703,-5.5703,-5.5703,-5.5703,-5.5703,-5.5703,-5.5703,-5.5573,-5.5301,-5.488,-5.4544,-5.4298,-5.3944,-5.3813,-5.3813,-5.3813,-5.3813,-5.3813,-5.3813,-5.3813,-5.3813,-5.3813,-5.3813,-5.3813,-5.3813,-5.3813,-5.3813,0.0,0.0,0.0,0.0,0.0,0.0,0.0,0.0,0.0,0.0,0.0,0.0,0.0,0.0,0.0,0.0,0.0,0.0,0.0,0.0,0.0,0.0,0.0,0.0,0.0,0.0,0.0,0.0,0.0,0.0,0.0,-4.7925,-4.8001,-4.7974,-4.7937,-4.7865,-4.7782,-4.7717,0.0,0.0,0.0,0.0,0.0,0.0,0.0,0.0,0.0,0.0,0.0,0.0,0.0,-4.7165,-4.7551,-4.7772,-4.7934,-4.8225,0.0,-4.9153,-4.9545,-4.9916,-5.0217,-5.0285,-5.091,-5.1386,-5.103,-5.1736,-5.232,-5.1678,-5.1194,-5.078,-5.0469,-5.08,-5.1116,-5.1116,-5.2078,-5.2958,-5.3274,-5.3884,-5.4453,-5.4769,-5.5326,-5.5703,-5.5703,-5.5703,-5.5703,-5.5703,-5.5703,-5.5703,-5.5703,-5.5703,-5.5703,-5.5703,-5.5703,-5.5703,-5.5703,-5.5703,-5.5618,-5.5461,-5.5023,-5.47,-5.4495,-5.4017,-5.3813,-5.3813,-5.3813,-5.3813,-5.3813,-5.3813,-5.3813,-5.3813,-5.3813,-5.3813,-5.3813,-5.3813,-5.3813,-5.3813,0.0,0.0,0.0,0.0,0.0,0.0,0.0,0.0,0.0,0.0,0.0,0.0,0.0,0.0,0.0,0.0,0.0,0.0,0.0,0.0,0.0,0.0,0.0,0.0,0.0,0.0,0.0,0.0,0.0,0.0,0.0,0.0,0.0,0.0,0.0,0.0,0.0,0.0,0.0,0.0,0.0,0.0,0.0,0.0,0.0,0.0,0.0,0.0,0.0,0.0,-4.7758,-4.7844,-4.7948,-4.8149,-4.8479,-4.9056,-4.9323,-4.961,-5.0195,-5.0246,-5.016,-5.016,-5.0509,-5.0592,-4.9785,-5.0405,-5.0963,-5.0238,-5.0077,-5.0098,-5.018,-5.037,-5.0528,-5.0623,-5.1267,-5.2004,-5.2753,-5.3373,-5.4035,-5.4731,-5.5288,-5.5651,-5.5703,-5.5703,-5.5703,-5.5703,-5.5703,-5.5703,-5.5703,-5.5703,-5.5703,-5.5703,-5.5703,-5.5703,-5.5703,-5.5703,-5.5703,-5.5684,-5.5091,-5.4791,-5.4776,-5.4107,-5.3813,-5.3813,-5.3813,-5.3813,-5.3813,-5.3813,-5.3813,-5.3813,-5.3813,-5.3813,-5.3813,-5.3813,-5.3813,-5.3813,0.0,0.0,0.0,0.0,0.0,0.0,0.0,0.0,0.0,0.0,-4.671,-4.6693,0.0,0.0,0.0,0.0,0.0,0.0,0.0,0.0,0.0,0.0,0.0,0.0,0.0,0.0,0.0,0.0,-4.6036,0.0,0.0,0.0,0.0,0.0,0.0,0.0,0.0,0.0,0.0,0.0,0.0,0.0,0.0,0.0,0.0,0.0,0.0,0.0,0.0,0.0,-4.8103,-4.8723,-4.9407,-4.9643,-4.9689,-4.9798,-4.989,-4.9907,-5.0046,-5.0051,-5.0022,-5.0022,-5.0425,-5.0592,-4.9785,-5.0258,-5.0624,-4.972,-4.9709,-4.9805,-4.9669,-5.0111,-5.0698,-5.1323,-5.2022,-5.2772,-5.3516,-5.3953,-5.4361,-5.4742,-5.5138,-5.5449,-5.5692,-5.5703,-5.5703,-5.5703,-5.5703,-5.5703,-5.5703,-5.5703,-5.5703,-5.5703,-5.5703,-5.5703,-5.5703,-5.5703,-5.5703,-5.5684,-5.5091,-5.4791,-5.4776,-5.4107,-5.3813,-5.3813,-5.3813,-5.3813,-5.3813,-5.3813,-5.3813,-5.3813,-5.3813,-5.3813,-5.3813,-5.3813,-5.3813,-5.3813,0.0,0.0,0.0,0.0,0.0,0.0,0.0,-4.6668,-4.6582,-4.6582,-4.6598,-4.6609,-4.6696,-4.7564,0.0,0.0,0.0,0.0,0.0,0.0,0.0,0.0,0.0,0.0,0.0,-4.5998,-4.5972,-4.5897,0.0,-4.6023,-4.6097,-4.6097,-4.6097,-4.6097,-4.5972,0.0,0.0,0.0,0.0,0.0,0.0,0.0,0.0,0.0,0.0,0.0,0.0,0.0,0.0,0.0,-4.7862,-4.893,-4.9752,-5.0011,-5.0011,-5.0011,-5.0011,-5.0011,-5.0011,-5.0011,-5.004,-5.0109,-5.0302,-5.0205,-4.9152,-4.9603,-4.9888,-4.8709,-4.9011,-4.946,-4.9353,-4.9982,-5.0621,-5.0964,-5.1966,-5.2828,-5.3182,-5.3863,-5.4413,-5.4761,-5.5097,-5.5401,-5.5662,-5.5703,-5.5703,-5.5703,-5.5703,-5.5703,-5.5703,-5.5703,-5.5703,-5.5703,-5.5703,-5.5703,-5.5703,-5.5703,-5.5629,-5.5485,-5.5023,-5.4716,-5.4528,-5.4036,-5.3813,-5.3813,-5.3813,-5.3813,-5.3813,-5.3813,-5.3813,-5.3813,-5.3813,-5.3813,-5.3813,-5.3813,-5.3813,-5.3813,0.0,0.0,0.0,0.0,0.0,0.0,0.0,-4.6633,-4.6528,-4.6528,-4.6493,-4.6528,-4.6687,-4.7852,-4.8433,0.0,0.0,0.0,0.0,0.0,0.0,0.0,0.0,0.0,0.0,0.0,0.0,-4.5947,-4.5972,0.0,0.0,0.0,0.0,0.0,-4.6048,-4.5972,-4.5947,0.0,0.0,0.0,0.0,-4.5397,0.0,0.0,0.0,0.0,0.0,0.0,0.0,0.0,-4.7389,-4.8465,-4.9269,-4.9631,-4.9752,-4.9752,-4.9752,-4.9786,-4.9959,-5.0011,-5.004,-5.0149,-5.0189,-4.9875,-4.8556,-4.8961,-4.9248,-4.7919,-4.844,-4.9146,-4.9246,-4.9816,-5.0335,-5.0488,-5.1476,-5.2342,-5.266,-5.3435,-5.4142,-5.4635,-5.4981,-5.5295,-5.5596,-5.5682,-5.5703,-5.5703,-5.5703,-5.5703,-5.5703,-5.5703,-5.5703,-5.5703,-5.5703,-5.5703,-5.5703,-5.5703,-5.5596,-5.5376,-5.4981,-5.467,-5.438,-5.4,-5.3813,-5.3813,-5.3813,-5.3813,-5.3813,-5.3813,-5.3813,-5.3813,-5.3813,-5.3813,-5.3813,-5.3813,-5.3813,-5.3813,0.0,0.0,0.0,0.0,0.0,0.0,0.0,-4.6333,-4.6333,-4.6333,-4.6722,-4.705,-4.705,-4.7787,-4.8745,0.0,0.0,0.0,0.0,0.0,0.0,0.0,0.0,0.0,0.0,0.0,0.0,-4.5821,-4.5947,0.0,0.0,0.0,0.0,0.0,0.0,-4.5922,-4.5795,-4.5641,0.0,0.0,0.0,0.0,0.0,0.0,0.0,0.0,0.0,0.0,0.0,0.0,0.0,-4.6941,-4.77,-4.8361,-4.8896,-4.8896,0.0,0.0,-4.9804,-5.0011,-4.9993,-5.004,-5.0092,-4.9847,-4.8429,-4.8738,-4.9036,-4.7993,-4.8347,-4.8973,-4.9393,-4.9549,-4.9781,-5.0394,-5.0605,-5.1174,-5.251,-5.2771,-5.3214,-5.4221,-5.4639,-5.4966,-5.5314,-5.5562,-5.5703,-5.5703,-5.5703,-5.5703,-5.5703,-5.5703,-5.5703,-5.5703,-5.5703,-5.5703,-5.5703,-5.5703,-5.5692,-5.5651,-5.5078,-5.4776,-5.4731,-5.4089,-5.3813,-5.3813,-5.3813,-5.3813,-5.3813,-5.3813,-5.3813,-5.3813,-5.3813,-5.3813,-5.3813,-5.3813,-5.3813,-5.3813,0.0,0.0,0.0,0.0,0.0,0.0,-4.6333,-4.6207,-4.6314,-4.6722,-4.6878,-4.7254,-4.8095,-4.8463,-4.89,0.0,0.0,0.0,0.0,0.0,0.0,0.0,0.0,0.0,0.0,0.0,-4.6097,-4.6048,-4.6097,0.0,0.0,0.0,0.0,0.0,0.0,-4.5972,-4.5897,-4.5693,0.0,0.0,0.0,0.0,0.0,0.0,0.0,0.0,0.0,0.0,-4.5449,-4.5759,0.0,0.0,-4.6362,-4.6845,0.0,0.0,-4.8792,-4.8965,-4.9786,-5.0011,-5.0022,-5.0092,-4.9831,-4.932,-4.8415,0.0,-4.8479,-4.7904,-4.8329,-4.8937,-4.9409,-4.9509,-4.9587,-4.9856,-5.0239,0.0,-5.1288,-5.1759,-5.2426,-5.3501,-5.3757,-5.4133,-5.4909,-5.5091,-5.5237,-5.5437,-5.5607,-5.5703,-5.5703,-5.5703,-5.5703,-5.5703,-5.5703,-5.5703,-5.5703,-5.5703,-5.552,-5.5159,-5.4905,-5.4591,-5.4177,-5.3907,-5.3813,-5.3813,-5.3813,-5.3813,-5.3813,-5.3813,-5.3813,-5.3813,-5.3813,-5.3813,-5.3813,-5.3813,-5.3813,-5.3813,0.0,0.0,0.0,0.0,0.0,-4.6369,-4.6528,-4.6455,-4.6649,-4.7321,-4.7422,-4.7786,-4.879,-4.9084,-4.9252,-4.9372,-4.9965,0.0,0.0,0.0,0.0,0.0,0.0,0.0,0.0,0.0,-4.6196,-4.6196,-4.6196,-4.6196,0.0,0.0,-4.6196,-4.6214,0.0,0.0,0.0,0.0,0.0,0.0,0.0,0.0,0.0,0.0,0.0,0.0,0.0,0.0,0.0,0.0,0.0,0.0,0.0,0.0,0.0,0.0,-4.8293,-4.8637,-4.9441,-4.9821,-5.0022,-5.012,-4.9606,-4.8965,-4.8461,0.0,-4.8165,-4.797,-4.8384,-4.8937,-4.9409,-4.9509,-4.9509,0.0,0.0,-5.026,-5.0453,-5.0946,-5.1634,-5.2606,-5.2814,-5.3261,-5.4231,-5.461,-5.4895,-5.5138,-5.5425,-5.5585,-5.5585,-5.5651,-5.5703,-5.5703,-5.5703,-5.5703,-5.5703,-5.5703,-5.5497,-5.5078,-5.4981,-5.4654,-5.4089,-5.4,-5.3889,-5.3813,-5.3813,-5.3813,-5.3813,-5.3813,-5.3813,-5.3813,-5.3813,-5.3813,-5.3813,-5.3813,-5.3813,-5.3813,0.0,0.0,0.0,0.0,0.0,0.0,-4.7015,-4.7084,-4.7338,-4.8081,-4.8589,-4.8883,-4.8883,-4.9543,-4.9982,-5.0011,-5.012,0.0,0.0,0.0,0.0,0.0,0.0,0.0,0.0,0.0,-4.6196,-4.6196,-4.6196,-4.6196,-4.6196,-4.6196,-4.6196,-4.6196,0.0,0.0,0.0,0.0,0.0,0.0,0.0,0.0,0.0,0.0,0.0,0.0,0.0,0.0,0.0,0.0,0.0,0.0,0.0,0.0,0.0,0.0,-4.7148,-4.7862,-4.8603,-4.9378,-5.0011,-5.0011,-4.9538,-4.8993,0.0,0.0,-4.8209,-4.8204,-4.8513,-4.8937,-4.9409,-4.9509,-4.9509,-4.9509,-4.9509,0.0,-5.0413,-5.0509,-5.0775,-5.1532,-5.1904,-5.2394,-5.3144,-5.4178,-5.4806,-5.4806,-5.5124,-5.5301,-5.5301,-5.5562,-5.5703,-5.5703,-5.5703,-5.5703,-5.5703,-5.5703,-5.5703,-5.5692,-5.5413,-5.5124,-5.4776,-5.4446,-5.4125,-5.3813,-5.3813,-5.3813,-5.3813,-5.3813,-5.3813,-5.3813,-5.3813,-5.3813,-5.3813,-5.3813,-5.3813,-5.3813,0.0,0.0,0.0,0.0,0.0,0.0,0.0,-4.688,-4.7305,-4.8509,-4.8807,-4.9084,-4.959,-4.986,-5.0011,-5.0011,-5.0051,0.0,0.0,0.0,0.0,0.0,0.0,0.0,0.0,0.0,-4.6196,-4.6196,-4.6196,-4.6196,-4.6196,-4.6196,-4.6147,-4.6048,-4.5972,-4.5821,0.0,0.0,0.0,0.0,0.0,0.0,-4.5397,0.0,0.0,0.0,0.0,0.0,0.0,0.0,0.0,0.0,0.0,0.0,0.0,0.0,0.0,0.0,-4.7844,-4.8224,-4.8441,-4.8441,-4.8048,-4.7621,-4.7492,0.0,-4.7262,-4.782,-4.8158,-4.8604,-4.9361,-4.9509,-4.9509,-4.9509,-4.9509,-4.9568,-4.9781,-5.022,-5.0757,-5.1513,-5.2579,-5.3345,-5.3589,-5.4112,-5.4463,-5.4463,-5.4776,-5.5069,-5.5288,-5.5376,-5.5497,-5.5684,-5.5703,-5.5703,-5.5703,-5.5703,-5.5607,-5.5425,-5.5111,-5.4791,-5.4446,-5.4107,-5.3907,-5.3813,-5.3813,-5.3813,-5.3813,-5.3813,-5.3813,-5.3813,-5.3813,-5.3813,-5.3813,-5.3813,-5.3813,-5.3813,0.0,0.0,0.0,0.0,0.0,0.0,0.0,-4.7589,-4.8014,-4.9178,-4.9316,-4.9483,-4.9935,-5.0011,-5.0011,-5.0011,-5.0011,0.0,0.0,0.0,0.0,0.0,0.0,0.0,0.0,-4.6354,-4.6196,-4.6196,-4.6196,-4.6196,-4.6196,-4.6147,-4.6073,-4.5998,-4.5922,-4.5795,0.0,0.0,0.0,0.0,0.0,0.0,-4.5397,0.0,0.0,0.0,0.0,0.0,0.0,0.0,0.0,0.0,0.0,0.0,0.0,0.0,-4.5742,0.0,0.0,-4.751,-4.7689,-4.7689,-4.7348,0.0,0.0,0.0,-4.708,-4.7986,-4.831,-4.864,-4.9361,-4.9509,-4.9509,-4.9509,-4.9509,-4.9587,-4.9837,-5.0239,-5.0757,-5.1513,-5.2659,-5.3367,-5.3367,-5.3831,-5.4107,-5.4107,-5.4413,-5.4761,-5.5097,-5.5217,-5.5413,-5.5684,-5.5703,-5.5703,-5.5703,-5.5703,-5.5618,-5.5437,-5.5138,-5.4821,-5.4479,-5.4124,-5.3907,-5.3813,-5.3813,-5.3813,0.0,-5.3813,-5.3813,-5.3813,-5.3813,-5.3813,-5.3813,-5.3813,-5.3813,-5.3813,0.0,0.0,0.0,0.0,0.0,0.0,0.0,-4.8883,-4.9161,-4.9906,-5.0011,-5.0011,-5.0011,-5.0011,-5.0011,-5.0011,0.0,0.0,0.0,0.0,0.0,0.0,0.0,0.0,-4.7397,-4.6677,-4.6267,-4.6196,-4.6196,-4.6196,-4.6214,-4.6073,-4.5998,-4.5998,-4.5998,-4.5922,0.0,0.0,0.0,0.0,0.0,0.0,0.0,0.0,0.0,0.0,0.0,0.0,0.0,0.0,0.0,0.0,0.0,0.0,0.0,0.0,0.0,0.0,0.0,-4.7,-4.7562,-4.7562,-4.7226,-4.7097,-4.7749,0.0,0.0,-4.8567,-4.8799,-4.8937,-4.9409,-4.9509,-4.9509,-4.9509,-4.9509,-4.974,-5.0413,-5.0602,-5.0927,-5.1664,-5.2361,-5.2772,-5.2772,-5.3404,-5.3813,-5.3813,-5.4089,-5.4413,-5.4746,-5.5083,-5.5389,-5.5651,-5.5703,-5.5703,-5.5703,-5.5703,-5.5703,-5.5703,-5.5425,-5.5138,-5.4821,-5.4463,-5.4143,-5.3832,-5.3794,-5.3813,-5.3813,-5.3813,-5.3813,-5.3813,-5.3813,-5.3813,-5.3813,-5.3813,-5.3813,-5.3813,0.0,0.0,0.0,0.0,0.0,0.0,0.0,0.0,0.0,0.0,-5.0011,-5.0011,-5.0011,-5.0011,-5.0011,0.0,0.0,0.0,0.0,0.0,0.0,0.0,0.0,0.0,-4.7415,-4.7204,-4.6835,-4.6196,-4.6196,-4.6196,-4.6196,-4.6172,-4.6097,-4.5998,-4.5998,-4.5871,0.0,0.0,0.0,0.0,0.0,0.0,0.0,0.0,0.0,0.0,-4.5397,-4.5397,0.0,0.0,0.0,0.0,0.0,0.0,0.0,0.0,-4.5397,0.0,-4.5621,0.0,-4.5931,-4.5931,-4.6014,-4.6275,0.0,0.0,0.0,-4.8567,-4.8799,-4.8937,-4.9409,-4.9509,-4.9509,-4.9509,-4.9509,-4.974,-5.0413,-5.1476,-5.2472,-5.32,-5.3442,-5.3534,-5.3534,-5.3701,-5.3813,-5.3813,-5.387,-5.4054,-5.4397,-5.4746,-5.505,-5.5376,-5.5596,-5.5703,-5.5703,-5.5703,-5.5703,-5.5703,-5.5425,-5.5262,-5.5164,-5.4576,-5.4264,-5.4159,-5.3907,-5.3813,-5.3813,-5.3813,-5.3813,-5.3813,-5.3813,-5.3813,-5.3813,-5.3813,-5.3813,-5.3813,0.0,0.0,0.0,0.0,0.0,0.0,0.0,0.0,0.0,0.0,0.0,0.0,0.0,0.0,0.0,0.0,0.0,0.0,0.0,0.0,0.0,0.0,0.0,-4.9074,-4.7959,-4.7573,-4.7011,-4.6196,-4.6196,-4.6196,-4.6196,-4.6122,-4.6073,-4.5998,-4.5922,-4.5897,0.0,0.0,0.0,0.0,-4.545,0.0,0.0,0.0,0.0,0.0,-4.5397,-4.5397,0.0,-4.5397,-4.5397,-4.5397,0.0,0.0,0.0,0.0,-4.5397,-4.5397,-4.5397,-4.5397,-4.5397,-4.5397,-4.5844,-4.6395,-4.6963,0.0,0.0,0.0,-4.9108,-4.9193,-4.9459,-4.9509,-4.9509,-4.9509,-4.9759,-5.0202,-5.0925,-5.1684,-5.2472,-5.32,-5.3293,-5.3423,-5.3775,-5.3813,-5.3813,-5.3813,-5.3813,-5.3944,-5.4281,-5.4623,-5.4952,-5.5288,-5.5562,-5.5703,-5.5703,-5.5703,-5.5703,-5.5703,-5.5425,-5.5301,-5.5275,-5.4607,-5.4315,-5.4281,-5.3944,-5.3813,-5.3813,-5.3813,-5.3813,-5.3813,-5.3813,-5.3813,-5.3813,-5.3813,-5.3813,-5.3813,0.0,0.0,0.0,0.0,0.0,0.0,0.0,0.0,0.0,0.0,0.0,0.0,0.0,0.0,0.0,0.0,0.0,0.0,0.0,0.0,0.0,0.0,0.0,-4.9521,-4.8784,-4.7977,-4.7187,-4.6372,-4.6267,-4.6196,-4.6196,-4.6073,-4.6023,-4.6023,-4.5897,-4.5972,0.0,0.0,-4.5667,-4.5718,-4.5502,0.0,0.0,0.0,0.0,0.0,0.0,0.0,0.0,-4.5397,-4.5397,-4.5397,-4.5397,0.0,0.0,0.0,0.0,0.0,-4.5397,-4.5483,-4.5579,-4.5467,-4.6059,-4.6778,-4.734,0.0,0.0,0.0,-4.9509,-4.9509,-4.9509,-4.9509,-4.9509,-4.9509,-5.0145,-5.0927,-5.1664,-5.1853,-5.2173,-5.279,-5.2883,-5.3107,-5.3738,-5.3813,-5.3813,-5.3813,-5.3813,-5.3926,-5.4212,-5.4544,-5.488,-5.5204,-5.5485,-5.5651,-5.5703,-5.5703,-5.5703,-5.5703,-5.5461,-5.5364,-5.5339,-5.4666,-5.4364,-5.4347,-5.3963,-5.3813,-5.3813,-5.3813,-5.3813,-5.3813,-5.3813,-5.3813,-5.3813,-5.3813,-5.3813,-5.3813,0.0,0.0,0.0,0.0,0.0,0.0,0.0,0.0,0.0,0.0,0.0,0.0,0.0,0.0,0.0,0.0,0.0,0.0,0.0,0.0,0.0,0.0,-5.0768,-5.0329,-4.9565,-4.8749,-4.7977,-4.7222,-4.653,-4.6196,-4.6196,-4.6172,-4.6172,-4.6172,-4.6147,-4.6023,-4.5846,-4.5812,-4.5641,-4.545,-4.5423,0.0,0.0,0.0,0.0,0.0,0.0,0.0,0.0,-4.5397,-4.5397,-4.5397,-4.5397,0.0,0.0,0.0,0.0,0.0,-4.5397,-4.5897,-4.6305,-4.5831,-4.5844,-4.6286,-4.7482,-4.7849,0.0,0.0,0.0,-4.9509,-4.9509,-4.9509,-4.9509,-4.9509,-5.0584,-5.1702,-5.2435,-5.307,-5.3497,-5.3627,-5.3627,-5.3664,-5.3794,-5.3813,-5.3813,-5.3813,-5.3813,-5.3813,-5.387,-5.4194,-5.4528,-5.4866,-5.5191,-5.5461,-5.5703,-5.5703,-5.5703,-5.5703,-5.5651,-5.564,-5.5618,-5.499,-5.4731,-5.4685,-5.4072,-5.3813,-5.3813,-5.3813,-5.3813,-5.3813,-5.3813,-5.3813,-5.3813,-5.3813,-5.3813,-5.3813,0.0,0.0,0.0,0.0,0.0,0.0,0.0,0.0,0.0,0.0,0.0,0.0,0.0,0.0,0.0,0.0,0.0,0.0,0.0,0.0,0.0,-5.0891,-5.0891,-5.0504,-4.9723,-4.9328,-4.8573,-4.7397,-4.7029,-4.6618,-4.6196,-4.6196,-4.6147,-4.6097,-4.6097,-4.5972,-4.5812,-4.5718,-4.5632,-4.5502,0.0,0.0,0.0,0.0,0.0,0.0,0.0,0.0,0.0,0.0,-4.5397,-4.5397,-4.5397,0.0,0.0,0.0,0.0,0.0,-4.5589,-4.5901,-4.6274,-4.6667,-4.7149,-4.7729,-4.8699,-4.9222,-4.9583,-4.9957,-5.003,-4.9934,-4.9568,-4.98,-5.0298,-5.1097,-5.1456,-5.1853,-5.2585,-5.2659,-5.2753,-5.3163,-5.32,-5.3349,-5.3757,-5.3813,-5.3813,-5.3813,-5.3813,-5.3813,-5.3813,-5.4125,-5.4446,-5.4791,-5.5124,-5.5425,-5.5703,-5.5703,-5.5703,-5.5703,-5.5703,-5.5703,-5.5692,-5.5269,-5.4966,-5.4776,-5.4281,-5.3963,-5.3813,-5.3813,-5.3813,-5.3813,-5.3813,-5.3813,-5.3813,-5.3813,-5.3813,-5.3813,0.0,0.0,0.0,0.0,0.0,0.0,0.0,0.0,0.0,0.0,0.0,0.0,0.0,0.0,0.0,0.0,0.0,0.0,0.0,0.0,-5.0729,-5.0891,-5.0891,-5.0592,-4.9978,-4.9811,-4.9126,-4.7924,-4.7573,-4.6968,-4.6147,-4.6147,-4.6073,-4.5947,-4.5947,-4.5871,-4.5761,-4.5641,-4.5581,-4.5537,0.0,0.0,0.0,0.0,0.0,0.0,0.0,0.0,0.0,0.0,0.0,0.0,0.0,0.0,0.0,-4.5397,-4.5397,-4.5476,-4.5727,-4.5951,-4.6349,-4.7339,-4.7975,-4.8657,-4.9748,-5.0268,-5.0563,-5.0731,-5.0757,-5.0546,-4.9856,-5.0145,-5.0927,-5.2229,-5.2098,-5.2117,-5.2846,-5.2472,-5.2323,-5.2902,-5.2958,-5.3182,-5.3757,-5.3813,-5.3813,-5.3813,-5.3813,-5.3813,-5.3813,-5.4035,-5.4364,-5.4791,-5.5056,-5.5364,-5.5703,-5.5703,-5.5703,-5.5703,-5.5703,-5.5703,-5.5703,-5.5413,-5.5164,-5.4895,-5.4479,-5.4142,-5.3907,-5.3832,-5.3813,-5.3813,-5.3813,-5.3813,-5.3813,-5.3813,-5.3813,-5.3813,0.0,0.0,0.0,0.0,0.0,0.0,0.0,0.0,0.0,0.0,0.0,0.0,0.0,0.0,0.0,0.0,0.0,0.0,0.0,0.0,-5.0873,-5.0891,-5.0891,-5.0855,-5.0803,-5.0092,-4.9653,-4.9548,-4.8099,-4.6918,-4.6023,-4.6023,-4.5947,-4.5821,-4.5821,-4.5744,-4.5615,-4.5589,-4.5528,-4.5423,-4.5397,0.0,0.0,0.0,0.0,0.0,0.0,0.0,0.0,0.0,0.0,0.0,0.0,0.0,-4.5397,-4.5397,-4.5397,-4.5476,-4.5727,-4.6351,-4.7003,-4.748,-4.719,-4.7387,-4.9745,-4.9825,-4.9836,-5.1224,-5.1513,-5.1305,-5.0565,-5.0469,-5.0757,-5.1551,-5.221,-5.2883,-5.3627,-5.3664,-5.3664,-5.3701,-5.372,-5.3738,-5.3794,-5.3813,-5.3813,-5.3813,-5.3813,-5.3813,-5.3813,-5.3813,-5.4124,-5.4776,-5.4821,-5.5119,-5.5684,-5.5703,-5.5703,-5.5703,-5.5703,-5.5703,-5.5703,-5.5413,-5.5288,-5.5236,-5.4591,-5.4298,-5.4246,-5.3926,-5.3813,-5.3813,-5.3813,-5.3813,-5.3813,-5.3813,-5.3813,-5.3813,0.0,0.0,0.0,0.0,0.0,0.0,0.0,0.0,0.0,0.0,0.0,0.0,0.0,0.0,0.0,0.0,0.0,0.0,0.0,0.0,-5.0891,-5.0891,-5.0891,-5.0891,-5.0891,-5.0592,-5.0215,-4.9706,-4.8057,-4.6842,-4.5998,-4.5998,-4.5871,-4.5667,-4.5846,-4.5761,-4.5476,-4.5641,-4.5607,-4.5397,-4.5502,-4.5476,0.0,0.0,0.0,0.0,0.0,0.0,0.0,0.0,-4.5397,-4.5397,-4.5397,-4.5397,-4.5397,-4.5397,-4.5397,-4.5485,-4.5912,-4.6582,-4.7245,-4.7738,-4.7653,-4.8098,-5.0446,-5.079,-5.0936,-5.2048,-5.2285,-5.206,-5.1306,-5.1552,-5.1948,-5.2229,-5.2902,-5.3479,-5.3757,-5.3813,-5.3813,-5.3813,-5.3813,-5.3813,-5.3813,-5.3813,-5.3813,-5.3813,-5.3813,-5.3813,-5.3813,-5.3813,-5.4107,-5.4776,-5.4791,-5.5091,-5.5684,-5.5703,-5.5703,-5.5703,-5.5703,-5.5703,-5.5703,-5.5596,-5.5449,-5.5275,-5.4821,-5.4495,-5.4281,-5.3944,-5.3813,-5.3813,-5.3813,-5.3813,-5.3813,-5.3813,-5.3813,-5.3813,0.0,0.0,0.0,0.0,0.0,0.0,0.0,0.0,0.0,0.0,0.0,0.0,0.0,0.0,0.0,0.0,0.0,0.0,-5.0891,-5.0891,-5.0891,-5.0891,-5.0891,-5.0873,-5.0819,-5.0819,-5.0583,-5.0092,-4.8373,-4.7116,-4.6314,-4.6044,-4.5838,-4.5607,-4.5795,-4.571,-4.5423,-4.5658,-4.5632,-4.5476,-4.5563,-4.5554,0.0,0.0,0.0,0.0,0.0,0.0,0.0,0.0,-4.5397,-4.5397,0.0,0.0,-4.5397,-4.5397,-4.5397,-4.5528,-4.6038,-4.654,-4.7064,-4.7813,-4.8004,-4.8609,-5.0895,-5.1235,-5.1478,-5.279,-5.2865,-5.2547,-5.2041,-5.2361,-5.2697,-5.2697,-5.333,-5.3813,-5.3813,-5.3813,-5.3813,-5.3813,-5.3813,-5.3813,-5.3813,-5.3813,-5.3813,-5.3813,-5.3813,-5.3813,-5.3813,-5.3813,-5.4054,-5.4623,-5.4746,-5.505,-5.5573,-5.5651,-5.5703,-5.5703,-5.5703,-5.5703,-5.5703,-5.5703,-5.5596,-5.5401,-5.4981,-5.467,-5.4413,-5.3981,-5.3813,-5.3813,-5.3813,-5.3813,-5.3813,-5.3813,-5.3813,-5.3813,0.0,0.0,0.0,0.0,0.0,0.0,0.0,0.0,0.0,0.0,0.0,0.0,0.0,0.0,0.0,0.0,0.0,0.0,-5.0891,-5.0891,-5.0891,-5.0891,-5.0891,-5.0801,-5.0585,-5.0585,-5.0684,-5.0873,-4.9161,-4.7867,-4.6978,-4.6178,-4.5736,-4.5607,-4.5607,-4.5528,-4.5397,-4.5554,-4.5607,-4.5607,-4.5607,-4.5607,-4.5563,0.0,0.0,0.0,0.0,0.0,0.0,0.0,-4.5397,0.0,0.0,0.0,0.0,-4.5397,-4.5397,-4.5528,-4.6038,-4.6204,-4.6495,-4.7713,-4.8022,-4.8603,-5.0873,-5.0885,-5.1048,-5.3345,-5.3219,-5.2716,-5.2697,-5.2716,-5.2716,-5.2697,-5.333,-5.3813,-5.3813,-5.3813,-5.3813,-5.3813,-5.3813,-5.3813,-5.3813,-5.3813,-5.3813,-5.3813,-5.3813,-5.3813,-5.3813,-5.3813,-5.3944,-5.4298,-5.4623,-5.4952,-5.5301,-5.5573,-5.5703,-5.5703,-5.5703,-5.5703,-5.5703,-5.5703,-5.5703,-5.5662,-5.5045,-5.4791,-5.4746,-5.4072,-5.3813,-5.3813,-5.3813,-5.3813,-5.3813,-5.3813,-5.3813,-5.3813,0.0,0.0,0.0,0.0,0.0,0.0,0.0,0.0,0.0,0.0,0.0,0.0,0.0,0.0,0.0,0.0,0.0,0.0,-5.0891,-5.0891,-5.0846,-5.0702,-5.0702,-5.062,-5.0453,-5.0453,-5.0275,-4.9905,-4.9388,-4.8417,-4.6987,-4.676,-4.6213,-4.5476,-4.5554,-4.5581,-4.5554,-4.5667,-4.5684,-4.5607,-4.5693,-4.5632,-4.545,0.0,0.0,0.0,0.0,0.0,0.0,0.0,0.0,0.0,0.0,0.0,-4.5397,-4.5397,-4.5397,-4.5476,-4.5811,-4.6715,-4.7569,-4.7692,-4.8533,-4.9604,-5.0605,-5.0972,-5.1621,-5.3437,-5.3627,-5.333,-5.279,-5.3126,-5.3312,-5.2772,-5.333,-5.3813,-5.3813,-5.3813,-5.3813,-5.3813,-5.3813,-5.3813,-5.3813,-5.3813,-5.3813,-5.3813,-5.3813,-5.3813,-5.3813,-5.3813,-5.3944,-5.4298,-5.4623,-5.4952,-5.5301,-5.5573,-5.5703,-5.5703,-5.5703,-5.5703,-5.5703,-5.5703,-5.5703,-5.5662,-5.5045,-5.4791,-5.4746,-5.4072,-5.3813,-5.3813,-5.3813,-5.3813,-5.3813,-5.3813,-5.3813,-5.3813,0.0,0.0,0.0,0.0,0.0,0.0,0.0,0.0,0.0,0.0,-5.0246,-5.0246,0.0,0.0,0.0,0.0,0.0,0.0,0.0,0.0,-5.0729,-5.0612,-5.0547,-5.0453,-5.0313,-5.0331,-4.9994,-4.9338,-4.9007,-4.838,-4.7404,-4.676,-4.6092,-4.5476,-4.5632,-4.5641,-4.5607,-4.5744,-4.5744,-4.5667,-4.5693,-4.5615,-4.5476,0.0,0.0,0.0,0.0,0.0,0.0,0.0,0.0,0.0,0.0,0.0,-4.5397,-4.5397,-4.5397,-4.5545,-4.6109,-4.6986,-4.7841,-4.8326,-4.9168,-5.0122,-5.1072,-5.1697,-5.2404,-5.3567,-5.3813,-5.3664,-5.3219,-5.3516,-5.3664,-5.32,-5.3497,-5.3813,-5.3813,-5.3813,-5.3813,-5.3813,-5.3813,-5.3813,-5.3813,-5.3813,-5.3813,-5.3813,-5.3813,-5.3813,-5.3813,-5.3813,-5.3907,-5.4089,-5.456,-5.4895,-5.5097,-5.5497,-5.5703,-5.5703,-5.5703,-5.5703,-5.5703,-5.5703,-5.5703,-5.5662,-5.5045,-5.4731,-5.456,-5.4017,-5.3813,-5.3813,-5.3813,-5.3813,-5.3813,-5.3813,-5.3813,-5.3813,0.0,0.0,0.0,0.0,0.0,0.0,0.0,0.0,0.0,0.0,-5.0274,-5.0246,0.0,0.0,0.0,0.0,0.0,0.0,0.0,0.0,-5.0575,-5.0557,-5.0425,-5.0302,-5.0189,-5.0119,-4.9756,-4.9108,-4.838,-4.8001,-4.7934,-4.6413,-4.5684,-4.5607,-4.5744,-4.5744,-4.5641,-4.5744,-4.5795,-4.5795,-4.5641,-4.5589,-4.5581,-4.545,0.0,0.0,0.0,0.0,0.0,0.0,0.0,0.0,-4.5397,-4.5397,-4.5397,-4.5397,-4.5449,-4.5735,-4.6691,-4.7169,-4.7761,-4.9284,-4.9846,-5.0411,-5.195,-5.2696,-5.3162,-5.3698,-5.3813,-5.3813,-5.3813,-5.3813,-5.3813,-5.3813,-5.3813,-5.3813,-5.3813,-5.3813,-5.3813,-5.3813,-5.3813,-5.3813,-5.3813,-5.3813,-5.3813,-5.3813,-5.3813,-5.3813,-5.3813,-5.3813,-5.3813,-5.3813,-5.4446,-5.4791,-5.4791,-5.5406,-5.5703,-5.5703,-5.5703,-5.5703,-5.5703,-5.5703,-5.5662,-5.5596,-5.505,-5.4591,-5.4229,-5.3926,-5.3813,-5.3813,-5.3813,-5.3813,-5.3813,-5.3813,-5.3813,-5.3813,0.0,0.0,0.0,0.0,0.0,0.0,0.0,0.0,0.0,0.0,0.0,0.0,0.0,0.0,0.0,0.0,0.0,0.0,0.0,0.0,-5.0397,-5.0285,-5.0149,-5.008,-5.0051,-4.9401,-4.9106,-4.9108,-4.9028,-4.8333,-4.7081,-4.6804,-4.6309,-4.5607,-4.5744,-4.5846,-4.5897,-4.5821,-4.5795,-4.5795,-4.5641,-4.5528,-4.545,-4.5397,-4.5397,0.0,0.0,0.0,0.0,0.0,0.0,0.0,-4.5397,-4.5397,-4.5397,-4.5397,-4.5845,-4.6389,-4.6625,-4.7758,-4.892,-4.9296,-5.0054,-5.0972,-5.2053,-5.2391,-5.2722,-5.3621,-5.3813,-5.3813,-5.3813,-5.3813,-5.3813,-5.3813,-5.3813,-5.3813,-5.3813,-5.3813,-5.3813,-5.3813,-5.3813,-5.3813,-5.3813,-5.3813,-5.3813,-5.3813,-5.3813,-5.3813,-5.3813,-5.3813,-5.3813,-5.3813,-5.4446,-5.4791,-5.4791,-5.5406,-5.5703,-5.5703,-5.5703,-5.5703,-5.5703,-5.5703,-5.5442,-5.4995,-5.4851,-5.4463,-5.3889,-5.3832,-5.3813,-5.3813,-5.3813,-5.3813,-5.3813,-5.3813,-5.3813,-5.3813,0.0,0.0,0.0,0.0,0.0,0.0,0.0,0.0,0.0,0.0,0.0,0.0,0.0,0.0,0.0,0.0,0.0,0.0,0.0,0.0,0.0,-5.0092,-5.0022,-4.9821,-4.9413,-4.8999,-4.8532,-4.7989,-4.7989,-4.7627,-4.6891,-4.65,-4.61,-4.5693,-4.5821,-4.5897,-4.5897,-4.5821,-4.577,-4.5693,-4.5554,-4.545,-4.5397,-4.5397,-4.5397,-4.5397,-4.5397,0.0,0.0,0.0,0.0,0.0,0.0,0.0,-4.5397,-4.5397,-4.569,-4.6173,-4.6941,-4.7919,-4.8928,-4.9841,-5.0484,-5.1097,-5.1788,-5.2136,-5.2526,-5.3304,-5.364,-5.3813,-5.3813,-5.3813,-5.3813,-5.3813,-5.3813,-5.3813,-5.3813,-5.3601,-5.3542,-5.3756,-5.3601,-5.3562,-5.3793,-5.3813,-5.3813,-5.3813,-5.3813,-5.3813,-5.3813,-5.3813,-5.3813,-5.3813,-5.4446,-5.4791,-5.4791,-5.5406,-5.5703,-5.5703,-5.5703,-5.5703,-5.5703,-5.5703,-5.5531,-5.5211,-5.4924,-5.4607,-5.4264,-5.3926,-5.3813,-5.3813,-5.3813,-5.3813,-5.3813,-5.3813,-5.3813,-5.3813,0.0,0.0,0.0,0.0,0.0,0.0,0.0,0.0,0.0,0.0,0.0,0.0,0.0,0.0,0.0,0.0,0.0,0.0,0.0,0.0,0.0,0.0,-4.9683,-4.9355,-4.881,-4.8534,-4.7893,-4.6784,-4.6556,-4.6559,-4.6812,-4.6005,-4.571,-4.5846,-4.5947,-4.5947,-4.5821,-4.5787,-4.5693,-4.5607,-4.545,-4.5397,-4.5397,-4.5432,-4.5459,-4.5476,-4.5511,-4.5537,-4.5563,-4.5735,0.0,0.0,0.0,0.0,-4.5537,-4.5485,-4.5589,-4.5995,-4.7247,-4.7929,-4.8721,-5.0486,-5.0891,-5.1017,-5.1493,-5.1964,-5.2436,-5.2993,-5.3464,-5.3813,-5.3813,-5.3813,-5.3813,-5.3813,-5.3813,-5.3813,-5.3813,-5.3404,-5.3242,-5.3621,-5.3343,-5.3242,-5.364,-5.3756,-5.3813,-5.3813,-5.3813,-5.3813,-5.3813,-5.3813,-5.3813,-5.3813,-5.4446,-5.4791,-5.4791,-5.5406,-5.5703,-5.5703,-5.5703,-5.5703,-5.5703,-5.5703,-5.5662,-5.5607,-5.505,-5.4761,-5.467,-5.4054,-5.3813,-5.3813,-5.3813,-5.3813,-5.3813,-5.3813,-5.3813,-5.3813,0.0,0.0,0.0,0.0,0.0,0.0,0.0,0.0,0.0,0.0,-5.0415,-5.0415,0.0,0.0,0.0,0.0,0.0,0.0,0.0,0.0,0.0,-4.8913,-4.8344,-4.8241,-4.8775,-4.7534,-4.6857,-4.6784,-4.6065,-4.5875,-4.613,-4.5898,-4.5846,-4.5972,-4.5998,-4.5998,-4.5947,-4.5736,-4.5632,-4.5607,-4.545,-4.5397,-4.5423,-4.5649,-4.5735,-4.576,-4.6013,-4.6087,-4.6062,-4.5862,-4.5938,0.0,0.0,0.0,-4.6038,-4.5811,-4.6341,-4.7044,-4.7082,-4.8074,-4.9418,-5.0626,-5.0891,-5.1017,-5.1493,-5.1964,-5.2436,-5.2993,-5.3464,-5.3813,-5.3813,-5.3813,-5.3813,-5.3813,-5.3813,-5.3813,-5.3813,-5.3404,-5.3117,-5.318,-5.3138,-5.3117,-5.318,-5.3562,-5.3813,-5.3813,-5.3813,-5.3813,-5.3813,-5.3813,-5.3813,-5.3813,-5.4446,-5.4791,-5.4791,-5.5406,-5.5703,-5.5703,-5.5703,-5.5703,-5.5703,-5.5703,-5.5573,-5.5339,-5.4952,-5.4639,-5.4349,-5.3963,-5.3813,-5.3813,-5.3813,-5.3813,-5.3813,-5.3813,-5.3813,-5.3813,0.0,0.0,0.0,0.0,0.0,0.0,0.0,0.0,0.0,0.0,0.0,-5.0415,0.0,0.0,0.0,0.0,0.0,0.0,0.0,0.0,0.0,-4.8155,-4.7862,-4.7655,-4.7551,-4.7022,-4.6576,-4.6257,-4.5892,-4.5846,-4.6097,-4.5972,-4.5972,-4.6097,-4.6023,-4.5947,-4.5871,-4.5667,-4.5554,-4.5476,-4.5423,-4.5866,-4.6522,-4.5993,-4.6428,-4.7245,-4.6714,-4.6676,-4.6892,-4.6914,-4.6751,-4.6525,-4.6454,0.0,0.0,0.0,-4.634,-4.6846,-4.763,-4.8671,-4.9747,-5.067,-5.0891,-5.0954,-5.1158,-5.1576,-5.2036,-5.2544,-5.3038,-5.3502,-5.3756,-5.3813,-5.3813,-5.3813,-5.3813,-5.3813,-5.3813,-5.3404,-5.3096,-5.3096,-5.3096,-5.3096,-5.3096,-5.3504,-5.3813,-5.3813,-5.3813,-5.3813,-5.3813,-5.3813,-5.3813,-5.3813,-5.4446,-5.4791,-5.4791,-5.5406,-5.5703,-5.5703,-5.5703,-5.5703,-5.5703,-5.5703,-5.5562,-5.5288,-5.4957,-5.4607,-5.4281,-5.3944,-5.3813,-5.3813,-5.3813,-5.3813,-5.3813,-5.3813,-5.3813,-5.3813,0.0,0.0,0.0,0.0,0.0,0.0,0.0,0.0,0.0,0.0,0.0,0.0,0.0,0.0,0.0,0.0,0.0,0.0,0.0,0.0,0.0,-4.7424,-4.7207,-4.6931,-4.6613,-4.6487,-4.6221,-4.5795,-4.5795,-4.5922,-4.6196,-4.6097,-4.6073,-4.6147,-4.5998,-4.5871,-4.5744,-4.5607,-4.5502,-4.5441,-4.578,-4.6557,-4.7417,-4.6822,-4.7433,-4.8464,-4.7511,-4.7355,-4.7611,-4.7749,-4.7503,-4.7176,-4.7223,-4.6927,0.0,0.0,0.0,-4.6607,-4.7998,-4.8756,-4.939,-5.04,-5.0646,-5.0699,-5.0865,-5.1245,-5.1732,-5.2206,-5.274,-5.3242,-5.3717,-5.3813,-5.3813,-5.3813,-5.3813,-5.3813,-5.3813,-5.3404,-5.3096,-5.3096,-5.3096,-5.3096,-5.3096,-5.3504,-5.3813,-5.3813,-5.3813,-5.3813,-5.3813,-5.3813,-5.3813,-5.3813,-5.4364,-5.467,-5.467,-5.5288,-5.5629,-5.5703,-5.5703,-5.5703,-5.5703,-5.5703,-5.5508,-5.5164,-5.4909,-5.4607,-5.4281,-5.3944,-5.3813,-5.3813,-5.3813,-5.3813,-5.3813,-5.3813,-5.3813,-5.3813,0.0,0.0,0.0,0.0,0.0,0.0,0.0,0.0,0.0,0.0,0.0,0.0,-4.9423,-4.9181,-4.8768,-4.8023,-4.7161,-4.631,-4.5569,-4.5518,-4.5845,-4.6631,-4.5931,0.0,-4.6596,-4.5872,-4.5589,-4.5795,-4.5795,-4.5922,-4.6196,-4.6196,-4.6122,-4.5998,-4.5871,-4.5736,-4.5607,-4.5476,-4.5397,-4.5501,-4.6848,-4.7428,-4.7592,-4.8424,-4.8805,-4.8816,-4.8314,-4.8137,-4.8119,-4.7868,-4.7945,-4.8041,-4.7549,-4.7458,-4.7467,0.0,0.0,0.0,-4.7755,-4.7875,-4.8091,-4.9589,-4.9959,-5.0119,-5.0742,-5.1245,-5.1732,-5.2206,-5.274,-5.3242,-5.3717,-5.3813,-5.3813,-5.3813,-5.3813,-5.3813,-5.3813,-5.3404,-5.3096,-5.3096,-5.3096,-5.3096,-5.3096,-5.3504,-5.3813,-5.3813,-5.3813,-5.3813,-5.3813,-5.3813,-5.3813,-5.3813,-5.4124,-5.4332,-5.4332,-5.4995,-5.5437,-5.5703,-5.5703,-5.5703,-5.5703,-5.5703,-5.5382,-5.4821,-5.4806,-5.4607,-5.4281,-5.3944,-5.3813,-5.3813,-5.3813,-5.3813,-5.3813,-5.3813,-5.3813,-5.3813,0.0,0.0,0.0,0.0,0.0,0.0,0.0,0.0,0.0,0.0,0.0,0.0,0.0,-4.8186,-4.7385,-4.7091,-4.6312,-4.5707,-4.5414,-4.5397,-4.5518,-4.5811,-4.5552,-4.5535,-4.5811,-4.5614,-4.5632,-4.5795,-4.5795,-4.5922,-4.6214,-4.6023,-4.5922,-4.5871,-4.5821,-4.5736,-4.5615,-4.5829,-4.5953,-4.6168,-4.7483,-4.8605,-4.943,-4.9065,-4.9911,-5.1155,-4.9787,-4.9453,-4.9667,-4.956,-4.9101,-4.8549,-4.8366,-4.814,-4.7961,-4.7882,-4.7572,-4.7423,-4.8165,-4.8134,-4.8083,-4.901,-4.957,-4.9977,-5.0207,-5.07,-5.1383,-5.2136,-5.2436,-5.2849,-5.364,-5.3813,-5.3813,-5.3813,-5.3542,-5.3363,-5.3363,-5.2892,-5.2589,-5.2589,-5.2889,-5.3096,-5.3096,-5.3504,-5.3813,-5.3813,-5.3813,-5.3813,-5.3813,-5.3813,-5.3813,-5.3813,-5.4125,-5.4397,-5.4623,-5.5064,-5.5351,-5.5437,-5.5618,-5.5703,-5.5703,-5.5703,-5.5382,-5.4791,-5.4791,-5.4479,-5.3981,-5.3851,-5.3813,-5.3813,-5.3813,-5.3813,-5.3813,-5.3813,-5.3813,-5.3813,0.0,0.0,0.0,0.0,0.0,0.0,0.0,0.0,0.0,-4.9864,0.0,0.0,0.0,0.0,-4.651,-4.6207,-4.5707,-4.5397,-4.5397,-4.5397,-4.5397,-4.5397,-4.5397,-4.5397,-4.5397,-4.5761,-4.5866,-4.5718,-4.5996,-4.6107,-4.6048,-4.5871,-4.5795,-4.5795,-4.5795,-4.5605,-4.5311,-4.5996,-4.6206,-4.6292,-4.8285,-4.9698,-5.0548,-4.9996,-5.086,-5.2137,-5.0633,-5.0271,-5.0546,-5.0794,-5.0378,-4.9702,-4.9457,-4.8915,-4.8365,-4.8233,-4.8,-4.7866,-4.8178,-4.8167,-4.8137,-4.8506,-4.9155,-4.9757,-5.0062,-5.0576,-5.1287,-5.2354,-5.2567,-5.2827,-5.364,-5.3813,-5.3813,-5.3813,-5.3542,-5.3263,-5.3117,-5.2784,-5.2481,-5.2304,-5.2762,-5.3096,-5.3096,-5.3504,-5.3813,-5.3813,-5.3813,-5.3813,-5.3813,-5.3813,-5.3813,-5.3813,-5.4018,-5.4298,-5.4639,-5.4966,-5.5178,-5.5301,-5.5573,-5.5703,-5.5703,-5.5607,-5.5295,-5.4791,-5.4685,-5.4332,-5.3813,-5.3813,-5.3813,-5.3813,-5.3813,-5.3813,-5.3813,-5.3813,-5.3813,-5.3813,0.0,0.0,0.0,0.0,0.0,0.0,0.0,0.0,0.0,-4.8786,0.0,0.0,0.0,0.0,0.0,-4.5466,-4.5397,-4.5397,-4.5397,-4.5397,-4.5397,-4.5397,-4.5397,-4.5397,-4.5397,-4.6182,-4.6253,-4.5607,-4.6368,-4.643,-4.5812,-4.5795,-4.5795,-4.5795,-4.5821,-4.5368,-4.4722,-4.5916,-4.6133,-4.5952,-4.9291,-5.0623,-5.0683,-5.1377,-5.1645,-5.1569,-5.0831,-5.0565,-5.0661,-5.1381,-5.1607,-5.1437,-5.0698,-4.9708,-4.8746,-4.8347,-4.8233,-4.8137,0.0,0.0,0.0,-4.8041,-4.8612,-4.9445,-5.0358,-5.0849,-5.1493,-5.2794,-5.3062,-5.3187,-5.3717,-5.3813,-5.3813,-5.3813,-5.3793,-5.3621,-5.3138,-5.3057,-5.2867,-5.2345,-5.274,-5.3078,-5.3096,-5.3504,-5.3813,-5.3813,-5.3813,-5.3813,-5.3813,-5.3813,-5.3813,-5.3813,-5.3813,-5.3963,-5.4281,-5.4623,-5.4952,-5.5288,-5.5573,-5.5703,-5.5703,-5.5413,-5.5124,-5.4776,-5.4446,-5.4107,-5.3813,-5.3813,-5.3813,-5.3813,-5.3813,-5.3813,-5.3813,-5.3813,-5.3813,-5.3813,0.0,0.0,0.0,0.0,0.0,0.0,0.0,-4.865,-4.8055,0.0,0.0,0.0,-4.7133,-4.6626,-4.6072,-4.5441,-4.5397,-4.5397,-4.5397,-4.5397,-4.5397,-4.5397,-4.5397,-4.5397,-4.5397,-4.5621,-4.5753,0.0,0.0,0.0,0.0,0.0,0.0,-4.5821,-4.6091,-4.5971,-4.5614,-4.6655,-4.7313,-4.7826,-5.0212,-5.1232,-5.1396,-5.2119,-5.2734,-5.3107,-5.2361,-5.2079,-5.2117,-5.2341,-5.1684,-5.068,-4.999,-4.9546,-4.9276,-4.9179,-4.8905,-4.8604,-4.8495,0.0,0.0,0.0,0.0,0.0,-4.9528,-4.9559,-5.0068,-5.1924,-5.184,-5.1922,-5.3495,-5.3813,-5.3813,-5.3813,-5.3522,-5.312,-5.2589,-5.2242,-5.1952,-5.1806,-5.2224,-5.2656,-5.3057,-5.3504,-5.3813,-5.3813,-5.3813,-5.3813,-5.3813,-5.3813,-5.3813,-5.3813,-5.3813,-5.3851,-5.3926,-5.4511,-5.4851,-5.4938,-5.5473,-5.5703,-5.5703,-5.5413,-5.5124,-5.4776,-5.4446,-5.4107,-5.3813,-5.3813,-5.3813,-5.3813,-5.3813,-5.3813,-5.3813,-5.3813,-5.3813,-5.3813,0.0,0.0,0.0,0.0,0.0,0.0,-4.8789,-4.8091,-4.7613,0.0,0.0,0.0,-4.7639,-4.7121,-4.6512,-4.5863,-4.5667,-4.5537,-4.5476,-4.5476,-4.545,-4.5397,-4.5397,-4.5397,-4.5397,-4.5725,-4.5804,0.0,0.0,0.0,0.0,0.0,0.0,-4.5803,-4.5982,-4.6293,-4.6723,-4.7199,-4.7682,-4.8323,-5.0578,-5.1521,-5.1683,-5.2416,-5.2977,-5.3274,-5.2846,-5.2697,-5.2735,-5.3051,-5.2191,-5.0888,-5.0506,-4.9971,-4.9509,-4.9509,-4.9311,-4.9059,-4.885,-4.8782,-4.8658,-4.829,0.0,0.0,-4.9872,-5.0001,-5.054,-5.2373,-5.2374,-5.2414,-5.3589,-5.3813,-5.3813,-5.3813,-5.3562,-5.3203,-5.2718,-5.2201,-5.1886,-5.1886,-5.2136,-5.2522,-5.3036,-5.3504,-5.3813,-5.3813,-5.3813,-5.3813,-5.3813,-5.3813,-5.3813,-5.3813,-5.3813,-5.3813,-5.3813,-5.4332,-5.467,-5.4806,-5.5307,-5.5596,-5.5692,-5.5282,-5.4981,-5.4776,-5.4298,-5.3981,-5.3813,-5.3813,-5.3813,-5.3813,-5.3813,-5.3813,-5.3813,-5.3813,-5.3813,-5.3813,0.0,0.0,0.0,0.0,0.0,0.0,-4.853,-4.7912,-4.7576,0.0,-4.8174,-4.8212,-4.8166,-4.7856,-4.734,-4.6554,-4.6186,-4.5912,-4.5752,-4.576,-4.5701,-4.5476,-4.5511,-4.5511,-4.545,-4.614,-4.6184,0.0,0.0,0.0,0.0,0.0,0.0,-4.5773,0.0,0.0,-4.7726,-4.7553,-4.7701,-4.8211,-5.0622,-5.1607,-5.1683,-5.251,-5.2828,-5.2828,-5.2828,-5.2828,-5.2902,-5.3479,-5.2809,-5.1702,-5.1532,-5.0696,-4.9703,-4.9565,-4.9549,-4.9505,-4.9008,-4.9176,-4.9311,-4.855,-4.8923,0.0,-5.0508,-5.0894,-5.1479,-5.2884,-5.3088,-5.3088,-5.3256,-5.3348,-5.3423,-5.3423,-5.3571,-5.3548,-5.3141,-5.2634,-5.2281,-5.2281,-5.2281,-5.2522,-5.3036,-5.3504,-5.3813,-5.3813,-5.3813,-5.3813,-5.3813,-5.3813,-5.3813,-5.3813,-5.3813,-5.3813,-5.3813,-5.4124,-5.4463,-5.4806,-5.5138,-5.5425,-5.564,-5.5064,-5.4776,-5.4716,-5.4072,-5.3813,-5.3813,-5.3813,-5.3813,-5.3813,-5.3813,-5.3813,-5.3813,-5.3813,-5.3813,-5.3813,0.0,0.0,0.0,0.0,0.0,0.0,-4.9845,-4.8841,-4.8212,-4.8948,-4.8973,-4.8835,-4.8677,-4.8317,-4.7804,-4.7102,-4.7074,-4.6945,-4.6583,-4.6874,-4.6692,-4.5912,-4.6189,-4.6165,-4.5718,-4.5875,-4.5926,0.0,0.0,0.0,0.0,0.0,0.0,0.0,0.0,-4.6697,-4.7497,-4.7879,-4.8771,-5.005,-5.1157,-5.1607,-5.1758,-5.3088,-5.359,-5.359,-5.359,-5.359,-5.3535,-5.307,-5.2734,-5.2285,-5.1097,-5.0927,-5.0964,-4.9818,-4.9877,-5.0167,-4.953,-4.9443,-4.9459,-4.9279,-4.9377,0.0,-4.8858,-4.8309,-4.814,-4.9022,-4.8651,-4.856,-4.9875,-5.0642,-5.1054,-5.1054,-5.21,-5.2976,-5.3088,-5.2634,-5.2281,-5.2281,-5.2281,-5.2522,-5.3036,-5.3504,-5.3813,-5.3813,-5.3813,-5.3813,-5.3813,-5.3813,-5.3813,-5.3813,-5.3813,-5.3813,-5.3813,-5.4124,-5.4463,-5.4806,-5.5138,-5.5326,-5.5364,-5.4966,-5.4654,-5.4364,-5.3981,-5.3813,-5.3813,-5.3813,-5.3813,-5.3813,-5.3813,-5.3813,-5.3813,-5.3813,-5.3813,-5.3813,0.0,0.0,0.0,0.0,0.0,0.0,0.0,-4.9536,-4.9145,-4.942,-4.9439,-4.9444,-4.9444,-4.9484,-4.9204,-4.8464,-4.8673,-4.8726,-4.8464,-4.8641,-4.8331,-4.7385,-4.7274,-4.6903,-4.6207,-4.5995,-4.593,-4.6005,0.0,0.0,0.0,0.0,0.0,0.0,0.0,-4.6379,-4.7971,-4.771,-4.873,-5.0565,-5.1305,-5.1815,-5.2267,-5.3386,-5.3813,-5.3813,-5.3813,-5.3813,-5.3738,-5.3367,-5.2771,-5.2097,-5.1703,-5.1344,-5.0908,-5.022,-5.0239,-5.0354,-4.9684,-4.9509,-4.9509,-4.9509,-4.9509,0.0,0.0,-4.8437,-4.8237,-4.857,-4.8293,-4.8239,-4.905,-4.9536,-4.9928,-5.0322,-5.1353,-5.2159,-5.2325,-5.2548,-5.2784,-5.302,-5.2849,-5.291,-5.3404,-5.3659,-5.3813,-5.3813,-5.3813,-5.3813,-5.3813,-5.3813,-5.3813,-5.3813,-5.3813,-5.3813,-5.3813,-5.3963,-5.4296,-5.4806,-5.4966,-5.5138,-5.5288,-5.4952,-5.4623,-5.4281,-5.3944,-5.3813,-5.3813,-5.3813,-5.3813,-5.3813,-5.3813,-5.3813,-5.3813,-5.3813,-5.3813,-5.3813,-4.7368,-4.73,0.0,0.0,0.0,0.0,0.0,0.0,-4.9932,-4.9725,-4.9824,-5.0028,-5.0303,-5.0731,-5.0786,-5.023,-5.07,-5.0886,-5.0558,-5.062,-5.012,-4.8865,-4.8626,-4.7976,-4.6864,-4.6571,-4.6383,-4.6224,0.0,0.0,0.0,0.0,0.0,-4.6524,-4.5434,-4.6211,-4.824,-4.7688,-4.8718,-5.0757,-5.1362,-5.2041,-5.2772,-5.3516,-5.3813,-5.3813,-5.3813,-5.3813,-5.3775,-5.3646,-5.2809,-5.1872,-5.2191,-5.1647,-5.085,-5.0432,-5.049,-5.0528,-4.9721,-4.9509,-4.9509,-4.9509,-4.9509,-4.9384,0.0,0.0,0.0,-4.8368,-4.8295,-4.8295,-4.8295,-4.8426,-4.8744,-4.9398,-5.0379,-5.1091,-5.114,-5.2121,-5.2964,-5.333,-5.3201,-5.3228,-5.3552,-5.359,-5.3664,-5.3794,-5.3683,-5.3664,-5.3794,-5.3813,-5.3813,-5.3813,-5.3813,-5.3813,-5.3813,-5.3813,-5.4107,-5.47,-5.47,-5.4851,-5.5111,-5.4836,-5.4528,-5.4177,-5.3907,-5.3813,-5.3813,-5.3813,-5.3813,-5.3813,-5.3813,-5.3813,-5.3813,-5.3813,-5.3813,-5.3813,-4.7381,-4.7385,-4.7787,0.0,0.0,0.0,0.0,0.0,-5.0064,-5.0045,-5.0223,-5.0536,-5.1101,-5.1483,-5.1852,-5.2325,-5.3162,-5.3237,-5.2212,-5.2474,-5.164,-4.9323,-5.0206,-4.976,-4.7704,-4.7899,-4.7729,-4.7075,0.0,0.0,0.0,0.0,0.0,-4.5765,-4.6599,-4.7057,-4.7256,-4.8503,-4.999,-5.1476,-5.1569,-5.2041,-5.2772,-5.3516,-5.3813,-5.3813,-5.3813,-5.3813,-5.3701,-5.3033,-5.2716,-5.2361,-5.1136,-5.1533,-5.2079,-5.0164,-5.0506,-5.1191,-4.9856,-4.9509,-4.9509,-4.9509,-4.9509,-4.9114,-4.7597,0.0,-4.6832,-4.5335,0.0,-4.5035,-4.5035,0.0,0.0,-4.6213,-4.8091,-4.9559,-4.9559,-5.0843,-5.18,-5.1835,-5.2578,-5.3027,-5.2828,-5.2828,-5.3089,-5.3757,-5.3182,-5.3107,-5.3775,-5.3813,-5.3813,-5.3813,-5.3813,-5.3813,-5.3813,-5.3813,-5.4,-5.4347,-5.4347,-5.438,-5.4413,-5.4364,-5.4159,-5.3851,-5.3832,-5.3813,-5.3813,-5.3813,-5.3813,-5.3813,-5.3813,-5.3813,-5.3813,-5.3813,-5.3813,-5.3813,-4.7889,-4.7869,-4.8262,0.0,0.0,0.0,0.0,0.0,0.0,-5.0258,-4.995,-4.9832,-5.0221,-5.0787,-5.1441,-5.2127,-5.2967,-5.3267,-5.2787,-5.2911,-5.2334,-5.0875,-5.1009,-5.0657,-4.9747,-4.9163,-4.8735,-4.8411,-4.7751,0.0,0.0,0.0,0.0,-4.7316,-4.6906,-4.7568,-4.9056,-4.9217,-5.0198,-5.1607,-5.1607,-5.2041,-5.2772,-5.3516,-5.3813,-5.3813,-5.3813,-5.3813,-5.3757,-5.3442,-5.2771,-5.2098,-5.2341,-5.1948,-5.1325,-5.085,-5.0831,-5.0754,-4.9778,-4.9781,-4.999,-4.9606,-4.9781,-4.9671,-4.8067,-4.735,-4.6674,-4.5453,0.0,0.0,0.0,0.0,0.0,0.0,-4.7331,-4.8615,-4.8659,-4.9954,-5.1085,-5.1533,-5.1954,-5.2345,-5.2679,-5.2697,-5.3014,-5.3738,-5.3126,-5.3033,-5.3757,-5.3813,-5.3813,-5.3813,-5.3813,-5.3813,-5.3813,-5.3813,-5.3963,-5.4315,-5.4315,-5.4315,-5.4315,-5.4315,-5.4125,-5.3813,-5.3813,-5.3813,-5.3813,-5.3813,-5.3813,-5.3813,-5.3813,-5.3813,-5.3813,-5.3813,-5.3813,-5.3813,-4.8586,-4.8568,-4.8843,-4.9775,0.0,0.0,0.0,-5.0312,-4.9991,-5.0127,-4.9636,-4.942,-4.9793,-5.0716,-5.1607,-5.2347,-5.3323,-5.3716,-5.332,-5.3301,-5.2866,-5.19,-5.1517,-5.1192,-5.0951,-4.9952,-4.9355,-4.9154,-4.825,0.0,0.0,0.0,0.0,-4.7619,-4.7055,-4.7926,-4.9854,-4.9915,-5.069,-5.1891,-5.1891,-5.2211,-5.2772,-5.3516,-5.3813,-5.3813,-5.3813,-5.3813,-5.3775,-5.3571,-5.279,-5.2041,-5.2921,-5.2247,-5.1174,-5.1495,-5.1362,-5.0908,-5.0012,-5.0143,-5.0354,-4.9681,-4.9875,-4.988,-4.8498,-4.7575,-4.6749,-4.5885,-4.5059,0.0,0.0,0.0,-4.4688,-4.5284,0.0,-4.7462,-4.7519,-4.8634,-4.9863,-5.0908,-5.1191,-5.1589,-5.2341,-5.2211,-5.2492,-5.3423,-5.2809,-5.2809,-5.3757,-5.3813,-5.3813,-5.3813,-5.3813,-5.3813,-5.3813,-5.3813,-5.3907,-5.4159,-5.4159,-5.4159,-5.4159,-5.4159,-5.4017,-5.3813,-5.3813,-5.3813,-5.3813,-5.3813,-5.3813,-5.3813,-5.3813,-5.3813,-5.3813,-5.3813,-5.3813,-5.3813,-4.9459,-4.9459,-4.9478,-4.9512,-4.9531,-4.9531,-4.9549,-4.9549,-4.9512,-4.9531,-4.9512,-4.979,-5.0595,-5.1969,-5.3157,-5.3961,-5.5359,-5.56,-5.4166,-5.4054,-5.3398,-5.1875,-5.1846,-5.1453,-5.0546,-5.0095,-4.9527,-4.8818,-4.75,0.0,0.0,0.0,0.0,0.0,-4.7202,-4.8094,-4.8318,-5.0576,-5.1966,-5.266,-5.266,-5.2678,-5.2772,-5.3516,-5.3813,-5.3813,-5.3813,-5.3813,-5.3683,-5.2977,-5.2697,-5.2547,-5.1872,-5.2098,-5.2492,-5.1796,-5.2097,-5.2305,-5.0852,-5.0471,-5.0354,-4.9681,-4.9527,-4.9302,-4.8401,-4.7575,-4.6749,-4.5885,-4.5059,-4.4501,-4.4501,-4.4501,-4.4501,0.0,-4.5247,0.0,0.0,-4.6546,-4.7729,-4.9362,-5.0127,-5.0813,-5.1569,-5.1002,-5.1174,-5.2622,-5.206,-5.2284,-5.372,-5.3813,-5.3813,-5.3813,-5.3813,-5.3813,-5.3813,-5.3813,-5.3813,-5.3832,-5.3832,-5.3832,-5.3832,-5.3832,-5.3794,-5.3813,-5.3813,-5.3813,-5.3813,-5.3813,-5.3813,-5.3813,-5.3813,-5.3813,-5.3813,-5.3813,-5.3813,-5.3813,-4.9509,-4.9509,-4.9509,-4.9509,-4.9509,-4.9509,-4.9509,-4.9509,-4.9646,-5.0105,-5.0164,-5.0448,-5.1222,-5.1734,-5.2356,-5.3105,-5.3628,-5.3498,-5.2504,-5.2448,-5.2258,-5.1819,-5.1356,-5.1413,-5.2136,-5.1018,-5.031,-5.0062,-4.8497,-4.7742,0.0,0.0,0.0,0.0,-4.7573,-4.868,-4.9699,-5.1046,-5.2022,-5.266,-5.2173,-5.2248,-5.2734,-5.2977,-5.307,-5.3144,-5.3627,-5.3813,-5.3757,-5.3497,-5.3089,-5.2735,-5.2977,-5.2547,-5.2022,-5.2248,-5.2154,-5.1853,-5.1362,-5.1571,-5.1665,-5.0469,-5.0528,-5.0565,-4.9327,-4.8401,-4.7556,-4.673,-4.5885,-4.5134,-4.4594,-4.4501,0.0,0.0,0.0,-4.6354,0.0,-4.6448,-4.7012,-4.6993,-4.859,-5.0006,-5.0794,-5.1097,-5.1645,-5.2622,-5.2472,-5.2771,-5.3757,-5.3813,-5.3813,-5.3813,-5.3813,-5.3813,-5.3813,-5.3813,-5.3813,-5.3813,-5.3813,-5.3813,-5.3813,-5.3813,-5.3813,-5.3813,-5.3813,-5.3813,-5.3813,-5.3813,-5.3813,-5.3813,-5.3813,-5.3813,-5.3813,-5.3813,-5.3813,-5.3813,-4.9509,-4.9509,-4.9509,-4.9509,-4.9509,-4.9509,-4.9509,-4.9509,-4.974,-5.0413,-5.049,-5.0775,-5.1513,-5.1833,-5.2191,-5.266,-5.294,-5.266,-5.1664,-5.1852,-5.1907,-5.1731,-5.1274,-5.1611,-5.2875,-5.1403,-5.0625,-5.0625,-4.8705,-4.7763,0.0,0.0,0.0,0.0,-4.7234,-4.8565,-5.004,-5.1141,-5.2173,-5.3014,-5.1985,-5.1872,-5.2323,-5.2323,-5.2472,-5.279,-5.3534,-5.3813,-5.3813,-5.3813,-5.3479,-5.3182,-5.3664,-5.3144,-5.2472,-5.294,-5.2753,-5.2323,-5.206,-5.2341,-5.2416,-5.1192,-5.1249,-5.1286,-5.0124,-4.9199,-4.8355,-4.7579,-4.6505,-4.5547,-4.5021,-4.4914,-4.4834,0.0,0.0,0.0,0.0,-4.5772,-4.6129,-4.6167,-4.7796,-4.9211,-5.0003,-5.0549,-5.1267,-5.2229,-5.2323,-5.2641,-5.3367,-5.3664,-5.3813,-5.3813,-5.3813,-5.3813,-5.3813,-5.3813,-5.3813,-5.3813,-5.3813,-5.3813,-5.3813,-5.3813,-5.3813,-5.3813,-5.3813,-5.3813,-5.3813,-5.3813,-5.3813,-5.3813,-5.3813,-5.3813,-5.3813,-5.3813,-5.3813,-5.3813,-4.9509,-4.9509,-4.9509,-4.9509,-4.9509,-4.9509,-4.9509,-4.9509,-4.9759,-5.0469,-5.0546,-5.085,-5.1608,-5.2341,-5.2753,-5.2753,-5.3404,-5.32,-5.174,-5.2323,-5.2379,-5.1683,-5.1608,-5.1947,-5.2678,-5.125,-5.049,-5.049,-4.8149,-4.7012,0.0,0.0,0.0,0.0,-4.6246,-4.7788,-4.9237,-5.086,-5.2378,-5.3571,-5.2154,-5.1607,-5.1607,-5.1627,-5.2097,-5.279,-5.3534,-5.3813,-5.3813,-5.3813,-5.3813,-5.3813,-5.3813,-5.3813,-5.3813,-5.3813,-5.3813,-5.3664,-5.294,-5.2753,-5.2585,-5.1852,-5.1645,-5.1474,-5.0717,-4.995,-4.9196,-4.8464,-4.7034,-4.589,-4.5791,-4.5754,-4.5477,0.0,0.0,0.0,-4.4651,-4.4519,-4.5082,-4.6692,-4.7594,-4.8408,-4.9217,-4.9427,-5.0087,-5.1476,-5.1569,-5.1909,-5.2716,-5.3367,-5.3757,-5.3813,-5.3813,-5.3813,-5.3813,-5.3813,-5.3813,-5.3813,-5.3813,-5.3813,-5.3813,-5.3813,-5.3813,-5.3813,-5.3813,-5.3813,-5.3813,-5.3813,-5.3813,-5.3813,-5.3813,-5.3813,-5.3813,-5.3813,-5.3813,-5.3813,-4.9509,-4.9509,-4.9509,-4.9509,-4.9509,-4.9509,-4.9509,-4.9509,-4.9934,-5.1172,-5.1323,-5.1815,-5.3107,-5.3386,-5.3535,-5.3535,-5.3683,-5.3404,-5.2491,-5.2603,-5.2604,-5.2435,-5.1891,-5.1947,-5.2678,-5.125,-5.049,-5.049,-4.8149,-4.7012,-4.6974,0.0,0.0,0.0,-4.6246,-4.7515,-4.8493,-5.0102,-5.1306,-5.2134,-5.174,-5.1607,-5.1664,-5.221,-5.2547,-5.279,-5.3534,-5.3813,-5.3813,-5.3813,-5.3813,-5.3813,-5.3813,-5.3813,-5.3813,-5.3813,-5.3813,-5.3757,-5.3571,-5.3535,-5.3349,-5.2603,-5.2416,-5.2211,-5.1495,-5.1157,-5.08,-5.0013,-4.9489,-4.8645,-4.6851,-4.6529,-4.6075,-4.4726,-4.467,-4.4946,-4.5341,-4.489,-4.4651,-4.5082,-4.5848,-4.7147,-4.9252,-4.9393,-4.9968,-5.1495,-5.1048,-5.1539,-5.3423,-5.3182,-5.3219,-5.3775,-5.3813,-5.3813,-5.3813,-5.3813,-5.3813,-5.3813,-5.3813,-5.3813,-5.3813,-5.3813,-5.3813,-5.3813,-5.3813,-5.3813,-5.3813,-5.3813,-5.3813,-5.3813,-5.3813,-5.3813,-5.3813,-5.3813,-5.3813,-5.3813,-4.9509,-4.9509,-4.9509,-4.9509,-4.974,-4.9934,-4.9934,-4.9684,-5.0009,-5.1418,-5.1607,-5.2041,-5.32,-5.3609,-5.3813,-5.3813,-5.3813,-5.3497,-5.2753,-5.3014,-5.3033,-5.2716,-5.2622,-5.2753,-5.3182,-5.206,-5.1288,-5.0983,-4.8631,-4.7324,-4.6974,0.0,0.0,0.0,-4.5848,-4.7046,-4.8244,-5.052,-5.1532,-5.1627,-5.1947,-5.2078,0.0,-5.2547,-5.2902,-5.3237,-5.3664,-5.3813,-5.3813,-5.3813,-5.3813,-5.3813,-5.3813,-5.3813,-5.3813,-5.3813,-5.3813,-5.3813,-5.3813,-5.3813,-5.3701,-5.3274,-5.3182,-5.2995,-5.2248,-5.2078,-5.1854,-5.1068,-5.0637,-4.9965,-4.8629,-4.7819,-4.6851,-4.5289,-4.4726,-4.4651,-4.5115,-4.4782,-4.4632,-4.4984,-4.5416,-4.6542,-4.872,-4.8862,-4.9474,-5.1004,-5.0688,-5.1009,-5.2285,-5.2585,-5.2884,-5.3312,-5.333,-5.3479,-5.3813,-5.3479,-5.3479,-5.3813,-5.3813,-5.3813,-5.3813,-5.3813,-5.3813,-5.3813,-5.3813,-5.3813,-5.3813,-5.3813,-5.3813,-5.3813,-5.3813,-5.3813,-5.3813,-5.3813,-5.3813,-5.3813,-4.9509,-4.9509,-4.9509,-4.9509,-5.0049,-5.0528,-5.0623,-5.0145,-5.0258,-5.1569,-5.174,-5.2022,-5.2753,-5.3423,-5.3813,-5.3813,-5.3813,-5.3516,-5.2884,-5.3442,-5.3497,-5.2865,-5.346,-5.3813,-5.3813,-5.307,-5.2341,-5.1607,-4.926,-4.7728,0.0,0.0,0.0,0.0,0.0,-4.6634,-4.8434,-5.1238,-5.2098,-5.1664,-5.2398,-5.2697,-5.2716,-5.2809,-5.3237,-5.3813,-5.3813,-5.3813,-5.3813,-5.3813,-5.3813,-5.3794,-5.3832,-5.3832,-5.3832,-5.3851,-5.3851,-5.3851,-5.3851,-5.3851,-5.3851,-5.3851,-5.3851,-5.3665,-5.3032,-5.2883,-5.2696,-5.2057,-5.1367,-5.0807,-5.0566,-4.9115,-4.7469,-4.6063,-4.5256,-4.4881,-4.5092,-4.5129,-4.5298,-4.5796,-4.5946,0.0,-4.7913,-4.8044,-4.8727,-5.0375,-5.03,-5.0375,-5.0775,-5.191,-5.2641,-5.2846,-5.2846,-5.3107,-5.3645,-5.3107,-5.3107,-5.3645,-5.3757,-5.3813,-5.3813,-5.3813,-5.3813,-5.3813,-5.3813,-5.3813,-5.3813,-5.3813,-5.3813,-5.3813,-5.3813,-5.3813,-5.3813,-5.3813,-5.3813,-5.3813,-4.9509,-4.9509,-4.9509,-4.9509,-5.0049,-5.0717,-5.1323,-5.1323,-5.1551,-5.2398,-5.251,-5.279,-5.3516,-5.372,-5.3813,-5.3813,-5.3813,-5.3757,-5.3627,-5.372,-5.3738,-5.3609,-5.372,-5.3813,-5.3813,-5.307,-5.2341,-5.1607,-4.926,-4.7728,0.0,0.0,0.0,0.0,0.0,-4.6952,-4.9164,-5.0364,-5.1155,-5.1664,-5.2398,-5.2697,-5.2772,-5.3367,-5.3683,-5.3813,-5.3813,-5.3813,-5.3813,-5.3813,-5.3813,-5.3832,-5.3926,-5.3963,-5.3982,-5.4018,-5.4055,-5.4055,-5.4055,-5.4055,-5.4055,-5.4055,-5.4055,-5.4017,-5.3886,-5.3849,-5.3793,-5.3609,-5.3478,-5.2938,-5.156,-4.8954,-4.6948,-4.6664,-4.6495,-4.6858,-4.8183,-4.8389,-4.7937,-4.6742,-4.7244,-4.7559,-4.7241,-4.7218,-4.8111,-5.0338,-4.9315,-4.9682,-5.2173,-5.1966,-5.236,-5.3571,-5.3609,-5.3367,-5.2828,-5.333,-5.333,-5.2828,-5.3478,-5.3813,-5.3813,-5.3813,-5.3813,-5.3813,-5.3813,-5.3813,-5.3813,-5.3813,-5.3813,-5.3813,-5.3813,-5.3813,-5.3813,-5.3813,-5.3813,-5.3813,-4.9509,-4.9509,-4.9606,-4.9971,-5.0602,-5.1306,-5.206,-5.251,-5.2734,-5.2697,-5.2697,-5.2846,-5.3182,-5.3571,-5.3813,-5.3813,-5.3813,-5.3813,-5.3813,-5.3813,-5.3813,-5.3813,-5.3813,-5.3813,-5.3813,-5.346,-5.2716,-5.1607,-4.9641,-4.8094,0.0,-4.527,0.0,-4.4576,0.0,-4.7597,-4.8808,-5.0802,-5.1853,-5.2229,-5.2977,-5.3274,-5.3312,-5.3664,-5.3813,-5.3813,-5.387,-5.3888,-5.3888,-5.3888,-5.3926,-5.3963,-5.4037,-5.4055,-5.4055,-5.4091,-5.4109,-5.4109,-5.4109,-5.4109,-5.4109,-5.4109,-5.4109,-5.4109,-5.4109,-5.4109,-5.4091,-5.4055,-5.4055,-5.3533,-5.1873,-4.9662,-4.8097,-4.805,-4.7333,-4.7352,-4.8973,-4.92,-4.8917,-4.8143,-4.8081,-4.8128,-4.8193,-4.7845,-4.8273,-4.9859,-4.929,-4.9655,-5.1457,-5.1589,-5.2097,-5.3182,-5.3219,-5.3219,-5.3218,-5.3219,-5.3219,-5.3237,-5.3608,-5.3813,-5.3813,-5.3813,-5.3813,-5.3813,-5.3813,-5.3813,-5.3813,-5.3813,-5.3813,-5.3813,-5.3813,-5.3813,-5.3813,-5.3813,-5.3813,-5.3813,-4.9684,-4.9606,-4.9759,-5.0602,-5.1211,-5.1852,-5.2603,-5.333,-5.359,-5.3014,-5.2921,-5.2921,-5.2921,-5.346,-5.3813,-5.3813,-5.3813,-5.3813,-5.3813,-5.3813,-5.3813,-5.3813,-5.3813,-5.3813,-5.3813,-5.3813,-5.3144,-5.1833,-5.0077,-4.8608,-4.7451,-4.5439,-4.467,-4.5073,-4.717,-4.8378,-4.8984,-5.1596,-5.279,-5.2977,-5.3571,-5.3813,-5.3794,-5.3832,-5.3851,-5.3851,-5.3982,-5.4037,-5.4074,-5.4074,-5.4073,-5.4109,-5.4127,-5.4146,-5.4146,-5.4163,-5.4163,-5.4163,-5.4163,-5.4163,-5.4163,-5.4163,-5.4163,-5.4163,-5.4163,-5.4163,-5.4163,-5.4146,-5.4109,-5.3587,-5.1924,-5.0594,-4.973,-4.9496,-4.8504,-4.8295,-4.9743,-5.0082,-5.0064,-4.9726,-4.9193,-4.9017,-4.9503,-4.8902,-4.8833,-4.9646,-4.9703,-5.0009,-5.0698,-5.1286,-5.1947,-5.2678,-5.2697,-5.2902,-5.3311,-5.307,-5.3126,-5.3553,-5.372,-5.3813,-5.3813,-5.3813,-5.3813,-5.3813,-5.3813,-5.3813,-5.3813,-5.3813,-5.3813,-5.3813,-5.3813,-5.3813,-5.3813,-5.3813,-5.3813,-5.3813,-5.0279,-4.9915,-4.9931,-5.1267,-5.1551,-5.1852,-5.2603,-5.333,-5.3775,-5.3701,-5.3701,-5.3701,-5.3701,-5.3757,-5.3813,-5.3813,-5.3813,-5.3813,-5.3813,-5.3813,-5.3813,-5.3813,-5.3813,-5.3813,-5.3813,-5.3813,-5.3404,-5.2585,-5.0306,-4.9155,-4.9011,-4.5954,-4.526,-4.663,-4.7645,-4.9251,-5.1244,-5.2269,-5.3089,-5.3701,-5.3775,-5.3813,-5.3813,-5.3944,-5.3982,-5.3982,-5.4055,-5.4182,-5.4254,-5.4254,-5.42,-5.4109,-5.4235,-5.4272,-5.4289,-5.4339,-5.4373,-5.4373,-5.4373,-5.4373,-5.4373,-5.4373,-5.4373,-5.4373,-5.4373,-5.4373,-5.4339,-5.4289,-5.4181,-5.3587,-5.1924,-5.1476,-5.114,-5.0413,-5.0718,-5.1374,-5.225,-5.2958,-5.2847,-5.1449,-5.1294,-5.1028,-5.0357,-4.9736,-4.9665,-5.0338,-5.0413,-5.0736,-5.1474,-5.1569,-5.1947,-5.2678,-5.2697,-5.2362,-5.1711,-5.3033,-5.3367,-5.2717,-5.346,-5.3813,-5.3813,-5.3813,-5.3813,-5.3813,-5.3813,-5.3813,-5.3813,-5.3813,-5.3813,-5.3813,-5.3813,-5.3813,-5.3813,-5.3813,-5.3813,-5.3813,-5.1116,-5.0927,-5.1078,-5.2097,-5.2248,-5.251,-5.3237,-5.3609,-5.3813,-5.3813,-5.3813,-5.3813,-5.3813,-5.3813,-5.3813,-5.3813,-5.3813,-5.3813,-5.3813,-5.3813,-5.3813,-5.3813,-5.3813,-5.3813,-5.3813,-5.3813,-5.3442,-5.2697,-5.0344,-4.8987,-4.8543,-4.672,-4.6709,-4.8295,-4.9573,-5.0662,-5.158,-5.2828,-5.3516,-5.3813,-5.3813,-5.3813,-5.3794,-5.3944,-5.4,-5.4019,-5.4164,-5.4254,-5.4308,-5.4359,-5.4304,-5.4287,-5.434,-5.4357,-5.4357,-5.4392,-5.4409,-5.4409,-5.4409,-5.4409,-5.4409,-5.4409,-5.4409,-5.4409,-5.4409,-5.4409,-5.4392,-5.4357,-5.4323,-5.4046,-5.3249,-5.2333,-5.1885,-5.2362,-5.1916,-5.1934,-5.3182,-5.3609,-5.3404,-5.2344,-5.1854,-5.1459,-5.1141,-5.0129,-4.9796,-5.045,-5.0143,-5.0202,-5.089,-5.1362,-5.1758,-5.2022,-5.2902,-5.2995,-5.2231,-5.3274,-5.3645,-5.333,-5.3664,-5.3907,-5.4089,-5.3907,-5.3813,-5.3813,-5.3813,-5.3813,-5.3813,-5.3813,-5.3813,-5.3813,-5.3813,-5.3813,-5.3813,-5.4036,-5.4107,-5.4143,-5.1872,-5.174,-5.1891,-5.2865,-5.2846,-5.294,-5.3683,-5.3813,-5.3813,-5.3813,-5.3813,-5.3813,-5.3813,-5.3813,-5.3813,-5.3813,-5.3813,-5.3813,-5.3813,-5.3813,-5.3813,-5.3813,-5.3813,-5.3813,-5.3813,-5.3813,-5.3534,-5.3014,-5.0906,-4.9724,-4.9436,-4.8365,-4.8595,-4.9915,-5.1019,-5.1748,-5.2251,-5.333,-5.3813,-5.3813,-5.3813,-5.3832,-5.387,-5.4,-5.4055,-5.4111,-5.4272,-5.4324,-5.4342,-5.4392,-5.4409,-5.4409,-5.4409,-5.4409,-5.4409,-5.4409,-5.4409,-5.4409,-5.4409,-5.4409,-5.4409,-5.4409,-5.4409,-5.4409,-5.4409,-5.4409,-5.4409,-5.4409,-5.4409,-5.4339,-5.4181,-5.3246,-5.2708,-5.3423,-5.2772,-5.2475,-5.3349,-5.3664,-5.3516,-5.279,-5.206,-5.1683,-5.1891,-5.064,-5.0164,-5.1078,-5.0506,-5.0317,-5.0794,-5.1323,-5.1702,-5.1928,-5.2921,-5.3219,-5.2716,-5.3423,-5.3813,-5.3813,-5.3813,-5.3981,-5.4298,-5.4161,-5.4035,-5.3944,-5.4054,-5.4035,-5.3963,-5.4054,-5.4089,-5.4089,-5.4089,-5.4089,-5.4106,-5.4347,-5.4446,-5.4479,-5.2547,-5.2098,-5.206,-5.3535,-5.3182,-5.294,-5.3683,-5.3813,-5.3813,-5.3813,-5.3813,-5.3813,-5.3813,-5.3813,-5.3813,-5.3813,-5.3813,-5.3813,-5.3813,-5.3813,-5.3813,-5.3813,-5.3813,-5.3813,-5.3813,-5.3813,-5.3813,-5.3794,-5.2232,-5.1878,-5.2604,-5.1071,-5.0754,-5.1468,-5.1487,-5.2344,-5.3775,-5.3794,-5.3813,-5.3813,-5.3813,-5.387,-5.4,-5.4055,-5.4163,-5.4308,-5.4375,-5.4409,-5.4409,-5.4409,-5.4409,-5.4409,-5.4409,-5.4409,-5.4409,-5.4409,-5.4409,-5.4409,-5.4409,-5.4409,-5.4409,-5.4409,-5.4409,-5.4409,-5.4409,-5.4409,-5.4409,-5.4409,-5.4409,-5.4375,-5.4307,-5.4163,-5.3811,-5.3027,-5.3405,-5.3516,-5.2809,-5.3349,-5.3516,-5.279,-5.206,-5.1891,-5.2604,-5.1362,-5.1097,-5.2566,-5.1985,-5.1588,-5.1588,-5.1607,-5.1928,-5.266,-5.2697,-5.2716,-5.2697,-5.3423,-5.3813,-5.3813,-5.3813,-5.3981,-5.4315,-5.4639,-5.4607,-5.4296,-5.4639,-5.4607,-5.4332,-5.4654,-5.4791,-5.4791,-5.4791,-5.4791,-5.4791,-5.4791,-5.4791,-5.4791,-5.3404,-5.3256,-5.3256,-5.372,-5.3609,-5.3516,-5.3757,-5.3813,-5.3813,-5.3813,-5.3813,-5.3813,-5.3813,-5.3813,-5.3813,-5.3813,-5.3813,-5.3813,-5.3813,-5.3813,-5.3813,-5.3813,-5.3813,-5.3813,-5.3813,-5.3813,-5.3813,-5.3813,-5.227,-5.1636,-5.1878,-5.1374,-5.184,-5.307,-5.307,-5.333,-5.3813,-5.3813,-5.3813,-5.3813,-5.3907,-5.3963,-5.4019,-5.4183,-5.4254,-5.4308,-5.4375,-5.4409,-5.4409,-5.4409,-5.4409,-5.4409,-5.4409,-5.4409,-5.4409,-5.4409,-5.4409,-5.4409,-5.4409,-5.4409,-5.4409,-5.4409,-5.4409,-5.4409,-5.4409,-5.4409,-5.4409,-5.4409,-5.4409,-5.4375,-5.4307,-5.4272,-5.4106,-5.3773,-5.3869,-5.3925,-5.3682,-5.3384,-5.2899,-5.2166,-5.1357,-5.1153,-5.1872,-5.1078,-5.089,-5.1872,-5.0712,-5.043,-5.1551,-5.2078,-5.2247,-5.1965,-5.2939,-5.32,-5.2697,-5.366,-5.4124,-5.4142,-5.4364,-5.4544,-5.4654,-5.4981,-5.4952,-5.4654,-5.4746,-5.4746,-5.4654,-5.4761,-5.4791,-5.4791,-5.4791,-5.4791,-5.4821,-5.5069,-5.5138,-5.5164,-5.3813,-5.3813,-5.3813,-5.3813,-5.3813,-5.3813,-5.3813,-5.3813,-5.3813,-5.3813,-5.3813,-5.3813,-5.3813,-5.3813,-5.3813,-5.3813,-5.3813,-5.3813,-5.3813,-5.3813,-5.3813,-5.3813,-5.3813,-5.3813,-5.3813,-5.3813,-5.3813,-5.3813,-5.2847,-5.2363,-5.2363,-5.2363,-5.2884,-5.3813,-5.3813,-5.3813,-5.3813,-5.3813,-5.3832,-5.387,-5.3963,-5.4056,-5.4129,-5.4236,-5.4326,-5.4342,-5.4392,-5.4409,-5.4409,-5.4409,-5.4409,-5.4409,-5.4409,-5.4409,-5.4409,-5.4409,-5.4409,-5.4409,-5.4409,-5.4409,-5.4409,-5.4409,-5.4409,-5.4409,-5.4409,-5.4409,-5.4409,-5.4409,-5.4409,-5.4392,-5.4359,-5.4326,-5.4272,-5.42,-5.4127,-5.3903,-5.332,-5.2796,-5.2212,-5.1471,-5.0925,-5.0972,-5.198,-5.1675,-5.1712,-5.2378,-5.1537,-5.1407,-5.2378,-5.2026,-5.1989,-5.2398,-5.3312,-5.3647,-5.3306,-5.3968,-5.4364,-5.4495,-5.4836,-5.5,-5.4995,-5.5307,-5.5282,-5.4981,-5.5091,-5.5078,-5.5014,-5.5105,-5.5145,-5.5145,-5.5145,-5.5145,-5.5172,-5.5357,-5.5449,-5.5473,-5.3813,-5.3813,-5.3813,-5.3813,-5.3813,-5.3813,-5.3813,-5.3813,-5.3813,-5.3813,-5.3813,-5.3813,-5.3813,-5.3813,-5.3813,-5.3813,-5.3813,-5.3813,-5.3813,-5.3813,-5.3813,-5.3813,-5.3813,-5.3813,-5.3813,-5.3813,-5.3813,-5.3813,-5.3813,-5.3813,-5.3813,-5.3813,-5.3813,-5.3813,-5.3813,-5.3813,-5.3813,-5.3813,-5.3888,-5.4,-5.4019,-5.4129,-5.4308,-5.4308,-5.4359,-5.4409,-5.4409,-5.4409,-5.4409,-5.4409,-5.4409,-5.4409,-5.4409,-5.4409,-5.4409,-5.4409,-5.4409,-5.4409,-5.4409,-5.4409,-5.4409,-5.4409,-5.4409,-5.4409,-5.4409,-5.4409,-5.4409,-5.4409,-5.4409,-5.4409,-5.4409,-5.4359,-5.4308,-5.4308,-5.4105,-5.3451,-5.2013,-5.1767,-5.148,-5.0789,-5.0751,-5.1349,-5.2764,-5.2964,-5.3211,-5.3702,-5.3796,-5.3814,-5.3739,-5.1618,-5.1468,-5.3758,-5.3832,-5.4,-5.433,-5.4347,-5.4544,-5.4866,-5.5178,-5.5326,-5.5339,-5.5585,-5.5573,-5.5339,-5.5596,-5.5562,-5.5351,-5.5596,-5.5703,-5.5703,-5.5703,-5.5703,-5.5703,-5.5703,-5.5703,-5.5703,-5.3813,-5.3813,-5.3813,-5.3813,-5.3813,-5.3813,-5.3813,-5.3813,-5.3813,-5.3813,-5.3813,-5.3813,-5.3813,-5.3813,-5.3813,-5.3813,-5.3813,-5.3813,-5.3813,-5.3813,-5.3813,-5.3813,-5.3813,-5.3813,-5.3813,-5.3813,-5.3813,-5.3813,-5.3813,-5.3813,-5.3813,-5.3813,-5.3813,-5.3813,-5.3813,-5.3813,-5.3813,-5.3813,-5.3888,-5.4,-5.4055,-5.4164,-5.4308,-5.4359,-5.4392,-5.4409,-5.4409,-5.4409,-5.4409,-5.4409,-5.4409,-5.4409,-5.4409,-5.4409,-5.4409,-5.4409,-5.4409,-5.4409,-5.4409,-5.4409,-5.4409,-5.4409,-5.4409,-5.4409,-5.4409,-5.4409,-5.4409,-5.4409,-5.4409,-5.4409,-5.4409,-5.4392,-5.4375,-5.4375,-5.332,-5.2376,-5.1995,-5.1428,-5.0974,-5.0801,-5.1265,-5.1973,-5.2886,-5.298,-5.3038,-5.3191,-5.2614,-5.2487,-5.3086,-5.2151,-5.2402,-5.4121,-5.4177,-5.433,-5.4685,-5.4938,-5.5217,-5.5497,-5.5573,-5.5607,-5.5607,-5.5662,-5.5682,-5.5607,-5.5662,-5.5651,-5.5607,-5.5662,-5.5703,-5.5703,-5.5703,-5.5703,-5.5703,-5.5703,-5.5703,-5.5703,-5.3813,-5.3813,-5.3813,-5.3813,-5.3813,-5.3813,-5.3813,-5.3813,-5.3813,-5.3813,-5.3813,-5.3813,-5.3813,-5.3813,-5.3813,-5.3813,-5.3813,-5.3813,-5.3813,-5.3813,-5.3813,-5.3813,-5.3813,-5.3813,-5.3813,-5.3813,-5.3813,-5.3813,-5.3813,-5.3813,-5.3813,-5.3813,-5.3813,-5.3813,-5.3813,-5.3813,-5.3794,-5.3888,-5.3945,-5.4055,-5.4146,-5.4253,-5.4359,-5.4392,-5.4409,-5.4409,-5.4409,-5.4409,-5.4409,-5.4409,-5.4409,-5.4409,-5.4409,-5.4409,-5.4409,-5.4409,-5.4409,-5.4409,-5.4409,-5.4409,-5.4409,-5.4409,-5.4409,-5.4409,-5.4409,-5.4409,-5.4409,-5.4409,-5.4409,-5.4409,-5.4409,-5.4409,-5.4409,-5.4409,-5.3048,-5.2005,-5.2052,-5.1047,-5.0591,-5.1314,-5.1757,-5.2414,-5.3501,-5.3612,-5.3612,-5.3507,-5.323,-5.324,-5.3622,-5.3443,-5.3625,-5.4277,-5.4446,-5.47,-5.5028,-5.532,-5.5562,-5.5703,-5.5703,-5.5703,-5.5703,-5.5703,-5.5703,-5.5703,-5.5703,-5.5703,-5.5703,-5.5703,-5.5703,-5.5703,-5.5703,-5.5703,-5.5703,-5.5703,-5.5703,-5.5703,-5.3813,-5.3813,-5.3813,-5.3813,-5.3813,-5.3813,-5.3813,-5.3813,-5.3813,-5.3813,-5.3813,-5.3813,-5.3813,-5.3813,-5.3813,-5.3813,-5.3813,-5.3813,-5.3813,-5.3813,-5.3813,-5.3813,-5.3813,-5.3813,-5.3813,-5.3813,-5.3813,-5.3813,-5.3813,-5.3813,-5.3813,-5.3813,-5.3813,-5.3813,-5.3813,-5.3813,-5.3813,-5.3944,-5.4055,-5.4109,-5.4254,-5.4342,-5.4409,-5.4409,-5.4409,-5.4409,-5.4409,-5.4409,-5.4409,-5.4409,-5.4409,-5.4409,-5.4458,-5.4455,-5.4455,-5.4455,-5.4455,-5.4458,-5.4407,-5.4409,-5.4409,-5.4409,-5.4409,-5.4409,-5.4409,-5.4409,-5.4409,-5.4409,-5.4409,-5.4409,-5.4409,-5.4409,-5.4352,-5.4257,-5.2876,-5.1848,-5.191,-5.0797,-5.0491,-5.191,-5.2309,-5.2946,-5.4193,-5.4357,-5.4321,-5.4163,-5.4498,-5.4651,-5.4554,-5.4843,-5.4843,-5.4493,-5.4727,-5.5037,-5.5351,-5.5585,-5.5703,-5.5703,-5.5703,-5.5703,-5.5703,-5.5703,-5.5703,-5.5703,-5.5703,-5.5703,-5.5703,-5.5703,-5.5703,-5.5703,-5.5703,-5.5703,-5.5703,-5.5703,-5.5703,-5.5703,-5.3813,-5.3813,-5.3813,-5.3813,-5.3813,-5.3813,-5.3813,-5.3813,-5.3813,-5.3813,-5.3813,-5.3813,-5.3813,-5.3813,-5.3813,-5.3813,-5.3813,-5.3813,-5.3813,-5.3813,-5.3813,-5.3813,-5.3813,-5.3813,-5.3813,-5.3813,-5.3813,-5.3813,-5.3813,-5.3813,-5.3813,-5.3813,-5.3813,-5.3813,-5.3813,-5.3813,-5.3813,-5.3944,-5.4055,-5.4109,-5.4254,-5.4342,-5.4409,-5.4409,-5.4409,-5.4409,-5.4409,-5.4409,-5.4409,-5.4409,-5.4409,-5.4441,-5.4676,-5.475,-5.475,-5.475,-5.475,-5.4689,-5.4455,-5.4409,-5.4409,-5.4409,-5.4409,-5.4409,-5.4409,-5.4409,-5.4409,-5.4409,-5.4409,-5.4409,-5.4409,-5.4409,-5.42,-5.3569,-5.2109,-5.1077,-5.1092,-5.0881,-5.1058,-5.1908,-5.3217,-5.4125,-5.4354,-5.4373,-5.4392,-5.4356,-5.4629,-5.4746,-5.4666,-5.5192,-5.5411,-5.5231,-5.5218,-5.5356,-5.5629,-5.5692,-5.5703,-5.5703,-5.5703,-5.5703,-5.5703,-5.5703,-5.5703,-5.5703,-5.5703,-5.5703,-5.5703,-5.5703,-5.5703,-5.5703,-5.5703,-5.5703,-5.5703,-5.5703,-5.5703,-5.5703,-5.3813,-5.3813,-5.3813,-5.3813,-5.3813,-5.3813,-5.3813,-5.3813,-5.3813,-5.3813,-5.3813,-5.3813,-5.3813,-5.3813,-5.3813,-5.3813,-5.3813,-5.3813,-5.3813,-5.3813,-5.3813,-5.3813,-5.3813,-5.3813,-5.3813,-5.3813,-5.3813,-5.3813,-5.3813,-5.3813,-5.3813,-5.3813,-5.3813,-5.3794,-5.3888,-5.3907,-5.3926,-5.4092,-5.4183,-5.4218,-5.4306,-5.4375,-5.4409,-5.4409,-5.4409,-5.4409,-5.4409,-5.4409,-5.4424,-5.4568,-5.4522,-5.4472,-5.489,-5.4919,-5.4836,-5.4971,-5.4821,-5.4552,-5.4441,-5.4409,-5.4409,-5.4409,-5.4409,-5.4409,-5.4409,-5.4409,-5.4409,-5.4409,-5.4409,-5.4409,-5.4409,-5.4409,-5.4161,-5.3416,-5.2281,-5.1672,-5.2124,-5.1804,-5.1942,-5.316,-5.3937,-5.4458,-5.4597,-5.4613,-5.4692,-5.4817,-5.508,-5.5224,-5.518,-5.5594,-5.5798,-5.5737,-5.5613,-5.5632,-5.5756,-5.5724,-5.5703,-5.5703,-5.5703,-5.5703,-5.5703,-5.5703,-5.5703,-5.5703,-5.5703,-5.5703,-5.5703,-5.5703,-5.5703,-5.5703,-5.5703,-5.5703,-5.5703,-5.5703,-5.5703,-5.5703,-5.3813,-5.3813,-5.3813,-5.3813,-5.3813,-5.3813,-5.3813,-5.3813,-5.3813,-5.3813,-5.3813,-5.3813,-5.3813,-5.3813,-5.3813,-5.3813,-5.387,-5.387,-5.3813,-5.387,-5.3889,-5.3794,-5.3813,-5.3813,-5.3813,-5.3813,-5.3813,-5.3813,-5.3813,-5.3813,-5.3813,-5.3813,-5.3813,-5.3794,-5.3907,-5.3963,-5.4,-5.4183,-5.4272,-5.4307,-5.4441,-5.4489,-5.4505,-5.4568,-5.4581,-5.4581,-5.4581,-5.4581,-5.4613,-5.4817,-5.4746,-5.4673,-5.5141,-5.5141,-5.5026,-5.5231,-5.4957,-5.4581,-5.4581,-5.4536,-5.4489,-5.4489,-5.4458,-5.4409,-5.4409,-5.4409,-5.4409,-5.4409,-5.4409,-5.4409,-5.4409,-5.4409,-5.4161,-5.3416,-5.2739,-5.2532,-5.3207,-5.2781,-5.2928,-5.4336,-5.4552,-5.4657,-5.4876,-5.489,-5.4971,-5.518,-5.5455,-5.5607,-5.5607,-5.5846,-5.5995,-5.5989,-5.5876,-5.5826,-5.5797,-5.5745,-5.5724,-5.5703,-5.5703,-5.5703,-5.5703,-5.5703,-5.5703,-5.5703,-5.5703,-5.5703,-5.5703,-5.5703,-5.5703,-5.5703,-5.5703,-5.5703,-5.5703,-5.5703,-5.5703,-5.5703,-5.3813,-5.3813,-5.3813,-5.3813,-5.3813,-5.3813,-5.3813,-5.3813,-5.3813,-5.3813,-5.3813,-5.3813,-5.3813,-5.3813,-5.3813,-5.3813,-5.4089,-5.4124,-5.3813,-5.4089,-5.4106,-5.3813,-5.3813,-5.3813,-5.3813,-5.3813,-5.3813,-5.3813,-5.3813,-5.3813,-5.3813,-5.3813,-5.3813,-5.3813,-5.3813,-5.387,-5.4019,-5.4091,-5.42,-5.4324,-5.4645,-5.4761,-5.4791,-5.5053,-5.5141,-5.5141,-5.5141,-5.5141,-5.5141,-5.5167,-5.5154,-5.5193,-5.5489,-5.5555,-5.5544,-5.5555,-5.5365,-5.5141,-5.5141,-5.4957,-5.4761,-5.4761,-5.4565,-5.4409,-5.4409,-5.4409,-5.4409,-5.4409,-5.4409,-5.4409,-5.4409,-5.4409,-5.4161,-5.3416,-5.3263,-5.3225,-5.3301,-5.3452,-5.3865,-5.4682,-5.4985,-5.5141,-5.5167,-5.5167,-5.518,-5.5193,-5.5455,-5.5607,-5.5607,-5.5846,-5.6003,-5.6003,-5.5923,-5.5856,-5.5797,-5.5806,-5.5756,-5.5703,-5.5703,-5.5703,-5.5703,-5.5703,-5.5703,-5.5703,-5.5703,-5.5703,-5.5703,-5.5703,-5.5703,-5.5703,-5.5703,-5.5703,-5.5703,-5.5703,-5.5703,-5.5703,-5.3813,-5.3813,-5.3813,-5.3813,-5.3813,-5.3813,-5.3813,-5.3813,-5.3813,-5.3813,-5.3981,-5.4107,-5.4107,-5.4298,-5.4413,-5.4413,-5.4544,-5.4463,-5.4124,-5.4229,-5.4142,-5.3813,-5.3813,-5.3813,-5.3813,-5.3813,-5.3813,-5.3813,-5.3813,-5.3813,-5.3813,-5.3813,-5.3813,-5.3813,-5.4105,-5.426,-5.433,-5.4663,-5.4813,-5.4876,-5.4998,-5.5053,-5.5067,-5.5154,-5.5205,-5.5205,-5.5205,-5.5205,-5.5231,-5.5389,-5.5329,-5.5281,-5.572,-5.574,-5.5639,-5.5808,-5.5789,-5.571,-5.571,-5.5384,-5.5012,-5.4851,-5.4847,-5.4847,-5.4689,-5.4776,-5.4905,-5.4905,-5.4761,-5.4661,-5.4661,-5.4522,-5.4161,-5.3416,-5.3685,-5.3882,-5.3585,-5.4029,-5.4548,-5.5002,-5.5128,-5.5268,-5.5424,-5.5455,-5.5522,-5.568,-5.5798,-5.5846,-5.5846,-5.5929,-5.6012,-5.6012,-5.5977,-5.5951,-5.5924,-5.5846,-5.5787,-5.5756,-5.5724,-5.5703,-5.5703,-5.5703,-5.5703,-5.5703,-5.5703,-5.5703,-5.5703,-5.5703,-5.5703,-5.5703,-5.5703,-5.5703,-5.5703,-5.5703,-5.5703,-5.5703,-5.3813,-5.3813,-5.3813,-5.3813,-5.3813,-5.3813,-5.3813,-5.3813,-5.3832,-5.3944,-5.4161,-5.433,-5.4446,-5.467,-5.4791,-5.4791,-5.4791,-5.4654,-5.4313,-5.4315,-5.4142,-5.3813,-5.3813,-5.3851,-5.3963,-5.3963,-5.4018,-5.4125,-5.4125,-5.4125,-5.4107,-5.4018,-5.3999,-5.4106,-5.4359,-5.4535,-5.4689,-5.5015,-5.518,-5.5205,-5.5293,-5.5317,-5.5329,-5.5431,-5.5455,-5.5455,-5.5455,-5.5455,-5.5489,-5.566,-5.5588,-5.5511,-5.5884,-5.5865,-5.576,-5.5949,-5.6012,-5.6012,-5.6012,-5.573,-5.5396,-5.5121,-5.5134,-5.5154,-5.4957,-5.508,-5.5205,-5.5205,-5.5053,-5.4933,-5.4933,-5.4776,-5.4456,-5.388,-5.427,-5.4515,-5.4092,-5.4628,-5.5121,-5.5305,-5.5389,-5.5522,-5.572,-5.573,-5.5808,-5.5995,-5.6012,-5.6012,-5.6012,-5.6012,-5.6012,-5.6012,-5.6012,-5.5995,-5.5998,-5.5904,-5.5846,-5.5836,-5.5776,-5.5745,-5.5735,-5.5735,-5.5724,-5.5703,-5.5703,-5.5703,-5.5703,-5.5703,-5.5703,-5.5703,-5.5703,-5.5703,-5.5703,-5.5703,-5.5703,-5.5703,-5.3813,-5.3813,-5.3813,-5.3813,-5.3813,-5.3813,-5.3813,-5.3813,-5.3907,-5.4264,-5.4296,-5.443,-5.4761,-5.4806,-5.4806,-5.4806,-5.4806,-5.467,-5.4332,-5.4296,-5.4161,-5.3813,-5.3813,-5.3963,-5.4298,-5.4296,-5.4463,-5.4791,-5.4791,-5.4791,-5.4791,-5.4463,-5.4479,-5.4791,-5.4525,-5.4632,-5.5012,-5.508,-5.5141,-5.5231,-5.55,-5.5588,-5.5639,-5.5902,-5.6012,-5.6012,-5.6012,-5.6012,-5.6012,-5.6012,-5.6012,-5.6012,-5.6012,-5.6012,-5.6012,-5.6012,-5.6012,-5.6012,-5.6012,-5.6012,-5.594,-5.566,-5.5389,-5.5205,-5.5205,-5.5205,-5.5205,-5.5205,-5.5205,-5.5205,-5.5205,-5.5205,-5.5101,-5.4851,-5.5026,-5.5121,-5.4832,-5.5256,-5.5607,-5.5588,-5.5837,-5.6012,-5.6012,-5.6012,-5.6012,-5.6012,-5.6012,-5.6012,-5.6012,-5.6012,-5.6012,-5.6012,-5.6012,-5.6012,-5.6012,-5.5998,-5.5971,-5.5895,-5.5895,-5.5856,-5.5797,-5.5797,-5.5766,-5.5703,-5.5703,-5.5703,-5.5703,-5.5703,-5.5703,-5.5703,-5.5703,-5.5703,-5.5703,-5.5703,-5.5703,-5.5703,-5.3813,-5.3813,-5.3813,-5.3813,-5.3813,-5.3813,-5.3813,-5.3813,-5.3907,-5.4264,-5.4511,-5.4776,-5.5111,-5.532,-5.5357,-5.5164,-5.5151,-5.4995,-5.467,-5.4654,-5.4607,-5.4511,-5.4495,-5.4544,-5.4654,-5.4654,-5.47,-5.4791,-5.4791,-5.4791,-5.4791,-5.47,-5.47,-5.4806,-5.5007,-5.518,-5.5312,-5.5607,-5.574,-5.576,-5.5846,-5.5884,-5.5893,-5.5967,-5.6012,-5.6012,-5.6012,-5.6012,-5.6012,-5.6012,-5.6012,-5.6012,-5.6012,-5.6012,-5.6012,-5.6012,-5.6012,-5.6012,-5.6012,-5.6012,-5.594,-5.566,-5.567,-5.572,-5.5522,-5.5628,-5.576,-5.576,-5.5618,-5.5489,-5.5489,-5.5317,-5.5167,-5.5088,-5.5141,-5.5231,-5.5361,-5.55,-5.567,-5.5865,-5.5958,-5.6012,-5.6012,-5.6012,-5.6012,-5.6012,-5.6012,-5.6012,-5.6012,-5.6012,-5.6012,-5.6012,-5.6012,-5.6012,-5.6012,-5.5998,-5.599,-5.5971,-5.5914,-5.5856,-5.5797,-5.5797,-5.5766,-5.5703,-5.5703,-5.5703,-5.5703,-5.5703,-5.5703,-5.5703,-5.5703,-5.5703,-5.5703,-5.5703,-5.5703,-5.5703,-5.3813,-5.3813,-5.3813,-5.3813,-5.3813,-5.3851,-5.3981,-5.4,-5.4159,-5.462,-5.488,-5.5124,-5.5425,-5.5607,-5.5629,-5.5461,-5.5364,-5.5151,-5.4821,-5.4924,-5.5014,-5.5014,-5.5105,-5.5105,-5.4995,-5.5014,-5.505,-5.5159,-5.5159,-5.5159,-5.5159,-5.5045,-5.5072,-5.5192,-5.5361,-5.5508,-5.5656,-5.5903,-5.6012,-5.6012,-5.6012,-5.6012,-5.6012,-5.6012,-5.6012,-5.6012,-5.6012,-5.6012,-5.6012,-5.6012,-5.6012,-5.6012,-5.6012,-5.6012,-5.6012,-5.6012,-5.6012,-5.6012,-5.6012,-5.6012,-5.5958,-5.5808,-5.5884,-5.5958,-5.5798,-5.5884,-5.6012,-5.6012,-5.5875,-5.576,-5.576,-5.5628,-5.5489,-5.5384,-5.5455,-5.5533,-5.5577,-5.568,-5.5818,-5.5975,-5.6012,-5.6012,-5.6012,-5.6012,-5.6012,-5.6012,-5.6012,-5.6012,-5.6012,-5.6012,-5.6012,-5.6012,-5.6012,-5.6012,-5.6012,-5.5996,-5.6007,-5.6007,-5.5951,-5.5914,-5.5876,-5.5876,-5.5836,-5.5785,-5.5745,-5.5745,-5.5735,-5.5714,-5.5703,-5.5703,-5.5703,-5.5703,-5.5703,-5.5703,-5.5703,-5.5703,-5.3813,-5.3813,-5.3851,-5.3851,-5.387,-5.4,-5.4298,-5.433,-5.4557,-5.5223,-5.5301,-5.5401,-5.5662,-5.5703,-5.5703,-5.5682,-5.5437,-5.5164,-5.4866,-5.5151,-5.5339,-5.5339,-5.5573,-5.5585,-5.5339,-5.5339,-5.5449,-5.5703,-5.5703,-5.5703,-5.5684,-5.5458,-5.5504,-5.5787,-5.5605,-5.5717,-5.5999,-5.6005,-5.6012,-5.6012,-5.6012,-5.6012,-5.6012,-5.6012,-5.6012,-5.6012,-5.6012,-5.6012,-5.6012,-5.6012,-5.6012,-5.6012,-5.6012,-5.6012,-5.6012,-5.6012,-5.6012,-5.6012,-5.6012,-5.6012,-5.6012,-5.6012,-5.6012,-5.6012,-5.6012,-5.6012,-5.6012,-5.6012,-5.6012,-5.6012,-5.6012,-5.6012,-5.5912,-5.5689,-5.5837,-5.5912,-5.567,-5.5837,-5.6012,-5.6012,-5.6012,-5.6012,-5.6012,-5.6012,-5.6012,-5.6012,-5.6012,-5.6012,-5.6012,-5.6012,-5.6012,-5.6012,-5.6012,-5.6012,-5.6012,-5.6012,-5.6012,-5.6012,-5.6012,-5.6005,-5.5999,-5.5999,-5.5962,-5.5895,-5.5836,-5.5816,-5.5797,-5.5745,-5.5714,-5.5714,-5.5714,-5.5714,-5.5703,-5.5703,-5.5703,-5.5703,-5.3813,-5.3999,-5.4194,-5.4194,-5.4397,-5.4607,-5.4685,-5.47,-5.4836,-5.5249,-5.5301,-5.5401,-5.5662,-5.5703,-5.5618,-5.5401,-5.5339,-5.5275,-5.5191,-5.5461,-5.5618,-5.5618,-5.5662,-5.5662,-5.5618,-5.5618,-5.564,-5.5703,-5.5703,-5.5703,-5.5703,-5.5651,-5.5684,-5.5797,-5.5807,-5.5876,-5.5999,-5.6005,-5.6012,-5.6012,-5.6012,-5.6012,-5.6012,-5.6012,-5.6012,-5.6012,-5.6012,-5.6012,-5.6012,-5.6012,-5.6012,-5.6012,-5.6012,-5.6012,-5.6012,-5.6012,-5.6012,-5.6012,-5.6012,-5.6012,-5.6012,-5.6012,-5.6012,-5.6012,-5.6012,-5.6012,-5.6012,-5.6012,-5.6012,-5.6012,-5.6012,-5.6012,-5.5975,-5.5912,-5.5967,-5.5975,-5.5912,-5.5967,-5.6012,-5.6012,-5.6012,-5.6012,-5.6012,-5.6012,-5.6012,-5.6012,-5.6012,-5.6012,-5.6012,-5.6012,-5.6012,-5.6012,-5.6012,-5.6012,-5.6012,-5.6012,-5.6012,-5.6012,-5.6012,-5.6005,-5.5999,-5.5999,-5.5962,-5.5895,-5.5885,-5.5885,-5.5885,-5.5856,-5.5826,-5.5776,-5.5776,-5.5745,-5.5703,-5.5703,-5.5703,-5.5703,-5.4212,-5.4298,-5.4347,-5.4511,-5.4685,-5.4851,-5.5009,-5.5042,-5.5151,-5.5449,-5.5485,-5.5531,-5.5673,-5.5703,-5.564,-5.5497,-5.5485,-5.5485,-5.5485,-5.5618,-5.5703,-5.5703,-5.5703,-5.5703,-5.5703,-5.5703,-5.5703,-5.5703,-5.5703,-5.5703,-5.5703,-5.5735,-5.5776,-5.5846,-5.5914,-5.5961,-5.5996,-5.5995,-5.6012,-5.6012,-5.6012,-5.6012,-5.6012,-5.6012,-5.6012,-5.6012,-5.6012,-5.6012,-5.6012,-5.6012,-5.6012,-5.6012,-5.6012,-5.6012,-5.6012,-5.6012,-5.6012,-5.6012,-5.6012,-5.6012,-5.6012,-5.6012,-5.6012,-5.6012,-5.6012,-5.6012,-5.6012,-5.6012,-5.6012,-5.6012,-5.6012,-5.6012,-5.6012,-5.6012,-5.6012,-5.6012,-5.6012,-5.6012,-5.6012,-5.6012,-5.6012,-5.6012,-5.6012,-5.6012,-5.6012,-5.6012,-5.6012,-5.6012,-5.6012,-5.6012,-5.6012,-5.6012,-5.6012,-5.6012,-5.6012,-5.6012,-5.6012,-5.6012,-5.6012,-5.5995,-5.5987,-5.5987,-5.5979,-5.5951,-5.5943,-5.5953,-5.5953,-5.5905,-5.5885,-5.5846,-5.5797,-5.5776,-5.5745,-5.5714,-5.5724,-5.5756,-5.4607,-5.4591,-5.456,-5.4836,-5.4924,-5.505,-5.5326,-5.5364,-5.5437,-5.5662,-5.5703,-5.5703,-5.5703,-5.5703,-5.5703,-5.5703,-5.5703,-5.5703,-5.5703,-5.5703,-5.5703,-5.5703,-5.5703,-5.5703,-5.5703,-5.5703,-5.5703,-5.5703,-5.5703,-5.5703,-5.5703,-5.5756,-5.5826,-5.5895,-5.5962,-5.5998,-5.6012,-5.6012,-5.6012,-5.6012,-5.6012,-5.6012,-5.6012,-5.6012,-5.6012,-5.6012,-5.6012,-5.6012,-5.6012,-5.6012,-5.6012,-5.6012,-5.6012,-5.6012,-5.6012,-5.6012,-5.6012,-5.6012,-5.6012,-5.6012,-5.6012,-5.6012,-5.6012,-5.6012,-5.6012,-5.6012,-5.6012,-5.6012,-5.6012,-5.6012,-5.6012,-5.6012,-5.6012,-5.6012,-5.6012,-5.6012,-5.6012,-5.6012,-5.6012,-5.6012,-5.6012,-5.6012,-5.6012,-5.6012,-5.6012,-5.6012,-5.6012,-5.6012,-5.6012,-5.6012,-5.6012,-5.6012,-5.6012,-5.6012,-5.6012,-5.6012,-5.6012,-5.6012,-5.6012,-5.6012,-5.6012,-5.6012,-5.6012,-5.6003,-5.6007,-5.6008,-5.6008,-5.5943,-5.5924,-5.5905,-5.5856,-5.5836,-5.5816,-5.5756,-5.5766,-5.5846,-5.4347,-5.4806,-5.5178,-5.5217,-5.5406,-5.5588,-5.564,-5.564,-5.5651,-5.5703,-5.5703,-5.5703,-5.5703,-5.5703,-5.5703,-5.5703,-5.5703,-5.5703,-5.5703,-5.5703,-5.5703,-5.5703,-5.5703,-5.5703,-5.5703,-5.5703,-5.5703,-5.5703,-5.5703,-5.5703,-5.5703,-5.5714,-5.5785,-5.5895,-5.5905,-5.5942,-5.6012,-5.6012,-5.6012,-5.6012,-5.6012,-5.6012,-5.6012,-5.6012,-5.6012,-5.6012,-5.6012,-5.6012,-5.6012,-5.6012,-5.6012,-5.6012,-5.6012,-5.6012,-5.6012,-5.6012,-5.6012,-5.6012,-5.6012,-5.6012,-5.6012,-5.6012,-5.6012,-5.6012,-5.6012,-5.6012,-5.6012,-5.6012,-5.6012,-5.6012,-5.6012,-5.6012,-5.6012,-5.6012,-5.6012,-5.6012,-5.6012,-5.6012,-5.6012,-5.6012,-5.6012,-5.6012,-5.6012,-5.6012,-5.6012,-5.6012,-5.6012,-5.6012,-5.6012,-5.6012,-5.6012,-5.6012,-5.6012,-5.6012,-5.6012,-5.6012,-5.6012,-5.6012,-5.6012,-5.6012,-5.6012,-5.6012,-5.6012,-5.6003,-5.6003,-5.5995,-5.5995,-5.5995,-5.5987,-5.5981,-5.5981,-5.5953,-5.5885,-5.5885,-5.5914,-5.5971,-5.5031,-5.5198,-5.5351,-5.5504,-5.5618,-5.5703,-5.5703,-5.5703,-5.5703,-5.5703,-5.5703,-5.5703,-5.5703,-5.5703,-5.5703,-5.5703,-5.5703,-5.5703,-5.5703,-5.5703,-5.5703,-5.5703,-5.5703,-5.5703,-5.5703,-5.5703,-5.5703,-5.5703,-5.5703,-5.5703,-5.5703,-5.5703,-5.5766,-5.5895,-5.5895,-5.5933,-5.6012,-5.6012,-5.6012,-5.6012,-5.6012,-5.6012,-5.6012,-5.6012,-5.6012,-5.6012,-5.6012,-5.6012,-5.6012,-5.6012,-5.6012,-5.6012,-5.6012,-5.6012,-5.6012,-5.6012,-5.6012,-5.6012,-5.6012,-5.6012,-5.6012,-5.6012,-5.6012,-5.6012,-5.6012,-5.6012,-5.6012,-5.6012,-5.6012,-5.6012,-5.6012,-5.6012,-5.6012,-5.6012,-5.6012,-5.6012,-5.6012,-5.6012,-5.6012,-5.6012,-5.6012,-5.6012,-5.6012,-5.6012,-5.6012,-5.6012,-5.6012,-5.6012,-5.6012,-5.6012,-5.6012,-5.6012,-5.6012,-5.6012,-5.6012,-5.6012,-5.6012,-5.6012,-5.6012,-5.6012,-5.6012,-5.6012,-5.6012,-5.6012,-5.6012,-5.6012,-5.6012,-5.6012,-5.5995,-5.5996,-5.6008,-5.5962,-5.5905,-5.5933,-5.5971,-5.5999]},{"header":{"parameterUnit":"m.s-1","parameterCategory":1,"la1":30.6,"la2":28.766,"lo1":-90.7593,"lo2":-88.6598,"dy":0.0162,"dx":0.0183,"nx":116,"ny":114,"refTime":"2023-03-07T06:00:00:Z","depth":0,"parameterNumber":3,"parameterNumberName":"V-component_of_WINDS"},"data":[0.0,0.0,0.0,0.0,0.0,0.0,0.0,0.0,0.0,0.0,0.0,0.0,0.0,0.0,0.0,0.0,0.0,0.0,0.0,0.0,0.0,0.0,0.0,0.0,0.0,0.0,0.0,0.0,0.0,0.0,0.0,0.0,0.0,0.0,0.0,0.0,0.0,0.0,0.0,0.0,0.0,0.0,0.0,0.0,0.0,0.0,0.0,0.0,0.0,0.0,0.0,0.0,0.0,0.0,0.0,0.0,0.0,0.0,0.0,0.0,0.0,0.0,0.0,0.0,0.0,0.0,0.0,0.0,0.0,0.0,0.0,0.0,0.0,0.0,0.0,0.0,0.0,0.0,0.0,0.0,0.0,0.0,0.0,0.0,0.0,0.0,0.0,0.0,0.0,0.0,0.0,0.0,0.0,0.0,0.0,0.0,0.0,0.0,0.0,0.0,0.0,0.0,0.0,0.0,0.0,0.0,0.0,0.0,0.0,0.0,0.0,0.0,0.0,0.0,0.0,0.0,0.0,0.0,0.0,0.0,0.0,0.0,0.0,0.0,0.0,0.0,0.0,0.0,0.0,0.0,0.0,0.0,0.0,0.0,0.0,0.0,0.0,0.0,0.0,0.0,0.0,0.0,0.0,0.0,0.0,0.0,0.0,0.0,0.0,0.0,0.0,0.0,0.0,0.0,0.0,0.0,0.0,0.0,0.0,0.0,0.0,0.0,0.0,0.0,0.0,0.0,0.0,0.0,0.0,0.0,0.0,0.0,0.0,0.0,0.0,0.0,0.0,0.0,0.0,0.0,0.0,0.0,0.0,0.0,0.0,0.0,0.0,0.0,0.0,0.0,0.0,0.0,0.0,0.0,0.0,0.0,0.0,0.0,0.0,0.0,0.0,0.0,0.0,0.0,0.0,0.0,0.0,0.0,0.0,0.0,0.0,0.0,0.0,0.0,0.0,0.0,0.0,0.0,0.0,0.0,0.0,0.0,0.0,0.0,0.0,0.0,0.0,0.0,0.0,0.0,0.0,0.0,0.0,0.0,0.0,0.0,0.0,0.0,0.0,0.0,0.0,0.0,0.0,0.0,0.0,0.0,0.0,0.0,0.0,0.0,0.0,0.0,0.0,0.0,0.0,0.0,0.0,0.0,0.0,0.0,0.0,0.0,0.0,0.0,0.0,0.0,0.0,0.0,0.0,0.0,0.0,0.0,0.0,0.0,0.0,0.0,0.0,0.0,0.0,0.0,0.0,0.0,0.0,0.0,0.0,0.0,0.0,0.0,0.0,0.0,0.0,0.0,0.0,0.0,0.0,0.0,0.0,0.0,0.0,0.0,0.0,0.0,0.0,0.0,0.0,0.0,0.0,0.0,0.0,0.0,0.0,0.0,0.0,0.0,0.0,0.0,0.0,0.0,0.0,0.0,0.0,0.0,0.0,0.0,0.0,0.0,0.0,0.0,0.0,0.0,0.0,0.0,0.0,0.0,0.0,0.0,0.0,0.0,0.0,0.0,0.0,0.0,0.0,0.0,0.0,0.0,0.0,0.0,0.0,0.0,0.0,0.0,0.0,0.0,0.0,0.0,0.0,0.0,0.0,0.0,0.0,0.0,0.0,0.0,0.0,0.0,0.0,0.0,0.0,0.0,0.0,0.0,0.0,0.0,0.0,0.0,0.0,0.0,0.0,0.0,0.0,0.0,0.0,0.0,0.0,0.0,0.0,0.0,0.0,0.0,0.0,0.0,0.0,0.0,0.0,0.0,0.0,0.0,0.0,0.0,0.0,0.0,0.0,0.0,0.0,0.0,0.0,0.0,0.0,0.0,0.0,0.0,0.0,0.0,0.0,0.0,0.0,0.0,0.0,0.0,0.0,0.0,0.0,0.0,0.0,0.0,0.0,0.0,0.0,0.0,0.0,0.0,0.0,0.0,0.0,0.0,0.0,0.0,0.0,0.0,0.0,0.0,0.0,0.0,0.0,0.0,0.0,0.0,0.0,0.0,0.0,0.0,0.0,0.0,0.0,0.0,0.0,0.0,0.0,0.0,0.0,0.0,0.0,0.0,0.0,0.0,0.0,0.0,0.0,0.0,0.0,0.0,0.0,0.0,0.0,0.0,0.0,0.0,0.0,0.0,0.0,0.0,0.0,0.0,0.0,0.0,0.0,0.0,0.0,0.0,0.0,0.0,0.0,0.0,0.0,0.0,0.0,0.0,0.0,0.0,0.0,0.0,0.0,0.0,0.0,0.0,0.0,0.0,0.0,0.0,0.0,0.0,0.0,0.0,0.0,0.0,0.0,0.0,0.0,0.0,0.0,0.0,0.0,0.0,0.0,0.0,0.0,0.0,0.0,0.0,0.0,0.0,0.0,0.0,0.0,0.0,0.0,0.0,0.0,0.0,0.0,0.0,0.0,0.0,0.0,0.0,0.0,0.0,0.0,0.0,0.0,0.0,0.0,0.0,0.0,0.0,0.0,0.0,0.0,0.0,0.0,0.0,0.0,0.0,0.0,0.0,0.0,0.0,0.0,0.0,0.0,0.0,0.0,0.0,0.0,0.0,0.0,0.0,0.0,0.0,0.0,0.0,0.0,0.0,0.0,0.0,0.0,0.0,0.0,0.0,0.0,0.0,0.0,0.0,0.0,0.0,0.0,0.0,0.0,0.0,0.0,0.0,0.0,0.0,0.0,0.0,0.0,0.0,0.0,0.0,0.0,0.0,0.0,0.0,0.0,0.0,0.0,0.0,0.0,0.0,0.0,0.0,0.0,0.0,0.0,0.0,0.0,0.0,0.0,0.0,0.0,0.0,0.0,0.0,0.0,0.0,0.0,0.0,0.0,0.0,0.0,0.0,0.0,0.0,0.0,0.0,0.0,0.0,0.0,0.0,0.0,0.0,0.0,0.0,0.0,0.0,0.0,0.0,0.0,0.0,0.0,0.0,0.0,0.0,0.0,0.0,0.0,0.0,0.0,0.0,0.0,0.0,0.0,0.0,0.0,0.0,0.0,0.0,0.0,0.0,0.0,0.0,0.0,0.0,0.0,0.0,0.0,0.0,0.0,0.0,0.0,0.0,0.0,0.0,0.0,0.0,0.0,0.0,0.0,0.0,0.0,0.0,0.0,0.0,0.0,0.0,0.0,0.0,0.0,0.0,0.0,0.0,0.0,0.0,0.0,0.0,0.0,0.0,0.0,0.0,0.0,0.0,0.0,0.0,0.0,0.0,0.0,0.0,0.0,0.0,0.0,0.0,0.0,0.0,0.0,0.0,0.0,0.0,0.0,0.0,0.0,0.0,0.0,0.0,0.0,0.0,0.0,0.0,0.0,0.0,0.0,0.0,0.0,0.0,0.0,0.0,0.0,0.0,0.0,0.0,0.0,0.0,0.0,0.0,0.0,0.0,0.0,0.0,0.0,0.0,0.0,0.0,0.0,0.0,0.0,0.0,0.0,0.0,0.0,0.0,0.0,0.0,0.0,0.0,0.0,0.0,0.0,0.0,0.0,0.0,0.0,0.0,0.0,0.0,0.0,0.0,0.0,0.0,0.0,0.0,0.0,0.0,0.0,0.0,0.0,0.0,0.0,0.0,0.0,0.0,0.0,0.0,0.0,0.0,0.0,0.0,0.0,0.0,0.0,0.0,0.0,0.0,0.0,0.0,0.0,0.0,0.0,0.0,0.0,0.0,0.0,0.0,0.0,0.0,0.0,0.0,0.0,0.0,0.0,0.0,0.0,0.0,0.0,0.0,0.0,0.0,0.0,0.0,0.0,0.0,0.0,0.0,0.0,0.0,0.0,0.0,0.0,0.0,0.0,0.0,0.0,0.0,0.0,0.0,0.0,0.0,0.0,0.0,0.0,0.0,0.0,0.0,0.0,0.0,0.0,0.0,0.0,0.0,0.0,0.0,0.0,0.0,0.0,0.0,0.0,0.0,0.0,0.0,0.0,0.0,0.0,0.0,0.0,0.0,0.0,0.0,0.0,0.0,0.0,0.0,0.0,0.0,0.0,0.0,0.0,0.0,0.0,0.0,0.0,0.0,0.0,0.0,0.0,0.0,0.0,0.0,0.0,0.0,0.0,0.0,0.0,0.0,0.0,0.0,0.0,0.0,0.0,0.0,0.0,0.0,0.0,0.0,0.0,0.0,0.0,0.0,0.0,0.0,0.0,0.0,0.0,0.0,0.0,0.0,0.0,0.0,0.0,0.0,0.0,0.0,0.0,0.0,0.0,0.0,0.0,0.0,0.0,0.0,0.0,0.0,0.0,0.0,0.0,0.0,0.0,0.0,0.0,0.0,0.0,0.0,0.0,0.0,0.0,0.0,0.0,0.0,0.0,0.0,0.0,0.0,0.0,0.0,0.0,0.0,0.0,0.0,0.0,0.0,0.0,0.0,0.0,0.0,0.0,0.0,0.0,0.0,0.0,0.0,0.0,0.0,0.0,0.0,0.0,0.0,0.0,0.0,0.0,0.0,0.0,0.0,0.0,0.0,0.0,0.0,0.0,0.0,0.0,0.0,0.0,0.0,0.0,0.0,0.0,0.0,0.0,0.0,0.0,0.0,0.0,0.0,0.0,0.0,0.0,0.0,0.0,0.0,0.0,0.0,0.0,0.0,0.0,0.0,0.0,0.0,0.0,0.0,0.0,0.0,0.0,0.0,0.0,0.0,0.0,0.0,0.0,0.0,0.0,0.0,0.0,0.0,0.0,0.0,0.0,0.0,0.0,0.0,0.0,0.0,0.0,0.0,0.0,0.0,0.0,0.0,0.0,0.0,0.0,0.0,0.0,0.0,0.0,0.0,0.0,0.0,0.0,0.0,0.0,0.0,0.0,0.0,0.0,0.0,0.0,0.0,0.0,0.0,0.0,0.0,0.0,0.0,0.0,0.0,0.0,0.0,0.0,0.0,0.0,0.0,0.0,0.0,0.0,0.0,0.0,0.0,0.0,0.0,0.0,0.0,0.0,0.0,0.0,0.0,0.0,0.0,0.0,0.0,0.0,0.0,0.0,0.0,0.0,0.0,0.0,0.0,0.0,0.0,0.0,0.0,0.0,0.0,0.0,0.0,0.0,0.0,0.0,0.0,0.0,0.0,0.0,0.0,0.0,0.0,0.0,0.0,0.0,0.0,0.0,0.0,0.0,0.0,0.0,0.0,0.0,0.0,0.0,0.0,0.0,0.0,0.0,0.0,0.0,0.0,0.0,0.0,0.0,0.0,0.0,0.0,0.0,0.0,0.0,0.0,0.0,0.0,0.0,0.0,0.0,0.0,0.0,0.0,0.0,0.0,0.0,0.0,0.0,0.0,0.0,0.0,0.0,0.0,0.0,0.0,0.0,0.0,0.0,0.0,0.0,0.0,0.0,0.0,0.0,0.0,0.0,0.0,0.0,0.0,0.0,0.0,0.0,0.0,0.0,0.0,0.0,0.0,0.0,0.0,0.0,0.0,0.0,0.0,0.0,0.0,0.0,0.0,0.0,0.0,0.0,0.0,0.0,0.0,0.0,0.0,0.0,0.0,0.0,0.0,0.0,0.0,0.0,0.0,0.0,0.0,0.0,0.0,0.0,0.0,0.0,0.0,0.0,0.0,0.0,0.0,0.0,0.0,0.0,0.0,0.0,0.0,0.0,0.0,0.0,0.0,0.0,0.0,0.0,0.0,0.0,0.0,0.0,0.0,0.0,0.0,0.0,0.0,0.0,0.0,0.0,0.0,0.0,0.0,0.0,0.0,0.0,0.0,0.0,0.0,0.0,0.0,0.0,0.0,0.0,0.0,0.0,0.0,0.0,0.0,0.0,0.0,0.0,0.0,0.0,0.0,0.0,0.0,0.0,0.0,0.0,0.0,0.0,0.0,0.0,0.0,0.0,0.0,0.0,0.0,0.0,0.0,0.0,0.0,0.0,0.0,0.0,0.0,0.0,0.0,0.0,0.0,0.0,0.0,0.0,0.0,0.0,0.0,0.0,0.0,0.0,0.0,0.0,0.0,0.0,0.0,0.0,0.0,0.0,0.0,0.0,0.0,0.0,0.0,0.0,0.0,0.0,0.0,0.0,0.0,0.0,0.0,0.0,0.0,0.0,0.0,0.0,0.0,0.0,0.0,0.0,0.0,0.0,0.0,-1.4832,-1.4557,0.0,0.0,0.0,0.0,0.0,0.0,0.0,0.0,0.0,0.0,0.0,0.0,0.0,0.0,0.0,0.0,0.0,0.0,0.0,0.0,0.0,0.0,0.0,0.0,0.0,0.0,0.0,0.0,0.0,0.0,0.0,0.0,0.0,0.0,0.0,0.0,0.0,0.0,0.0,0.0,0.0,0.0,0.0,0.0,0.0,0.0,0.0,0.0,0.0,0.0,0.0,0.0,0.0,0.0,0.0,0.0,0.0,0.0,0.0,0.0,0.0,0.0,0.0,0.0,0.0,0.0,0.0,0.0,0.0,0.0,0.0,0.0,0.0,0.0,0.0,0.0,0.0,0.0,0.0,0.0,0.0,0.0,0.0,0.0,0.0,0.0,0.0,0.0,0.0,0.0,0.0,0.0,0.0,0.0,0.0,0.0,0.0,0.0,0.0,0.0,0.0,0.0,0.0,0.0,0.0,0.0,0.0,0.0,0.0,0.0,0.0,0.0,0.0,0.0,-1.5238,-1.4839,0.0,0.0,0.0,0.0,0.0,0.0,0.0,0.0,0.0,0.0,0.0,0.0,0.0,0.0,0.0,0.0,0.0,0.0,0.0,0.0,0.0,0.0,0.0,0.0,0.0,0.0,0.0,0.0,0.0,0.0,0.0,0.0,0.0,0.0,0.0,0.0,0.0,0.0,0.0,0.0,0.0,0.0,0.0,0.0,0.0,0.0,0.0,0.0,0.0,0.0,0.0,0.0,0.0,0.0,0.0,0.0,0.0,0.0,0.0,0.0,0.0,0.0,0.0,0.0,0.0,0.0,0.0,0.0,0.0,0.0,0.0,0.0,0.0,0.0,0.0,0.0,0.0,0.0,0.0,0.0,0.0,0.0,0.0,0.0,0.0,0.0,0.0,0.0,0.0,0.0,0.0,0.0,0.0,0.0,0.0,0.0,0.0,0.0,0.0,0.0,0.0,0.0,0.0,0.0,0.0,0.0,0.0,0.0,-1.5993,-1.6016,-1.5959,-1.6056,-1.6079,-1.6079,-1.6079,-1.5743,-1.5243,-1.6284,0.0,0.0,0.0,0.0,0.0,0.0,0.0,0.0,0.0,0.0,0.0,0.0,0.0,0.0,0.0,0.0,0.0,0.0,0.0,0.0,0.0,0.0,0.0,0.0,0.0,0.0,0.0,0.0,0.0,0.0,0.0,0.0,0.0,0.0,0.0,0.0,0.0,0.0,-2.414,-2.4666,-2.4717,-2.441,-2.499,0.0,0.0,0.0,0.0,0.0,0.0,0.0,0.0,0.0,0.0,0.0,0.0,0.0,0.0,0.0,0.0,0.0,0.0,0.0,0.0,0.0,0.0,0.0,0.0,0.0,0.0,0.0,0.0,0.0,0.0,0.0,0.0,0.0,0.0,0.0,0.0,0.0,0.0,0.0,0.0,0.0,0.0,0.0,-1.7653,-1.6804,0.0,0.0,0.0,0.0,0.0,0.0,0.0,0.0,0.0,0.0,0.0,0.0,0.0,-1.6534,-1.6596,-1.657,-1.647,-1.6245,-1.6696,-1.6803,-1.658,-1.7035,-1.7259,-1.7259,-1.7259,0.0,-1.5765,-1.6417,0.0,0.0,0.0,0.0,0.0,0.0,0.0,0.0,0.0,0.0,0.0,0.0,0.0,0.0,0.0,0.0,0.0,0.0,0.0,0.0,0.0,0.0,0.0,0.0,0.0,0.0,0.0,0.0,0.0,0.0,0.0,0.0,0.0,0.0,0.0,0.0,-2.45,-2.4684,-2.4724,-2.5164,-2.5164,-2.4886,-2.5389,-2.5208,-2.4657,-2.4765,0.0,0.0,0.0,0.0,0.0,0.0,0.0,0.0,0.0,0.0,0.0,0.0,0.0,0.0,0.0,0.0,0.0,0.0,0.0,0.0,0.0,0.0,0.0,0.0,0.0,0.0,0.0,0.0,0.0,0.0,0.0,0.0,0.0,0.0,0.0,0.0,0.0,0.0,0.0,-1.7102,-1.6533,-1.5826,-1.5758,-1.5691,0.0,0.0,0.0,0.0,0.0,0.0,0.0,0.0,0.0,-1.6513,-1.6779,-1.6917,-1.6917,-1.7062,-1.7077,-1.6968,-1.7197,-1.7252,-1.7135,-1.7372,-1.7485,-1.7485,-1.7485,-1.7229,-1.6766,-1.672,-1.6186,-1.5489,0.0,0.0,0.0,0.0,-1.7399,-1.8529,0.0,0.0,0.0,0.0,0.0,0.0,0.0,0.0,0.0,0.0,0.0,0.0,0.0,0.0,0.0,-2.9748,0.0,0.0,0.0,0.0,0.0,0.0,0.0,0.0,0.0,0.0,0.0,0.0,-2.483,-2.5022,-2.5119,-2.5404,-2.5404,-2.5128,-2.5514,-2.5415,-2.4957,-2.4948,-2.4972,0.0,0.0,0.0,0.0,0.0,0.0,0.0,0.0,0.0,0.0,0.0,0.0,0.0,0.0,0.0,0.0,0.0,0.0,0.0,0.0,0.0,0.0,0.0,0.0,0.0,0.0,0.0,0.0,0.0,0.0,0.0,0.0,0.0,0.0,0.0,0.0,0.0,0.0,-1.6071,-1.5934,-1.5118,-1.541,-1.5571,0.0,0.0,0.0,0.0,0.0,0.0,-1.6386,-1.6652,-1.6803,-1.6803,-1.7056,-1.7195,-1.7195,-1.7382,-1.7485,-1.7485,-1.7485,-1.7485,-1.7485,-1.7485,-1.7485,-1.7485,-1.7485,-1.7485,-1.7461,-1.6906,-1.6452,-1.6039,-1.5857,-1.5778,-1.589,-1.6776,-1.7278,-1.7828,0.0,0.0,0.0,0.0,0.0,0.0,0.0,0.0,0.0,0.0,0.0,0.0,0.0,0.0,-2.9349,-2.9349,-2.74,-2.6024,0.0,0.0,0.0,0.0,0.0,0.0,0.0,0.0,0.0,-2.3859,-2.4497,-2.4804,-2.4821,-2.5128,-2.5072,-2.4876,-2.5412,-2.5457,-2.5085,-2.5335,-2.5429,-2.5307,0.0,0.0,0.0,0.0,0.0,0.0,0.0,0.0,0.0,0.0,0.0,0.0,0.0,0.0,0.0,0.0,0.0,0.0,0.0,0.0,0.0,0.0,0.0,0.0,0.0,0.0,0.0,0.0,0.0,0.0,0.0,0.0,0.0,0.0,0.0,0.0,0.0,0.0,0.0,-1.5165,-1.5952,0.0,0.0,0.0,0.0,-1.664,-1.667,-1.6676,-1.6676,-1.693,-1.7074,-1.7074,-1.7328,-1.7461,-1.7461,-1.7473,-1.7485,-1.7485,-1.7485,-1.7485,-1.7485,-1.7485,-1.7485,-1.7485,-1.7485,-1.7485,-1.7461,-1.6906,-1.6673,-1.658,-1.6045,-1.5778,-1.5834,-1.5834,-1.6558,-1.7495,0.0,0.0,0.0,0.0,0.0,0.0,0.0,0.0,0.0,0.0,0.0,0.0,0.0,-3.0008,-3.0067,-3.0067,-2.8489,-2.7232,-2.6601,0.0,0.0,0.0,0.0,0.0,0.0,0.0,-2.433,-2.4442,-2.4697,-2.4821,-2.4821,-2.4923,-2.4868,-2.4821,-2.5034,-2.5113,-2.5175,-2.538,-2.5468,-2.5465,-2.5274,-2.5005,0.0,0.0,0.0,0.0,0.0,0.0,0.0,0.0,0.0,0.0,0.0,0.0,0.0,0.0,0.0,0.0,0.0,0.0,0.0,0.0,0.0,0.0,0.0,0.0,0.0,0.0,0.0,0.0,0.0,0.0,0.0,0.0,0.0,0.0,0.0,0.0,0.0,-1.5552,-1.6384,0.0,-1.6016,-1.5596,-1.5692,-1.6638,-1.6108,-1.6086,-1.6891,-1.7201,-1.734,-1.734,-1.7436,-1.7485,-1.7485,-1.7485,-1.7485,-1.7485,-1.7485,-1.7485,-1.7485,-1.7485,-1.7485,-1.7485,-1.7485,-1.7485,-1.7473,-1.7265,-1.7223,-1.7211,-1.7,-1.6906,-1.6906,-1.6906,-1.7137,-1.7592,0.0,0.0,0.0,0.0,0.0,0.0,0.0,0.0,0.0,0.0,0.0,-3.0348,-3.0611,-3.0784,-3.0701,-3.0346,-2.9005,-2.7714,-2.6536,0.0,0.0,0.0,0.0,0.0,0.0,-2.4371,-2.4482,-2.4821,-2.4821,-2.4821,-2.4821,-2.4821,-2.4821,-2.4821,-2.4821,-2.4923,-2.5055,-2.5295,-2.5469,-2.555,-2.5474,-2.5179,-2.4805,0.0,0.0,0.0,0.0,0.0,0.0,0.0,0.0,0.0,0.0,0.0,0.0,0.0,0.0,0.0,0.0,0.0,0.0,0.0,0.0,0.0,0.0,0.0,0.0,0.0,0.0,0.0,0.0,0.0,0.0,0.0,0.0,0.0,0.0,-1.5636,-1.6045,-1.5846,-1.6177,-1.627,-1.5813,-1.4879,-1.4682,-1.5623,-1.5489,-1.5693,-1.6576,-1.7149,-1.7485,-1.7485,-1.7485,-1.7485,-1.7485,-1.7485,-1.7485,-1.7485,-1.7485,-1.7485,-1.7485,-1.7485,-1.7485,-1.7485,-1.7485,-1.7485,-1.7485,-1.7485,-1.7485,-1.7485,-1.7485,-1.7485,-1.7485,-1.7485,-1.7485,-1.7596,0.0,0.0,0.0,0.0,0.0,0.0,0.0,0.0,0.0,0.0,-3.0518,-3.13,-3.2041,-3.1767,-3.1114,-2.9974,-2.8807,-2.7246,-2.5174,-2.5006,0.0,0.0,0.0,0.0,-2.504,-2.4247,-2.4162,-2.4821,-2.4821,-2.4821,-2.4821,-2.4821,-2.4821,-2.4821,-2.4821,-2.4821,-2.4821,-2.5072,-2.5395,-2.5652,-2.555,-2.5262,-2.4909,0.0,0.0,0.0,0.0,0.0,0.0,0.0,0.0,0.0,0.0,0.0,0.0,0.0,0.0,0.0,0.0,0.0,0.0,0.0,0.0,0.0,0.0,0.0,0.0,0.0,0.0,0.0,0.0,0.0,0.0,0.0,0.0,0.0,-1.5038,-1.5965,-1.6418,-1.5886,-1.5382,-1.5056,-1.4703,-1.383,-1.3393,-1.371,-1.4798,-1.551,-1.5575,-1.6767,-1.7479,-1.7485,-1.7485,-1.7485,-1.7485,-1.7485,-1.7485,-1.7485,-1.7485,-1.7485,-1.7485,-1.7485,-1.7485,-1.7485,-1.7485,-1.7485,-1.7485,-1.7485,-1.7485,-1.7485,-1.7485,-1.7485,-1.7485,-1.7485,-1.7485,-1.7485,0.0,0.0,0.0,0.0,0.0,0.0,0.0,0.0,0.0,0.0,-3.0518,-3.13,-3.2041,-3.1037,-3.0235,-2.9922,-2.8145,-2.6559,-2.5512,0.0,0.0,0.0,0.0,0.0,-2.5111,-2.4933,-2.4803,-2.4821,-2.4821,-2.4821,-2.4821,-2.4821,-2.4821,-2.4821,-2.4821,-2.4821,-2.4821,-2.4868,-2.4979,-2.5081,-2.5463,-2.5514,-2.5307,0.0,0.0,0.0,0.0,0.0,0.0,0.0,0.0,0.0,0.0,0.0,0.0,0.0,0.0,0.0,0.0,0.0,0.0,0.0,0.0,0.0,0.0,0.0,0.0,0.0,0.0,0.0,0.0,0.0,0.0,0.0,-1.5715,-1.6239,-1.6239,-1.5662,-1.5373,-1.5604,-1.4729,-1.4055,-1.3995,-1.287,-1.2594,-1.36,-1.3126,-1.36,-1.5515,-1.593,-1.6526,-1.7485,-1.7485,-1.7485,-1.7485,-1.7485,-1.7485,-1.7485,-1.7485,-1.7485,-1.7485,-1.7485,-1.7485,-1.7485,-1.7485,-1.7485,-1.7485,-1.7485,-1.7485,-1.7485,-1.7485,-1.7485,-1.7485,-1.7485,-1.7485,-1.7485,0.0,0.0,0.0,0.0,0.0,0.0,0.0,0.0,0.0,0.0,-3.0737,-3.1427,-3.2495,-3.1849,-3.0918,-2.9974,-2.8499,-2.6905,-2.5474,0.0,0.0,0.0,0.0,-2.5191,-2.5351,-2.5226,-2.5072,-2.4821,-2.4821,-2.4821,-2.4821,-2.4821,-2.4821,-2.4821,-2.4821,-2.4821,-2.4821,-2.4821,-2.4868,-2.5026,-2.5348,-2.5448,-2.5389,-2.5594,-2.6209,-2.6892,-2.6892,-2.6892,-2.6853,-2.6619,0.0,0.0,0.0,0.0,0.0,0.0,0.0,0.0,0.0,0.0,0.0,0.0,0.0,0.0,0.0,0.0,0.0,0.0,0.0,0.0,0.0,0.0,0.0,0.0,-1.6124,-1.6604,-1.6297,-1.5545,-1.5184,-1.5558,-1.3963,-1.2886,-1.2886,-1.1687,-1.1209,-1.1985,-1.1868,-1.235,-1.3904,-1.4976,-1.593,-1.6708,-1.7244,-1.7485,-1.7485,-1.7485,-1.7485,-1.7485,-1.7485,-1.7485,-1.7485,-1.7485,-1.7485,-1.7485,-1.7485,-1.7485,-1.7485,-1.7485,-1.7485,-1.7485,0.0,0.0,0.0,0.0,-1.7485,-1.7485,0.0,0.0,0.0,0.0,0.0,0.0,0.0,0.0,0.0,0.0,0.0,-3.16,-3.3116,-3.3181,-3.2229,-3.0078,-2.9167,-2.7641,0.0,0.0,0.0,-2.5549,-2.5371,-2.5396,-2.5734,-2.5395,-2.5128,-2.4876,-2.4821,-2.4821,-2.4821,-2.4821,-2.4821,-2.4812,-2.4821,-2.4821,-2.4923,-2.4868,-2.5026,-2.5284,-2.5276,-2.5248,-2.529,-2.5818,-2.6364,-2.6894,-2.6894,-2.6894,-2.6833,-2.6785,0.0,0.0,0.0,0.0,0.0,0.0,0.0,0.0,0.0,0.0,0.0,0.0,0.0,0.0,0.0,0.0,0.0,0.0,0.0,0.0,0.0,0.0,0.0,0.0,-1.636,-1.6512,-1.572,-1.5451,-1.5332,-1.5154,-1.3002,-1.1511,-1.1511,-1.0486,-0.9822,-0.9822,-1.0846,-1.1571,-1.1692,-1.4018,0.0,0.0,0.0,-1.7303,-1.7303,-1.7303,-1.7361,-1.7485,-1.7485,-1.7485,-1.7485,-1.7485,-1.7485,-1.7485,-1.7485,-1.7485,-1.7485,-1.7485,-1.7485,-1.7485,-1.7485,-1.7485,-1.7485,-1.7485,-1.7485,-1.7485,0.0,0.0,0.0,0.0,0.0,0.0,0.0,0.0,0.0,-3.0793,-3.1012,-3.16,-3.3116,-3.2482,-3.1381,-3.0026,-2.8451,-2.6736,0.0,0.0,-2.5369,-2.5576,-2.6073,-2.6227,-2.6017,-2.5734,-2.5459,-2.5119,-2.4923,-2.4821,-2.4821,-2.4821,-2.4923,-2.5119,-2.4923,-2.509,-2.5523,-2.5238,-2.5284,-2.5624,-2.5844,-2.5917,-2.59,-2.6064,-2.6344,-2.6658,-2.6658,-2.6658,-2.6612,-2.6259,-2.6051,-2.5828,-2.5433,0.0,0.0,0.0,0.0,0.0,0.0,0.0,0.0,0.0,0.0,0.0,0.0,0.0,0.0,0.0,0.0,0.0,0.0,0.0,0.0,-1.5772,-1.6684,-1.6944,-1.5741,-1.4738,-1.3665,-1.2586,-1.1084,-1.0183,-1.0183,-0.994,-0.9822,-0.9822,-1.0001,-1.0607,-1.1631,-1.3186,-1.4083,-1.4083,-1.5273,-1.5989,-1.5989,-1.5989,-1.6467,-1.7485,-1.7485,0.0,-1.7485,-1.7485,-1.7485,-1.7485,-1.7485,-1.7485,-1.7485,-1.7485,-1.7485,-1.7485,-1.7485,-1.7485,-1.7485,-1.7485,-1.7485,-1.7485,0.0,0.0,0.0,0.0,0.0,0.0,0.0,0.0,0.0,0.0,-3.0451,-3.0886,-3.2029,-3.1643,-3.0826,-2.9707,-2.7908,0.0,0.0,-2.5359,-2.589,-2.6099,-2.6418,-2.6418,-2.6127,-2.5962,-2.5734,-2.545,-2.5302,-2.5136,-2.5026,-2.5191,-2.5136,-2.5026,-2.5191,-2.5302,-2.545,-2.545,-2.5624,-2.5898,-2.6072,-2.6181,-2.6354,-2.6354,-2.6473,-2.6591,-2.6591,-2.6591,-2.6554,-2.6172,-2.6045,-2.5973,-2.5422,-2.5117,-2.4882,0.0,0.0,0.0,0.0,0.0,0.0,0.0,0.0,0.0,0.0,0.0,0.0,0.0,0.0,-1.5748,-1.5467,0.0,-1.6257,-1.6257,-1.693,-1.6826,-1.4917,-1.4083,-1.3186,-1.1872,-1.0607,-0.9822,-0.9822,-0.9822,-0.9822,-0.9822,-0.9822,-1.0061,-1.0728,-1.1989,-1.2711,-1.2711,-1.3963,-1.4679,-1.4679,-1.5273,-1.593,-1.6585,-1.7185,-1.7485,-1.7485,-1.7485,-1.7485,-1.7485,-1.7485,-1.7485,-1.7485,-1.7485,-1.7485,-1.7485,-1.7485,-1.7485,-1.7485,-1.7485,-1.7485,-1.7485,0.0,0.0,0.0,0.0,0.0,0.0,0.0,0.0,0.0,0.0,-2.9894,-3.0178,-3.0908,-3.1012,-3.0473,0.0,0.0,0.0,0.0,-2.5653,-2.6287,-2.6573,-2.6591,-2.6473,-2.6181,-2.6072,-2.5907,-2.5688,-2.5578,-2.5404,-2.5119,-2.5412,-2.5302,-2.4923,-2.5302,-2.5459,-2.5284,-2.5514,-2.5798,-2.6127,-2.6017,-2.6245,-2.6473,-2.6418,-2.6473,-2.6473,-2.6473,-2.6364,-2.62,-2.6045,-2.5963,-2.5746,-2.5352,-2.5173,-2.4978,-2.4156,-2.4112,0.0,0.0,0.0,0.0,0.0,0.0,0.0,0.0,-1.8772,-1.7782,-1.6758,-1.6526,-1.6352,-1.589,-1.6274,-1.6678,-1.6678,-1.7135,-1.6585,-1.4083,-1.3725,-1.3126,-1.1511,-1.0425,-0.9822,-0.9822,-0.9822,-0.9822,-0.9822,-0.9822,-0.9822,-0.9822,-1.1027,-1.1571,-1.1329,-1.2651,-1.3306,-1.3306,-1.4619,-1.5332,-1.5634,-1.6885,-1.7485,-1.7485,-1.7485,-1.7485,-1.7485,-1.7485,-1.7485,-1.7485,-1.7485,-1.7485,-1.7485,-1.7485,-1.7485,-1.7485,-1.7485,-1.7485,-1.7485,0.0,0.0,0.0,0.0,0.0,0.0,0.0,0.0,0.0,0.0,0.0,0.0,0.0,0.0,0.0,0.0,0.0,0.0,-2.5966,-2.6291,-2.6536,-2.6591,-2.6591,-2.6591,-2.6527,-2.6026,-2.5734,-2.5688,-2.5145,-2.4868,-2.4876,-2.4868,-2.497,-2.5174,-2.497,-2.52,-2.5624,-2.5395,-2.556,-2.6072,-2.5852,-2.5907,-2.6127,-2.5907,-2.5962,-2.6181,-2.6181,-2.562,-2.4984,-2.5564,-2.533,-2.493,-2.5465,-2.5386,-2.4978,-2.4254,0.0,-2.3444,-2.2748,-2.2894,-2.2996,-2.1836,-2.1146,-2.0291,0.0,-1.7512,-1.6708,-1.6059,-1.5896,-1.589,-1.5834,-1.6274,-1.6678,-1.6678,-1.7135,-1.6585,-1.4083,-1.3725,-1.2766,-1.0304,-0.9879,-0.9822,-0.9822,-0.9822,-0.9822,-0.9822,-0.9822,-0.9822,-0.9822,-1.1027,-1.1209,-1.0061,-1.1269,-1.1929,-1.1929,-1.3246,-1.45,-1.5634,-1.6885,-1.7485,-1.7485,-1.7485,-1.7485,-1.7485,-1.7485,-1.7485,-1.7485,-1.7485,-1.7485,-1.7485,-1.7485,-1.7485,-1.7485,-1.7485,-1.7485,-1.7485,0.0,0.0,0.0,0.0,0.0,0.0,0.0,0.0,0.0,0.0,0.0,0.0,0.0,0.0,0.0,0.0,0.0,0.0,-2.6163,-2.6382,-2.6591,-2.6591,-2.6591,-2.6591,-2.6591,-2.6364,-2.619,-2.619,-2.598,-2.576,-2.5578,-2.5752,-2.5752,-2.5514,-2.5752,-2.5861,-2.5962,-2.6017,-2.6136,-2.6364,-2.6245,-2.63,-2.6364,-2.6254,-2.619,-2.6036,-2.5467,-2.5235,0.0,0.0,-2.4911,-2.4949,-2.5133,-2.4766,-2.427,-2.3776,-2.3396,-2.3188,-2.3458,-2.3582,-2.3634,-2.3356,-2.2108,-2.0733,-1.9959,-1.8311,-1.6972,-1.7065,-1.6916,-1.6801,-1.6801,-1.7006,-1.7141,-1.7141,-1.7354,-1.6585,-1.4083,-1.3725,-1.2702,-1.0122,-0.9822,-0.9822,-0.9822,-0.9822,-0.9822,-0.9822,-0.9822,-0.9822,-0.9822,-1.0304,-1.0365,-0.9822,-1.0304,-1.0604,-1.0604,-1.2646,-1.3963,-1.45,-1.6526,-1.7485,-1.7485,-1.7485,-1.7485,-1.7485,-1.7485,-1.7485,-1.7485,-1.7485,-1.7485,-1.7485,-1.7485,-1.7485,-1.7485,-1.7485,-1.7485,-1.7485,0.0,0.0,0.0,0.0,0.0,0.0,0.0,0.0,0.0,0.0,0.0,0.0,0.0,0.0,0.0,0.0,0.0,0.0,0.0,-2.6217,-2.6418,-2.6582,-2.6591,-2.6591,-2.6591,-2.6527,-2.6473,-2.6473,-2.6418,-2.6245,-2.6017,-2.6245,-2.6136,-2.5743,-2.6136,-2.6245,-2.6017,-2.6245,-2.6418,-2.6473,-2.6364,-2.6418,-2.6473,-2.6364,-2.6118,-2.5765,-2.5137,-2.5023,0.0,0.0,-2.44,-2.4436,-2.4493,-2.4035,-2.3523,-2.3207,-2.2961,-2.2961,-2.3766,-2.4015,-2.4016,-2.3778,-2.2561,-2.1249,-2.0527,-1.8783,-1.7493,-1.7929,-1.7726,-1.7485,-1.7485,-1.7485,-1.7485,-1.7485,-1.7485,-1.6585,-1.4083,-1.3725,-1.2702,-1.0122,-0.9822,-0.9822,-0.9822,-0.9822,-0.9822,-0.9822,-0.9822,-0.9822,-0.9822,-0.9822,-0.9822,-0.9822,-0.9822,-0.9822,-0.9822,-1.2045,-1.3306,-1.3725,-1.593,-1.7185,-1.7485,-1.7485,-1.7485,-1.7485,-1.7485,-1.7485,-1.7485,-1.7485,-1.7485,-1.7485,-1.7485,-1.7485,-1.7485,-1.7485,-1.7485,-1.7485,0.0,0.0,0.0,0.0,0.0,0.0,0.0,0.0,0.0,0.0,0.0,0.0,0.0,0.0,0.0,0.0,0.0,0.0,0.0,-2.5835,-2.5945,-2.6573,-2.6591,-2.6591,-2.6591,-2.63,-2.6127,-2.6127,-2.5844,-2.5743,-2.5734,-2.5743,-2.5743,-2.5688,-2.5743,-2.5743,-2.5734,-2.5743,-2.5907,-2.6072,-2.5852,-2.5907,-2.6072,-2.5852,-2.5457,-2.5183,-2.5389,0.0,0.0,0.0,-2.3704,-2.2908,-2.3527,-2.3372,0.0,-2.2777,-2.2604,0.0,-2.3006,-2.3592,-2.3636,-2.1695,-2.1642,-2.143,-1.9036,-1.824,-1.796,-1.7972,-1.7726,-1.7485,-1.7485,-1.7485,-1.7485,-1.7485,-1.7485,-1.6585,-1.4083,-1.3725,-1.2702,-1.0122,-0.9822,-0.9822,-0.9822,-0.9822,-0.9822,-0.9822,-0.9822,-0.9822,-0.9822,-0.9822,-0.9822,-0.9822,-0.9822,-0.9822,-0.9822,-1.1088,-1.241,-1.3725,-1.5035,-1.6284,-1.7485,-1.7485,-1.7485,-1.7485,-1.7485,-1.7485,-1.7485,-1.7485,-1.7485,-1.7485,-1.7485,-1.7485,-1.7485,-1.7485,-1.7485,-1.7485,0.0,0.0,0.0,0.0,0.0,0.0,0.0,0.0,0.0,0.0,0.0,0.0,0.0,0.0,0.0,0.0,0.0,0.0,0.0,-2.5626,-2.5809,-2.616,-2.6444,-2.6591,-2.6591,-2.6473,-2.6418,-2.6418,-2.6354,-2.63,-2.63,-2.63,-2.63,-2.63,-2.63,-2.63,-2.63,-2.63,-2.6364,-2.6418,-2.6309,-2.6364,-2.6382,-2.6054,-2.581,-2.5628,0.0,0.0,0.0,0.0,0.0,0.0,-2.4123,0.0,0.0,-2.269,0.0,0.0,-2.3679,-2.4386,-2.4889,-2.4276,-2.3111,-2.1907,-2.1052,-1.9397,-1.7972,-1.7972,-1.7462,-1.6988,-1.6988,-1.6988,-1.6988,-1.6988,-1.7247,-1.6885,-1.5213,-1.4202,-1.3066,-1.1269,-1.0304,-0.9822,-0.9822,-0.9822,-0.9822,-0.9822,-0.9822,-0.9822,-0.9822,-0.9822,-0.9822,-0.9822,-0.9822,-0.9822,-0.9822,-1.1088,-1.1929,-1.241,-1.456,-1.6284,-1.7485,-1.7485,-1.7485,-1.7485,-1.7485,-1.7485,-1.7485,-1.7485,-1.7485,-1.7485,-1.7485,-1.7485,-1.7485,-1.7485,-1.7485,-1.7485,0.0,0.0,0.0,0.0,0.0,0.0,0.0,0.0,0.0,0.0,0.0,0.0,0.0,0.0,0.0,0.0,0.0,0.0,0.0,0.0,-2.5065,-2.5474,-2.5737,-2.5882,-2.5882,-2.599,-2.599,-2.5882,-2.6244,-2.6362,-2.6263,-2.6463,-2.6591,-2.6591,-2.6591,-2.6591,-2.6591,-2.6591,-2.6499,-2.6362,-2.6362,-2.6279,-2.6123,-2.5901,-2.5718,0.0,0.0,0.0,0.0,0.0,0.0,0.0,0.0,0.0,0.0,0.0,0.0,-2.3841,-2.4316,-2.497,-2.5469,-2.5243,-2.3824,-2.2305,-2.1851,-1.9968,-1.8311,-1.82,-1.7447,-1.6799,-1.6742,-1.6545,-1.6372,-1.6372,-1.6678,-1.6524,-1.5435,-1.4203,-1.2989,-1.1804,-1.0607,-0.9822,-0.9822,-0.9822,-0.9822,-0.9822,-0.9822,-0.9822,-0.9822,-0.9822,-0.9822,-0.9822,-0.9822,-0.9822,-0.9822,-1.0607,-1.1269,-1.1752,-1.4376,-1.6048,-1.6826,-1.7303,-1.7485,-1.7485,-1.7485,-1.7485,-1.7485,-1.7485,-1.7485,-1.7485,-1.7485,-1.7485,-1.7485,-1.7485,-1.7485,-1.7485,0.0,0.0,0.0,0.0,0.0,0.0,0.0,0.0,0.0,0.0,0.0,0.0,0.0,0.0,0.0,0.0,0.0,0.0,0.0,0.0,0.0,-2.4534,-2.457,-2.4579,-2.4579,-2.485,-2.4841,-2.4579,-2.5483,-2.5824,-2.5558,-2.6172,-2.6527,-2.6527,-2.6527,-2.6527,-2.6527,-2.6527,-2.6298,-2.5984,-2.5984,-2.5754,-2.5424,-2.5405,0.0,0.0,0.0,0.0,0.0,0.0,0.0,0.0,0.0,0.0,0.0,0.0,0.0,-2.3852,-2.4854,-2.5344,-2.5335,-2.4574,-2.3648,-2.2636,-2.1509,-2.0026,-1.8758,-1.8396,-1.766,-1.6948,-1.6643,-1.6165,-1.5778,-1.5778,-1.5857,-1.5614,-1.4914,-1.3718,-1.2559,-1.1912,-1.0607,-0.9822,-0.9822,-0.9822,-0.9822,-0.9822,-0.9822,-0.9822,-0.9822,-0.9822,-0.9822,-0.9822,-0.9822,-0.9822,-0.9822,-0.9822,-1.0425,-1.1752,-1.4262,-1.5515,-1.5634,-1.6944,-1.7485,-1.7485,-1.7485,-1.7485,-1.7485,-1.7485,-1.7485,-1.7485,-1.7485,-1.7485,-1.7485,-1.7485,-1.7485,-1.7485,0.0,0.0,0.0,0.0,0.0,0.0,0.0,0.0,0.0,0.0,0.0,0.0,0.0,0.0,0.0,0.0,0.0,0.0,0.0,0.0,0.0,0.0,0.0,0.0,0.0,0.0,0.0,0.0,0.0,-2.4941,-2.4888,-2.5039,-2.5199,-2.542,-2.542,-2.5525,-2.5683,-2.5683,-2.5672,-2.5571,0.0,-2.5515,-2.5387,0.0,0.0,0.0,0.0,0.0,0.0,0.0,0.0,0.0,0.0,-2.4793,-2.4708,0.0,-2.5104,-2.5376,-2.5379,-2.5649,-2.5837,-2.5432,-2.3824,-2.2248,-2.1964,-2.0134,-1.83,-1.7578,-1.6921,-1.628,-1.5579,-1.5642,-1.5778,-1.5778,-1.6499,-1.7007,-1.6839,-1.4888,-1.3425,-1.3241,-1.1205,-0.9822,-0.9822,-0.9822,-0.9822,-0.9822,-0.9822,-0.9822,-0.9822,-0.9822,-0.9822,-0.9822,-0.9822,-0.9822,-0.9822,-0.9822,-1.0425,-1.1692,-1.3366,-1.4679,-1.5634,-1.6944,-1.7485,-1.7485,-1.7485,-1.7485,-1.7485,-1.7485,-1.7485,-1.7485,-1.7485,-1.7485,-1.7485,-1.7485,-1.7485,-1.7485,0.0,0.0,0.0,0.0,0.0,0.0,0.0,0.0,0.0,0.0,0.0,0.0,0.0,0.0,0.0,0.0,0.0,0.0,0.0,0.0,0.0,0.0,0.0,0.0,0.0,0.0,0.0,0.0,0.0,0.0,0.0,-2.4551,-2.4788,-2.4841,-2.4954,-2.505,-2.5206,-2.5372,0.0,0.0,0.0,0.0,0.0,0.0,0.0,0.0,0.0,0.0,0.0,0.0,0.0,-2.5078,-2.535,-2.5267,-2.5086,-2.5372,0.0,-2.5451,-2.5586,-2.5846,-2.6072,-2.5898,-2.4556,-2.3215,-2.3054,-2.1166,-1.9172,-1.8364,-1.7192,-1.6133,-1.549,-1.541,-1.5445,-1.5445,-1.6171,-1.6825,-1.7117,-1.4943,-1.3387,-1.3655,-1.1382,-0.9822,-0.9822,-0.9822,-0.9822,-0.9822,-0.9822,-0.9822,-0.9822,-0.9822,-0.9822,-0.9822,-0.9822,-0.9822,-0.9822,-0.9822,-1.0183,-1.0906,-1.2766,-1.4083,-1.4857,-1.6644,-1.7485,-1.7485,-1.7485,-1.7485,-1.7485,-1.7485,-1.7485,-1.7485,-1.7485,-1.7485,-1.7485,-1.7485,-1.7485,-1.7485,0.0,0.0,0.0,0.0,0.0,0.0,0.0,0.0,0.0,0.0,0.0,0.0,0.0,0.0,0.0,0.0,0.0,0.0,0.0,0.0,0.0,0.0,0.0,0.0,0.0,0.0,0.0,0.0,0.0,0.0,0.0,0.0,0.0,0.0,0.0,0.0,0.0,0.0,0.0,0.0,0.0,0.0,0.0,0.0,0.0,0.0,0.0,0.0,0.0,0.0,-2.546,-2.5506,-2.5561,-2.5265,-2.4968,-2.5469,-2.5335,-2.5073,-2.5645,-2.6017,-2.6181,-2.6181,-2.5459,-2.4675,-2.4282,-2.2442,-2.0526,-1.96,-1.7795,-1.6278,-1.5762,-1.528,-1.5027,-1.5116,-1.5552,-1.6148,-1.6696,-1.4739,-1.3285,-1.3646,-1.1563,-1.0001,-0.9822,-0.9822,-0.9822,-0.9822,-0.9822,-0.9822,-0.9822,-0.9822,-0.9822,-0.9822,-0.9822,-0.9822,-0.9822,-0.9822,-0.9822,-0.9819,-1.2466,-1.3725,-1.3784,-1.6349,-1.7485,-1.7485,-1.7485,-1.7485,-1.7485,-1.7485,-1.7485,-1.7485,-1.7485,-1.7485,-1.7485,-1.7485,-1.7485,-1.7485,0.0,0.0,0.0,0.0,0.0,0.0,0.0,0.0,0.0,0.0,-3.1655,-3.0979,0.0,0.0,0.0,0.0,0.0,0.0,0.0,0.0,0.0,0.0,0.0,0.0,0.0,0.0,0.0,0.0,-2.3267,0.0,0.0,0.0,0.0,0.0,0.0,0.0,0.0,0.0,0.0,0.0,0.0,0.0,0.0,0.0,0.0,0.0,0.0,0.0,0.0,0.0,-2.5644,-2.5975,-2.627,-2.6326,-2.6281,-2.6408,-2.6318,-2.6327,-2.64,-2.6473,-2.6527,-2.6527,-2.5624,-2.4675,-2.4282,-2.2771,-2.084,-1.8713,-1.7603,-1.6544,-1.4831,-1.4784,-1.5138,-1.5569,-1.6153,-1.6766,-1.7259,-1.6046,-1.4757,-1.3839,-1.235,-1.0967,-0.9883,-0.9822,-0.9822,-0.9822,-0.9822,-0.9822,-0.9822,-0.9822,-0.9822,-0.9822,-0.9822,-0.9822,-0.9822,-0.9822,-0.9822,-0.9819,-1.2466,-1.3725,-1.3784,-1.6349,-1.7485,-1.7485,-1.7485,-1.7485,-1.7485,-1.7485,-1.7485,-1.7485,-1.7485,-1.7485,-1.7485,-1.7485,-1.7485,-1.7485,0.0,0.0,0.0,0.0,0.0,0.0,0.0,-3.1924,-3.2015,-3.2015,-3.2026,-3.1735,-3.0761,-2.929,0.0,0.0,0.0,0.0,0.0,0.0,0.0,0.0,0.0,0.0,0.0,-2.2996,-2.3046,-2.3197,0.0,-2.2946,-2.2795,-2.2795,-2.2795,-2.2795,-2.3046,0.0,0.0,0.0,0.0,0.0,0.0,0.0,0.0,0.0,0.0,0.0,0.0,0.0,0.0,0.0,-2.5515,-2.6085,-2.6454,-2.6591,-2.6591,-2.6591,-2.6591,-2.6591,-2.6591,-2.6591,-2.6537,-2.6364,-2.5907,-2.5237,-2.4373,-2.2606,-2.0728,-1.9003,-1.7235,-1.5773,-1.4795,-1.4805,-1.5055,-1.5339,-1.6136,-1.6783,-1.7024,-1.6211,-1.5154,-1.3844,-1.253,-1.1209,-0.994,-0.9822,-0.9822,-0.9822,-0.9822,-0.9822,-0.9822,-0.9822,-0.9822,-0.9822,-0.9822,-0.9822,-0.9822,-0.9822,-1.0122,-1.0785,-1.2766,-1.4023,-1.4738,-1.6649,-1.7485,-1.7485,-1.7485,-1.7485,-1.7485,-1.7485,-1.7485,-1.7485,-1.7485,-1.7485,-1.7485,-1.7485,-1.7485,-1.7485,0.0,0.0,0.0,0.0,0.0,0.0,0.0,-3.1975,-3.2128,-3.2128,-3.2179,-3.2128,-3.1863,-3.0047,-2.8529,0.0,0.0,0.0,0.0,0.0,0.0,0.0,0.0,0.0,0.0,0.0,0.0,-2.3097,-2.3046,0.0,0.0,0.0,0.0,0.0,-2.2896,-2.3046,-2.3097,0.0,0.0,0.0,0.0,-2.4202,0.0,0.0,0.0,0.0,0.0,0.0,0.0,0.0,-2.5197,-2.5837,-2.6197,-2.6389,-2.6454,-2.6454,-2.6454,-2.6472,-2.6564,-2.6591,-2.6537,-2.6245,-2.6127,-2.5756,-2.4474,-2.2507,-2.0588,-1.93,-1.6975,-1.5143,-1.488,-1.4815,-1.485,-1.4955,-1.5738,-1.6441,-1.6667,-1.6209,-1.5397,-1.4257,-1.2946,-1.1627,-1.0304,-0.9943,-0.9822,-0.9822,-0.9822,-0.9822,-0.9822,-0.9822,-0.9822,-0.9822,-0.9822,-0.9822,-0.9822,-0.9822,-1.0304,-1.1329,-1.2946,-1.4202,-1.5273,-1.6767,-1.7485,-1.7485,-1.7485,-1.7485,-1.7485,-1.7485,-1.7485,-1.7485,-1.7485,-1.7485,-1.7485,-1.7485,-1.7485,-1.7485,0.0,0.0,0.0,0.0,0.0,0.0,0.0,-3.2443,-3.2443,-3.2443,-3.1812,-3.1289,-3.1289,-3.0151,-2.8499,0.0,0.0,0.0,0.0,0.0,0.0,0.0,0.0,0.0,0.0,0.0,0.0,-2.3347,-2.3097,0.0,0.0,0.0,0.0,0.0,0.0,-2.3147,-2.3397,-2.3696,0.0,0.0,0.0,0.0,0.0,0.0,0.0,0.0,0.0,0.0,0.0,0.0,0.0,-2.4959,-2.5362,-2.5782,-2.6067,-2.6067,0.0,0.0,-2.6481,-2.6591,-2.6582,-2.6537,-2.6354,-2.5811,-2.4809,-2.2986,-2.0941,-1.8905,-1.7061,-1.55,-1.4455,-1.4267,-1.4451,-1.4927,-1.511,-1.5523,-1.6556,-1.6639,-1.6333,-1.5548,-1.4321,-1.3006,-1.1631,-1.0486,-0.9822,-0.9822,-0.9822,-0.9822,-0.9822,-0.9822,-0.9822,-0.9822,-0.9822,-0.9822,-0.9822,-0.9822,-0.9883,-1.0001,-1.2526,-1.3784,-1.3963,-1.6408,-1.7485,-1.7485,-1.7485,-1.7485,-1.7485,-1.7485,-1.7485,-1.7485,-1.7485,-1.7485,-1.7485,-1.7485,-1.7485,-1.7485,0.0,0.0,0.0,0.0,0.0,0.0,-3.2443,-3.2656,-3.2505,-3.1812,-3.1545,-3.0908,-2.9545,-2.8976,-2.8232,0.0,0.0,0.0,0.0,0.0,0.0,0.0,0.0,0.0,0.0,0.0,-2.2795,-2.2896,-2.2795,0.0,0.0,0.0,0.0,0.0,0.0,-2.3046,-2.3197,-2.3596,0.0,0.0,0.0,0.0,0.0,0.0,0.0,0.0,0.0,0.0,-2.4229,-2.4395,0.0,0.0,-2.4716,-2.4973,0.0,0.0,-2.6012,-2.6104,-2.6472,-2.6591,-2.6527,-2.6354,-2.601,-2.5469,-2.4536,0.0,-2.0703,-1.881,-1.7055,-1.5547,-1.4401,-1.4196,-1.4277,-1.4473,-1.4762,0.0,-1.5619,-1.5948,-1.5903,-1.5152,-1.4593,-1.3937,-1.2993,-1.2466,-1.1804,-1.1027,-1.0243,-0.9822,-0.9822,-0.9822,-0.9822,-0.9822,-0.9822,-0.9822,-0.9822,-0.9822,-1.0604,-1.2165,-1.3181,-1.45,-1.6048,-1.7062,-1.7485,-1.7485,-1.7485,-1.7485,-1.7485,-1.7485,-1.7485,-1.7485,-1.7485,-1.7485,-1.7485,-1.7485,-1.7485,-1.7485,0.0,0.0,0.0,0.0,0.0,-3.2392,-3.2128,-3.2302,-3.1986,-3.0877,-3.065,-3.0005,-2.8382,-2.7912,-2.7653,-2.7438,-2.6427,0.0,0.0,0.0,0.0,0.0,0.0,0.0,0.0,0.0,-2.2594,-2.2594,-2.2594,-2.2594,0.0,0.0,-2.2594,-2.2603,0.0,0.0,0.0,0.0,0.0,0.0,0.0,0.0,0.0,0.0,0.0,0.0,0.0,0.0,0.0,0.0,0.0,0.0,0.0,0.0,0.0,0.0,-2.5745,-2.5929,-2.6289,-2.649,-2.6527,-2.63,-2.5892,-2.5219,-2.4228,0.0,-2.0445,-1.8534,-1.6956,-1.5547,-1.4401,-1.4196,-1.4196,0.0,0.0,-1.4828,-1.5005,-1.5333,-1.5417,-1.5085,-1.4709,-1.4334,-1.4025,-1.3806,-1.3306,-1.235,-1.1088,-1.0365,-1.0365,-1.0001,-0.9822,-0.9822,-0.9822,-0.9822,-0.9822,-0.9822,-1.0725,-1.2526,-1.2946,-1.4262,-1.6408,-1.6767,-1.712,-1.7485,-1.7485,-1.7485,-1.7485,-1.7485,-1.7485,-1.7485,-1.7485,-1.7485,-1.7485,-1.7485,-1.7485,-1.7485,0.0,0.0,0.0,0.0,0.0,0.0,-3.1341,-3.1238,-3.0815,-2.9681,-2.8764,-2.8223,-2.8223,-2.7251,-2.6646,-2.6591,-2.63,0.0,0.0,0.0,0.0,0.0,0.0,0.0,0.0,0.0,-2.2594,-2.2594,-2.2594,-2.2594,-2.2594,-2.2594,-2.2594,-2.2594,0.0,0.0,0.0,0.0,0.0,0.0,0.0,0.0,0.0,0.0,0.0,0.0,0.0,0.0,0.0,0.0,0.0,0.0,0.0,0.0,0.0,0.0,-2.5069,-2.5515,-2.5911,-2.6324,-2.6591,-2.6591,-2.6063,-2.5165,0.0,0.0,-2.034,-1.8083,-1.6704,-1.5547,-1.4401,-1.4196,-1.4196,-1.4196,-1.4196,0.0,-1.4933,-1.5021,-1.5221,-1.5755,-1.47,-1.41,-1.4613,-1.4074,-1.3665,-1.3665,-1.241,-1.1692,-1.1692,-1.0486,-0.9822,-0.9822,-0.9822,-0.9822,-0.9822,-0.9822,-0.9822,-0.9883,-1.1148,-1.241,-1.3784,-1.5035,-1.629,-1.7485,-1.7485,-1.7485,-1.7485,-1.7485,-1.7485,-1.7485,-1.7485,-1.7485,-1.7485,-1.7485,-1.7485,-1.7485,0.0,0.0,0.0,0.0,0.0,0.0,0.0,-3.1472,-3.0794,-2.886,-2.8392,-2.7912,-2.7206,-2.6791,-2.6591,-2.6591,-2.6473,0.0,0.0,0.0,0.0,0.0,0.0,0.0,0.0,0.0,-2.2594,-2.2594,-2.2594,-2.2594,-2.2594,-2.2594,-2.2695,-2.2896,-2.3046,-2.3347,0.0,0.0,0.0,0.0,0.0,0.0,-2.4202,0.0,0.0,0.0,0.0,0.0,0.0,0.0,0.0,0.0,0.0,0.0,0.0,0.0,0.0,0.0,-2.5506,-2.5708,-2.5757,-2.5757,-2.5079,-2.433,-2.3938,0.0,-2.0857,-1.8596,-1.7588,-1.6499,-1.4563,-1.4196,-1.4196,-1.4196,-1.4196,-1.4272,-1.4451,-1.4757,-1.5216,-1.5749,-1.6138,-1.6437,-1.6576,-1.5644,-1.4976,-1.4976,-1.3784,-1.2651,-1.1752,-1.1329,-1.0725,-0.9819,-0.9822,-0.9822,-0.9822,-0.9822,-1.0243,-1.1088,-1.247,-1.3725,-1.5035,-1.6349,-1.7126,-1.7485,-1.7485,-1.7485,-1.7485,-1.7485,-1.7485,-1.7485,-1.7485,-1.7485,-1.7485,-1.7485,-1.7485,-1.7485,0.0,0.0,0.0,0.0,0.0,0.0,0.0,-3.0317,-2.964,-2.7824,-2.7618,-2.7359,-2.6691,-2.6591,-2.6591,-2.6591,-2.6591,0.0,0.0,0.0,0.0,0.0,0.0,0.0,0.0,-2.2671,-2.2594,-2.2594,-2.2594,-2.2594,-2.2594,-2.2695,-2.2846,-2.2996,-2.3147,-2.3397,0.0,0.0,0.0,0.0,0.0,0.0,-2.4202,0.0,0.0,0.0,0.0,0.0,0.0,0.0,0.0,0.0,0.0,0.0,0.0,0.0,-2.4385,0.0,0.0,-2.5262,-2.5424,-2.5424,-2.4648,0.0,0.0,0.0,-2.0349,-1.7941,-1.7167,-1.6393,-1.4563,-1.4196,-1.4196,-1.4196,-1.4196,-1.4277,-1.4467,-1.4762,-1.5216,-1.5749,-1.6603,-1.7211,-1.7211,-1.6651,-1.6349,-1.6349,-1.5154,-1.3844,-1.253,-1.1989,-1.1148,-0.9819,-0.9822,-0.9822,-0.9822,-0.9822,-1.0183,-1.1027,-1.235,-1.3605,-1.4917,-1.6225,-1.7062,-1.7485,-1.7485,-1.7485,0.0,-1.7485,-1.7485,-1.7485,-1.7485,-1.7485,-1.7485,-1.7485,-1.7485,-1.7485,0.0,0.0,0.0,0.0,0.0,0.0,0.0,-2.8223,-2.7814,-2.6745,-2.6591,-2.6591,-2.6591,-2.6591,-2.6591,-2.6591,0.0,0.0,0.0,0.0,0.0,0.0,0.0,0.0,-2.3117,-2.2766,-2.2628,-2.2594,-2.2594,-2.2594,-2.2603,-2.2846,-2.2996,-2.2996,-2.2996,-2.3147,0.0,0.0,0.0,0.0,0.0,0.0,0.0,0.0,0.0,0.0,0.0,0.0,0.0,0.0,0.0,0.0,0.0,0.0,0.0,0.0,0.0,0.0,0.0,-2.5056,-2.5289,-2.5289,-2.4584,-2.3418,-2.1823,0.0,0.0,-1.6486,-1.5914,-1.5547,-1.4401,-1.4196,-1.4196,-1.4196,-1.4196,-1.438,-1.4933,-1.5049,-1.5327,-1.5857,-1.6446,-1.6766,-1.6766,-1.7223,-1.7485,-1.7485,-1.6408,-1.5154,-1.3904,-1.259,-1.1269,-1.0001,-0.9822,-0.9822,-0.9822,-0.9822,-0.9822,-0.9822,-1.1088,-1.235,-1.3605,-1.4976,-1.6231,-1.7361,-1.7479,-1.7485,-1.7485,-1.7485,-1.7485,-1.7485,-1.7485,-1.7485,-1.7485,-1.7485,-1.7485,-1.7485,0.0,0.0,0.0,0.0,0.0,0.0,0.0,0.0,0.0,0.0,-2.6591,-2.6591,-2.6591,-2.6591,-2.6591,0.0,0.0,0.0,0.0,0.0,0.0,0.0,0.0,0.0,-2.3126,-2.3023,-2.2843,-2.2594,-2.2594,-2.2594,-2.2594,-2.2644,-2.2795,-2.2996,-2.2996,-2.3247,0.0,0.0,0.0,0.0,0.0,0.0,0.0,0.0,0.0,0.0,-2.4202,-2.4202,0.0,0.0,0.0,0.0,0.0,0.0,0.0,0.0,-2.4202,0.0,-2.4321,0.0,-2.4486,-2.4486,-2.3953,-2.3009,0.0,0.0,0.0,-1.6486,-1.5914,-1.5547,-1.4401,-1.4196,-1.4196,-1.4196,-1.4196,-1.438,-1.4933,-1.5738,-1.6482,-1.7029,-1.7235,-1.733,-1.733,-1.7449,-1.7485,-1.7485,-1.7244,-1.6526,-1.5213,-1.3904,-1.2646,-1.1329,-1.0304,-0.9822,-0.9822,-0.9822,-0.9822,-0.9822,-1.1088,-1.1872,-1.223,-1.456,-1.5752,-1.6107,-1.7062,-1.7485,-1.7485,-1.7485,-1.7485,-1.7485,-1.7485,-1.7485,-1.7485,-1.7485,-1.7485,-1.7485,0.0,0.0,0.0,0.0,0.0,0.0,0.0,0.0,0.0,0.0,0.0,0.0,0.0,0.0,0.0,0.0,0.0,0.0,0.0,0.0,0.0,0.0,0.0,-2.4134,-2.3391,-2.3203,-2.2929,-2.2594,-2.2594,-2.2594,-2.2594,-2.2745,-2.2846,-2.2996,-2.3147,-2.3197,0.0,0.0,0.0,0.0,-2.4102,0.0,0.0,0.0,0.0,0.0,-2.4202,-2.4202,0.0,-2.4202,-2.4202,-2.4202,0.0,0.0,0.0,0.0,-2.4202,-2.4202,-2.4202,-2.4202,-2.4202,-2.4202,-2.317,-2.1819,-2.042,0.0,0.0,0.0,-1.5131,-1.4922,-1.4299,-1.4196,-1.4196,-1.4196,-1.4386,-1.4751,-1.5266,-1.5925,-1.6482,-1.7093,-1.7123,-1.7229,-1.7473,-1.7485,-1.7485,-1.7485,-1.7485,-1.6944,-1.5693,-1.4381,-1.3066,-1.1752,-1.0486,-0.9822,-0.9822,-0.9822,-0.9822,-0.9822,-1.1088,-1.1692,-1.1812,-1.4441,-1.5575,-1.5693,-1.6944,-1.7485,-1.7485,-1.7485,-1.7485,-1.7485,-1.7485,-1.7485,-1.7485,-1.7485,-1.7485,-1.7485,0.0,0.0,0.0,0.0,0.0,0.0,0.0,0.0,0.0,0.0,0.0,0.0,0.0,0.0,0.0,0.0,0.0,0.0,0.0,0.0,0.0,0.0,0.0,-2.4153,-2.3794,-2.34,-2.3014,-2.268,-2.2628,-2.2594,-2.2594,-2.2846,-2.2946,-2.2946,-2.3197,-2.3046,0.0,0.0,-2.3646,-2.3546,-2.4003,0.0,0.0,0.0,0.0,0.0,0.0,0.0,0.0,-2.4202,-2.4202,-2.4202,-2.4202,0.0,0.0,0.0,0.0,0.0,-2.4202,-2.4248,-2.4235,-2.4112,-2.2652,-2.0888,-1.9428,0.0,0.0,0.0,-1.4196,-1.4196,-1.4196,-1.4196,-1.4196,-1.4196,-1.4735,-1.5327,-1.5857,-1.6039,-1.6262,-1.6771,-1.6801,-1.7,-1.7461,-1.7485,-1.7485,-1.7485,-1.7485,-1.7003,-1.593,-1.4679,-1.3366,-1.2049,-1.0785,-1.0001,-0.9822,-0.9822,-0.9822,-0.9822,-1.0906,-1.139,-1.1511,-1.4138,-1.5332,-1.5391,-1.6885,-1.7485,-1.7485,-1.7485,-1.7485,-1.7485,-1.7485,-1.7485,-1.7485,-1.7485,-1.7485,-1.7485,0.0,0.0,0.0,0.0,0.0,0.0,0.0,0.0,0.0,0.0,0.0,0.0,0.0,0.0,0.0,0.0,0.0,0.0,0.0,0.0,0.0,0.0,-2.4761,-2.4547,-2.4108,-2.3776,-2.34,-2.3032,-2.2757,-2.2594,-2.2594,-2.2644,-2.2644,-2.2644,-2.2695,-2.2946,-2.3297,-2.3406,-2.3696,-2.4102,-2.4152,0.0,0.0,0.0,0.0,0.0,0.0,0.0,0.0,-2.4202,-2.4202,-2.4202,-2.4202,0.0,0.0,0.0,0.0,0.0,-2.4202,-2.4468,-2.4491,-2.3668,-2.317,-2.2139,-1.9184,-1.8248,0.0,0.0,0.0,-1.4196,-1.4196,-1.4196,-1.4196,-1.4196,-1.5044,-1.5868,-1.647,-1.6924,-1.7253,-1.736,-1.736,-1.7436,-1.7479,-1.7485,-1.7485,-1.7485,-1.7485,-1.742,-1.7244,-1.5989,-1.4738,-1.3426,-1.2109,-1.0906,-0.9822,-0.9822,-0.9822,-0.9822,-1.0001,-1.0061,-1.0183,-1.2822,-1.3963,-1.4143,-1.6467,-1.7485,-1.7485,-1.7485,-1.7485,-1.7485,-1.7485,-1.7485,-1.7485,-1.7485,-1.7485,-1.7485,0.0,0.0,0.0,0.0,0.0,0.0,0.0,0.0,0.0,0.0,0.0,0.0,0.0,0.0,0.0,0.0,0.0,0.0,0.0,0.0,0.0,-2.4821,-2.4821,-2.4633,-2.4185,-2.4059,-2.3691,-2.3117,-2.2937,-2.28,-2.2594,-2.2594,-2.2695,-2.2795,-2.2795,-2.3046,-2.3406,-2.3546,-2.3755,-2.4003,0.0,0.0,0.0,0.0,0.0,0.0,0.0,0.0,0.0,0.0,-2.4202,-2.4202,-2.4202,0.0,0.0,0.0,0.0,0.0,-2.3795,-2.3831,-2.3833,-2.3141,-2.2869,-2.2193,-1.9923,-1.8649,-1.7376,-1.5095,-1.4642,-1.4554,-1.4272,-1.4456,-1.4839,-1.5439,-1.567,-1.6039,-1.6643,-1.6603,-1.6696,-1.7018,-1.7093,-1.7205,-1.7467,-1.7485,-1.7485,-1.7485,-1.7485,-1.7485,-1.7485,-1.629,-1.5035,-1.3725,-1.241,-1.1088,-0.9822,-0.9822,-0.9822,-0.9822,-0.9822,-0.9822,-0.9883,-1.1748,-1.3006,-1.3784,-1.5693,-1.6885,-1.7485,-1.7485,-1.7485,-1.7485,-1.7485,-1.7485,-1.7485,-1.7485,-1.7485,-1.7485,0.0,0.0,0.0,0.0,0.0,0.0,0.0,0.0,0.0,0.0,0.0,0.0,0.0,0.0,0.0,0.0,0.0,0.0,0.0,0.0,-2.5017,-2.4821,-2.4821,-2.4675,-2.4376,-2.4227,-2.3894,-2.3374,-2.3203,-2.2972,-2.2695,-2.2695,-2.2846,-2.3097,-2.3097,-2.3247,-2.3506,-2.3696,-2.3854,-2.3895,0.0,0.0,0.0,0.0,0.0,0.0,0.0,0.0,0.0,0.0,0.0,0.0,0.0,0.0,0.0,-2.4202,-2.4202,-2.4053,-2.3488,-2.335,-2.3298,-2.2834,-2.2498,-2.1855,-2.0352,-1.892,-1.7349,-1.557,-1.5216,-1.5032,-1.4473,-1.4735,-1.5327,-1.6343,-1.6239,-1.6245,-1.6789,-1.6482,-1.6372,-1.6807,-1.6888,-1.7024,-1.7467,-1.7485,-1.7485,-1.7485,-1.7485,-1.7485,-1.7485,-1.6585,-1.5332,-1.3725,-1.2711,-1.139,-0.9822,-0.9822,-0.9822,-0.9822,-0.9822,-0.9822,-0.9822,-1.1148,-1.223,-1.3306,-1.4917,-1.6166,-1.7062,-1.7361,-1.7485,-1.7485,-1.7485,-1.7485,-1.7485,-1.7485,-1.7485,-1.7485,0.0,0.0,0.0,0.0,0.0,0.0,0.0,0.0,0.0,0.0,0.0,0.0,0.0,0.0,0.0,0.0,0.0,0.0,0.0,0.0,-2.4812,-2.4821,-2.4821,-2.4804,-2.4778,-2.4364,-2.415,-2.4099,-2.346,-2.3074,-2.2946,-2.2946,-2.3097,-2.3347,-2.3347,-2.3497,-2.3746,-2.3795,-2.3954,-2.4152,-2.4202,0.0,0.0,0.0,0.0,0.0,0.0,0.0,0.0,0.0,0.0,0.0,0.0,0.0,-2.4202,-2.4202,-2.4202,-2.4053,-2.3488,-2.3553,-2.3692,-2.2902,-2.2193,-2.1346,-1.9784,-1.8877,-1.7831,-1.6089,-1.5749,-1.5563,-1.5038,-1.495,-1.5216,-1.5761,-1.6274,-1.6801,-1.736,-1.7436,-1.7372,-1.7449,-1.7455,-1.7461,-1.7479,-1.7485,-1.7485,-1.7485,-1.7485,-1.7485,-1.7485,-1.742,-1.6225,-1.3784,-1.3605,-1.2346,-0.9819,-0.9822,-0.9822,-0.9822,-0.9822,-0.9822,-0.9822,-1.1148,-1.1752,-1.1993,-1.45,-1.5634,-1.5811,-1.7003,-1.7485,-1.7485,-1.7485,-1.7485,-1.7485,-1.7485,-1.7485,-1.7485,0.0,0.0,0.0,0.0,0.0,0.0,0.0,0.0,0.0,0.0,0.0,0.0,0.0,0.0,0.0,0.0,0.0,0.0,0.0,0.0,-2.4821,-2.4821,-2.4821,-2.4821,-2.4821,-2.4675,-2.4424,-2.4176,-2.3634,-2.3227,-2.2996,-2.2996,-2.3247,-2.3646,-2.3297,-2.3506,-2.4053,-2.3696,-2.3805,-2.4202,-2.4003,-2.4053,0.0,0.0,0.0,0.0,0.0,0.0,0.0,0.0,-2.4202,-2.4202,-2.4202,-2.4202,-2.4202,-2.4202,-2.4202,-2.3994,-2.3079,-2.3225,-2.3427,-2.2451,-2.2032,-2.1478,-2.019,-1.9688,-1.8918,-1.6786,-1.636,-1.6165,-1.5625,-1.5823,-1.613,-1.6343,-1.6807,-1.7247,-1.7467,-1.7485,-1.7485,-1.7485,-1.7485,-1.7485,-1.7485,-1.7485,-1.7485,-1.7485,-1.7485,-1.7485,-1.7485,-1.7485,-1.6349,-1.3784,-1.3725,-1.2466,-0.9819,-0.9822,-0.9822,-0.9822,-0.9822,-0.9822,-0.9822,-1.0304,-1.0967,-1.1812,-1.3605,-1.4857,-1.5693,-1.6944,-1.7485,-1.7485,-1.7485,-1.7485,-1.7485,-1.7485,-1.7485,-1.7485,0.0,0.0,0.0,0.0,0.0,0.0,0.0,0.0,0.0,0.0,0.0,0.0,0.0,0.0,0.0,0.0,0.0,0.0,-2.4821,-2.4821,-2.4821,-2.4821,-2.4821,-2.4812,-2.4923,-2.4923,-2.4739,-2.4364,-2.3921,-2.3555,-2.3281,-2.3208,-2.3356,-2.3805,-2.3397,-2.3605,-2.4152,-2.3705,-2.3755,-2.4053,-2.3845,-2.3904,0.0,0.0,0.0,0.0,0.0,0.0,0.0,0.0,-2.4202,-2.4202,0.0,0.0,-2.4202,-2.4202,-2.4202,-2.3954,-2.2828,-2.2825,-2.2954,-2.2105,-2.1877,-2.1579,-2.0434,-2.0053,-1.9311,-1.7344,-1.6795,-1.6568,-1.6159,-1.6446,-1.6678,-1.6678,-1.7135,-1.7485,-1.7485,-1.7485,-1.7485,-1.7485,-1.7485,-1.7485,-1.7485,-1.7485,-1.7485,-1.7485,-1.7485,-1.7485,-1.7485,-1.7485,-1.6526,-1.4381,-1.3904,-1.2646,-1.0425,-1.0001,-0.9822,-0.9822,-0.9822,-0.9822,-0.9822,-0.9822,-1.0304,-1.1209,-1.2946,-1.4202,-1.5154,-1.6826,-1.7485,-1.7485,-1.7485,-1.7485,-1.7485,-1.7485,-1.7485,-1.7485,0.0,0.0,0.0,0.0,0.0,0.0,0.0,0.0,0.0,0.0,0.0,0.0,0.0,0.0,0.0,0.0,0.0,0.0,-2.4821,-2.4821,-2.4821,-2.4821,-2.4821,-2.4915,-2.5221,-2.5221,-2.5064,-2.4812,-2.431,-2.4061,-2.4001,-2.3592,-2.3555,-2.3805,-2.3805,-2.3954,-2.4202,-2.3904,-2.3805,-2.3805,-2.3805,-2.3805,-2.3845,0.0,0.0,0.0,0.0,0.0,0.0,0.0,-2.4202,0.0,0.0,0.0,0.0,-2.4202,-2.4202,-2.3954,-2.2828,-2.2535,-2.2426,-2.1996,-2.1885,-2.164,-2.0489,-1.966,-1.8896,-1.772,-1.7099,-1.6684,-1.6678,-1.6684,-1.6684,-1.6678,-1.7135,-1.7485,-1.7485,-1.7485,-1.7485,-1.7485,-1.7485,-1.7485,-1.7485,-1.7485,-1.7485,-1.7485,-1.7485,-1.7485,-1.7485,-1.7485,-1.6944,-1.5634,-1.4381,-1.3066,-1.1692,-1.0425,-0.9822,-0.9822,-0.9822,-0.9822,-0.9822,-0.9822,-0.9822,-0.994,-1.2582,-1.3725,-1.3904,-1.6467,-1.7485,-1.7485,-1.7485,-1.7485,-1.7485,-1.7485,-1.7485,-1.7485,0.0,0.0,0.0,0.0,0.0,0.0,0.0,0.0,0.0,0.0,0.0,0.0,0.0,0.0,0.0,0.0,0.0,0.0,-2.4821,-2.4821,-2.4868,-2.5072,-2.5072,-2.5238,-2.5569,-2.5569,-2.5272,-2.4746,-2.4557,-2.4272,-2.3941,-2.3826,-2.3865,-2.4053,-2.3904,-2.3854,-2.3904,-2.3646,-2.3655,-2.3805,-2.3596,-2.3755,-2.4102,0.0,0.0,0.0,0.0,0.0,0.0,0.0,0.0,0.0,0.0,0.0,-2.4202,-2.4202,-2.4202,-2.4053,-2.3279,-2.3482,-2.3652,-2.2684,-2.2825,-2.2933,-2.1742,-2.0659,-1.9429,-1.7815,-1.736,-1.7135,-1.6771,-1.7006,-1.7129,-1.6766,-1.7135,-1.7485,-1.7485,-1.7485,-1.7485,-1.7485,-1.7485,-1.7485,-1.7485,-1.7485,-1.7485,-1.7485,-1.7485,-1.7485,-1.7485,-1.7485,-1.6944,-1.5634,-1.4381,-1.3066,-1.1692,-1.0425,-0.9822,-0.9822,-0.9822,-0.9822,-0.9822,-0.9822,-0.9822,-0.994,-1.2582,-1.3725,-1.3904,-1.6467,-1.7485,-1.7485,-1.7485,-1.7485,-1.7485,-1.7485,-1.7485,-1.7485,0.0,0.0,0.0,0.0,0.0,0.0,0.0,0.0,0.0,0.0,-2.6017,-2.6017,0.0,0.0,0.0,0.0,0.0,0.0,0.0,0.0,-2.5017,-2.5165,-2.534,-2.5569,-2.5844,-2.5852,-2.5611,-2.5004,-2.4836,-2.4518,-2.4154,-2.3954,-2.393,-2.4053,-2.3755,-2.3696,-2.3805,-2.3497,-2.3497,-2.3646,-2.3596,-2.3746,-2.4053,0.0,0.0,0.0,0.0,0.0,0.0,0.0,0.0,0.0,0.0,0.0,-2.4202,-2.4202,-2.4202,-2.4089,-2.3684,-2.3812,-2.3983,-2.344,-2.3584,-2.3439,-2.1942,-2.069,-1.9398,-1.7793,-1.7485,-1.7372,-1.7099,-1.7259,-1.7372,-1.7093,-1.7318,-1.7485,-1.7485,-1.7485,-1.7485,-1.7485,-1.7485,-1.7485,-1.7485,-1.7485,-1.7485,-1.7485,-1.7485,-1.7485,-1.7485,-1.7485,-1.7126,-1.6408,-1.4619,-1.3306,-1.253,-1.0725,-0.9822,-0.9822,-0.9822,-0.9822,-0.9822,-0.9822,-0.9822,-0.994,-1.2582,-1.3963,-1.4619,-1.6644,-1.7485,-1.7485,-1.7485,-1.7485,-1.7485,-1.7485,-1.7485,-1.7485,0.0,0.0,0.0,0.0,0.0,0.0,0.0,0.0,0.0,0.0,-2.5962,-2.6017,0.0,0.0,0.0,0.0,0.0,0.0,0.0,0.0,-2.5284,-2.5276,-2.5624,-2.5907,-2.6127,-2.6091,-2.5901,-2.5496,-2.5118,-2.4788,-2.449,-2.4032,-2.3782,-2.3805,-2.3497,-2.3497,-2.3696,-2.3497,-2.3397,-2.3397,-2.3696,-2.3795,-2.3854,-2.4102,0.0,0.0,0.0,0.0,0.0,0.0,0.0,0.0,-2.4202,-2.4202,-2.4202,-2.4202,-2.4229,-2.419,-2.4047,-2.384,-2.3748,-2.4238,-2.411,-2.3373,-2.1518,-2.0228,-1.9087,-1.7772,-1.7485,-1.7485,-1.7485,-1.7485,-1.7485,-1.7485,-1.7485,-1.7485,-1.7485,-1.7485,-1.7485,-1.7485,-1.7485,-1.7485,-1.7485,-1.7485,-1.7485,-1.7485,-1.7485,-1.7485,-1.7485,-1.7485,-1.7485,-1.7485,-1.5035,-1.3725,-1.3725,-1.1084,-0.9822,-0.9822,-0.9822,-0.9822,-0.9822,-0.9822,-0.994,-1.0304,-1.2646,-1.45,-1.5871,-1.7003,-1.7485,-1.7485,-1.7485,-1.7485,-1.7485,-1.7485,-1.7485,-1.7485,0.0,0.0,0.0,0.0,0.0,0.0,0.0,0.0,0.0,0.0,0.0,0.0,0.0,0.0,0.0,0.0,0.0,0.0,0.0,0.0,-2.5679,-2.5898,-2.6245,-2.6418,-2.6473,-2.6198,-2.5836,-2.5496,-2.5183,-2.4826,-2.4313,-2.4041,-2.3851,-2.3805,-2.3497,-2.3297,-2.3197,-2.3347,-2.3397,-2.3397,-2.3696,-2.3954,-2.4102,-2.4202,-2.4202,0.0,0.0,0.0,0.0,0.0,0.0,0.0,-2.4202,-2.4202,-2.4202,-2.4202,-2.444,-2.4666,-2.4596,-2.4663,-2.4792,-2.4915,-2.4752,-2.3972,-2.1628,-2.0902,-2.0106,-1.7941,-1.7485,-1.7485,-1.7485,-1.7485,-1.7485,-1.7485,-1.7485,-1.7485,-1.7485,-1.7485,-1.7485,-1.7485,-1.7485,-1.7485,-1.7485,-1.7485,-1.7485,-1.7485,-1.7485,-1.7485,-1.7485,-1.7485,-1.7485,-1.7485,-1.5035,-1.3725,-1.3725,-1.1084,-0.9822,-0.9822,-0.9822,-0.9822,-0.9822,-0.9822,-1.0902,-1.2886,-1.3485,-1.4976,-1.712,-1.7361,-1.7485,-1.7485,-1.7485,-1.7485,-1.7485,-1.7485,-1.7485,-1.7485,0.0,0.0,0.0,0.0,0.0,0.0,0.0,0.0,0.0,0.0,0.0,0.0,0.0,0.0,0.0,0.0,0.0,0.0,0.0,0.0,0.0,-2.6354,-2.6527,-2.649,-2.6342,-2.6122,-2.5669,-2.4981,-2.4981,-2.4661,-2.4086,-2.3949,-2.3743,-2.3596,-2.3347,-2.3197,-2.3197,-2.3347,-2.3447,-2.3596,-2.3904,-2.4102,-2.4202,-2.4202,-2.4202,-2.4202,-2.4202,0.0,0.0,0.0,0.0,0.0,0.0,0.0,-2.4202,-2.4202,-2.4358,-2.4615,-2.4959,-2.4945,-2.4863,-2.4918,-2.4896,-2.4303,-2.2451,-2.1529,-2.0558,-1.8745,-1.7883,-1.7485,-1.7485,-1.7485,-1.7485,-1.7485,-1.7485,-1.7485,-1.7485,-1.8,-1.8175,-1.7596,-1.8,-1.8117,-1.7543,-1.7485,-1.7485,-1.7485,-1.7485,-1.7485,-1.7485,-1.7485,-1.7485,-1.7485,-1.5035,-1.3725,-1.3725,-1.1084,-0.9822,-0.9822,-0.9822,-0.9822,-0.9822,-0.9822,-1.0543,-1.1924,-1.3186,-1.4441,-1.5752,-1.7003,-1.7485,-1.7485,-1.7485,-1.7485,-1.7485,-1.7485,-1.7485,-1.7485,0.0,0.0,0.0,0.0,0.0,0.0,0.0,0.0,0.0,0.0,0.0,0.0,0.0,0.0,0.0,0.0,0.0,0.0,0.0,0.0,0.0,0.0,-2.6417,-2.6243,-2.6021,-2.5874,-2.5331,-2.4419,-2.4559,-2.4302,-2.3724,-2.3758,-2.3605,-2.3297,-2.3097,-2.3097,-2.3347,-2.3456,-2.3596,-2.3805,-2.4102,-2.4202,-2.4202,-2.4093,-2.4044,-2.4053,-2.3945,-2.3895,-2.3845,-2.3429,0.0,0.0,0.0,0.0,-2.3895,-2.3994,-2.4049,-2.4199,-2.4924,-2.4884,-2.4624,-2.476,-2.4821,-2.447,-2.3263,-2.1991,-2.0787,-1.955,-1.8344,-1.7485,-1.7485,-1.7485,-1.7485,-1.7485,-1.7485,-1.7485,-1.7485,-1.8519,-1.8919,-1.7941,-1.8693,-1.8919,-1.7883,-1.7596,-1.7485,-1.7485,-1.7485,-1.7485,-1.7485,-1.7485,-1.7485,-1.7485,-1.5035,-1.3725,-1.3725,-1.1084,-0.9822,-0.9822,-0.9822,-0.9822,-0.9822,-0.9822,-0.994,-1.0243,-1.2646,-1.3844,-1.4202,-1.6526,-1.7485,-1.7485,-1.7485,-1.7485,-1.7485,-1.7485,-1.7485,-1.7485,0.0,0.0,0.0,0.0,0.0,0.0,0.0,0.0,0.0,0.0,-2.5688,-2.5688,0.0,0.0,0.0,0.0,0.0,0.0,0.0,0.0,0.0,-2.6076,-2.5773,-2.5718,-2.6002,-2.5341,-2.4783,-2.4419,-2.4108,-2.3627,-2.3125,-2.3323,-2.3297,-2.3046,-2.2996,-2.2996,-2.3097,-2.3555,-2.3755,-2.3805,-2.4102,-2.4202,-2.4152,-2.3637,-2.3429,-2.3379,-2.2878,-2.2728,-2.2778,-2.3179,-2.3029,0.0,0.0,0.0,-2.2828,-2.3279,-2.3358,-2.3391,-2.3925,-2.4561,-2.4976,-2.4829,-2.4821,-2.447,-2.3263,-2.1991,-2.0787,-1.955,-1.8344,-1.7485,-1.7485,-1.7485,-1.7485,-1.7485,-1.7485,-1.7485,-1.7485,-1.8519,-1.9267,-1.9094,-1.921,-1.9267,-1.9094,-1.8117,-1.7485,-1.7485,-1.7485,-1.7485,-1.7485,-1.7485,-1.7485,-1.7485,-1.5035,-1.3725,-1.3725,-1.1084,-0.9822,-0.9822,-0.9822,-0.9822,-0.9822,-0.9822,-1.0425,-1.1511,-1.3066,-1.4321,-1.5456,-1.6885,-1.7485,-1.7485,-1.7485,-1.7485,-1.7485,-1.7485,-1.7485,-1.7485,0.0,0.0,0.0,0.0,0.0,0.0,0.0,0.0,0.0,0.0,0.0,-2.5688,0.0,0.0,0.0,0.0,0.0,0.0,0.0,0.0,0.0,-2.5672,-2.5515,-2.5405,-2.535,-2.4805,-2.4311,-2.3824,-2.3636,-2.3297,-2.2795,-2.3046,-2.3046,-2.2795,-2.2946,-2.3097,-2.3247,-2.3646,-2.3904,-2.4053,-2.4152,-2.3813,-2.3258,-2.3309,-2.2519,-2.1469,-2.1597,-2.121,-2.0633,-2.0582,-2.0998,-2.1633,-2.1785,0.0,0.0,0.0,-2.2789,-2.2911,-2.3618,-2.42,-2.4668,-2.4782,-2.4821,-2.4646,-2.4128,-2.303,-2.182,-2.0565,-1.937,-1.8292,-1.7596,-1.7485,-1.7485,-1.7485,-1.7485,-1.7485,-1.7485,-1.8519,-1.9325,-1.9325,-1.9325,-1.9325,-1.9325,-1.8227,-1.7485,-1.7485,-1.7485,-1.7485,-1.7485,-1.7485,-1.7485,-1.7485,-1.5035,-1.3725,-1.3725,-1.1084,-0.9822,-0.9822,-0.9822,-0.9822,-0.9822,-0.9822,-1.0486,-1.1752,-1.3131,-1.4441,-1.5693,-1.6944,-1.7485,-1.7485,-1.7485,-1.7485,-1.7485,-1.7485,-1.7485,-1.7485,0.0,0.0,0.0,0.0,0.0,0.0,0.0,0.0,0.0,0.0,0.0,0.0,0.0,0.0,0.0,0.0,0.0,0.0,0.0,0.0,0.0,-2.5216,-2.5166,-2.5019,-2.4785,-2.4523,-2.4061,-2.3397,-2.3397,-2.3147,-2.2594,-2.2795,-2.2846,-2.2695,-2.2996,-2.3247,-2.3497,-2.3805,-2.4003,-2.4161,-2.3895,-2.3276,-2.249,-2.2333,-2.1243,-1.9827,-1.9984,-1.9494,-1.8755,-1.8509,-1.9132,-2.0025,-1.9863,-2.0649,0.0,0.0,0.0,-2.2418,-2.3087,-2.3583,-2.4022,-2.4446,-2.4565,-2.4591,-2.474,-2.3896,-2.2628,-2.1358,-2.0113,-1.8919,-1.7713,-1.7485,-1.7485,-1.7485,-1.7485,-1.7485,-1.7485,-1.8519,-1.9325,-1.9325,-1.9325,-1.9325,-1.9325,-1.8227,-1.7485,-1.7485,-1.7485,-1.7485,-1.7485,-1.7485,-1.7485,-1.7485,-1.5332,-1.4202,-1.4202,-1.1563,-1.0122,-0.9822,-0.9822,-0.9822,-0.9822,-0.9822,-1.0664,-1.223,-1.3246,-1.4441,-1.5693,-1.6944,-1.7485,-1.7485,-1.7485,-1.7485,-1.7485,-1.7485,-1.7485,-1.7485,0.0,0.0,0.0,0.0,0.0,0.0,0.0,0.0,0.0,0.0,0.0,0.0,-2.5182,-2.5398,-2.5387,-2.4999,-2.4878,-2.4689,-2.4293,-2.4266,-2.444,-2.4794,-2.4486,0.0,-2.4776,-2.439,-2.3922,-2.3397,-2.3397,-2.3147,-2.2594,-2.2594,-2.2745,-2.2996,-2.3247,-2.3555,-2.3805,-2.4053,-2.4202,-2.413,-2.3039,-2.2558,-2.2256,-2.0182,-1.9348,-1.9106,-1.8124,-1.7759,-1.7752,-1.8255,-1.8105,-1.7962,-1.891,-1.9295,-1.948,0.0,0.0,0.0,-2.1952,-2.2388,-2.2938,-2.3653,-2.3829,-2.404,-2.468,-2.3896,-2.2628,-2.1358,-2.0113,-1.8919,-1.7713,-1.7485,-1.7485,-1.7485,-1.7485,-1.7485,-1.7485,-1.8519,-1.9325,-1.9325,-1.9325,-1.9325,-1.9325,-1.8227,-1.7485,-1.7485,-1.7485,-1.7485,-1.7485,-1.7485,-1.7485,-1.7485,-1.6225,-1.5515,-1.5515,-1.2886,-1.1027,-0.9822,-0.9822,-0.9822,-0.9822,-0.9822,-1.1205,-1.3605,-1.3665,-1.4441,-1.5693,-1.6944,-1.7485,-1.7485,-1.7485,-1.7485,-1.7485,-1.7485,-1.7485,-1.7485,0.0,0.0,0.0,0.0,0.0,0.0,0.0,0.0,0.0,0.0,0.0,0.0,0.0,-2.5151,-2.4997,-2.4842,-2.456,-2.4367,-2.4211,-2.4202,-2.4266,-2.4422,-2.4284,-2.4275,-2.4422,-2.4126,-2.3755,-2.3397,-2.3397,-2.3147,-2.2603,-2.2946,-2.3147,-2.3247,-2.3347,-2.3555,-2.3746,-2.3288,-2.2911,-2.2518,-2.1702,-2.0757,-1.9783,-1.9327,-1.8537,-1.7552,-1.7143,-1.6547,-1.5958,-1.6163,-1.6369,-1.6599,-1.6949,-1.7581,-1.823,-1.838,-1.922,-2.0191,-2.0693,-2.1494,-2.2358,-2.305,-2.3511,-2.3838,-2.4082,-2.4183,-2.3552,-2.1529,-2.0787,-1.9825,-1.7883,-1.7485,-1.7485,-1.7485,-1.8175,-1.8635,-1.8635,-1.971,-2.0451,-2.0451,-1.9774,-1.9325,-1.9325,-1.8227,-1.7485,-1.7485,-1.7485,-1.7485,-1.7485,-1.7485,-1.7485,-1.7485,-1.629,-1.5213,-1.4381,-1.2586,-1.145,-1.1027,-1.0183,-0.9822,-0.9822,-0.9822,-1.1205,-1.3725,-1.3725,-1.4917,-1.6826,-1.7303,-1.7485,-1.7485,-1.7485,-1.7485,-1.7485,-1.7485,-1.7485,-1.7485,0.0,0.0,0.0,0.0,0.0,0.0,0.0,0.0,0.0,-2.5819,0.0,0.0,0.0,0.0,-2.473,-2.4633,-2.4367,-2.4202,-2.4202,-2.4202,-2.4202,-2.4202,-2.4202,-2.4202,-2.4202,-2.414,-2.394,-2.3546,-2.369,-2.3429,-2.2896,-2.3247,-2.3397,-2.3397,-2.3397,-2.3425,-2.3399,-2.2558,-2.1854,-2.1158,-2.031,-1.9264,-1.8273,-1.8135,-1.7388,-1.6376,-1.6208,-1.567,-1.5032,-1.5227,-1.5522,-1.585,-1.5653,-1.6248,-1.7127,-1.7496,-1.8126,-1.8855,-1.9649,-2.0136,-2.0806,-2.2234,-2.2272,-2.2218,-2.3013,-2.3249,-2.2767,-2.0887,-2.0508,-1.9883,-1.7883,-1.7485,-1.7485,-1.7485,-1.8175,-1.8861,-1.9267,-1.9998,-2.0673,-2.1066,-2.0056,-1.9325,-1.9325,-1.8227,-1.7485,-1.7485,-1.7485,-1.7485,-1.7485,-1.7485,-1.7485,-1.7485,-1.6708,-1.5634,-1.4321,-1.3006,-1.2169,-1.1692,-1.0425,-0.9822,-0.9822,-1.0243,-1.1627,-1.3725,-1.4143,-1.5515,-1.7485,-1.7485,-1.7485,-1.7485,-1.7485,-1.7485,-1.7485,-1.7485,-1.7485,-1.7485,0.0,0.0,0.0,0.0,0.0,0.0,0.0,0.0,0.0,-2.594,0.0,0.0,0.0,0.0,0.0,-2.4238,-2.4202,-2.4202,-2.4202,-2.4202,-2.4202,-2.4202,-2.4202,-2.4202,-2.4202,-2.4556,-2.4464,-2.3805,-2.4202,-2.4041,-2.3406,-2.3397,-2.3397,-2.3397,-2.3347,-2.3116,-2.2664,-2.1962,-2.1085,-2.01,-1.8798,-1.8238,-1.8072,-1.6446,-1.5851,-1.5766,-1.5238,-1.5038,-1.5127,-1.5647,-1.5778,-1.5665,-1.5138,-1.5375,-1.6074,-1.718,-1.7496,-1.7759,0.0,0.0,0.0,-2.1076,-2.0136,-1.9104,-2.1376,-2.1062,-2.0089,-1.9411,-1.9248,-1.89,-1.7713,-1.7485,-1.7485,-1.7485,-1.7543,-1.7941,-1.921,-1.9377,-1.9832,-2.1016,-2.0113,-1.9319,-1.9325,-1.8227,-1.7485,-1.7485,-1.7485,-1.7485,-1.7485,-1.7485,-1.7485,-1.7485,-1.7485,-1.6885,-1.5693,-1.4381,-1.3066,-1.1752,-1.0425,-0.9822,-0.9822,-1.1148,-1.241,-1.3784,-1.5035,-1.6349,-1.7485,-1.7485,-1.7485,-1.7485,-1.7485,-1.7485,-1.7485,-1.7485,-1.7485,-1.7485,0.0,0.0,0.0,0.0,0.0,0.0,0.0,-2.5528,-2.5484,0.0,0.0,0.0,-2.3564,-2.3311,-2.3412,-2.4161,-2.4202,-2.4202,-2.4202,-2.4202,-2.4202,-2.4202,-2.4202,-2.4202,-2.4202,-2.4321,-2.4072,0.0,0.0,0.0,0.0,0.0,0.0,-2.3347,-2.2542,-2.162,-2.0668,-2.0347,-1.9236,-1.7644,-1.7289,-1.6894,-1.6514,-1.6433,-1.669,-1.6936,-1.6446,-1.6233,-1.6245,-1.6378,-1.5925,-1.5132,-1.4571,-1.4559,-1.4713,-1.5035,-1.5713,-1.644,-1.6757,0.0,0.0,0.0,0.0,0.0,-1.9323,-1.9459,-1.9282,-1.8835,-1.8549,-1.8259,-1.764,-1.7485,-1.7485,-1.7485,-1.8233,-1.9203,-2.0451,-2.1373,-2.2119,-2.2459,-2.1365,-2.0279,-1.9377,-1.8227,-1.7485,-1.7485,-1.7485,-1.7485,-1.7485,-1.7485,-1.7485,-1.7485,-1.7485,-1.7303,-1.7003,-1.4798,-1.3485,-1.3126,-1.0846,-0.9822,-0.9822,-1.1148,-1.241,-1.3784,-1.5035,-1.6349,-1.7485,-1.7485,-1.7485,-1.7485,-1.7485,-1.7485,-1.7485,-1.7485,-1.7485,-1.7485,0.0,0.0,0.0,0.0,0.0,0.0,-2.4792,-2.457,-2.426,0.0,0.0,0.0,-2.2341,-2.2476,-2.2748,-2.3306,-2.3646,-2.3895,-2.4053,-2.4053,-2.4102,-2.4202,-2.4202,-2.4202,-2.4202,-2.4376,-2.4226,0.0,0.0,0.0,0.0,0.0,0.0,-2.3338,-2.1871,-2.049,-1.9234,-1.8414,-1.7296,-1.611,-1.6251,-1.6121,-1.5863,-1.6464,-1.6894,-1.7117,-1.6789,-1.6678,-1.6754,-1.6982,-1.6268,-1.5255,-1.4961,-1.4565,-1.4196,-1.4196,-1.4665,-1.5292,-1.5755,-1.6027,-1.6399,-1.7338,0.0,0.0,-1.7845,-1.7891,-1.7773,-1.8033,-1.797,-1.7792,-1.7541,-1.7485,-1.7485,-1.7485,-1.8117,-1.8971,-2.0171,-2.1422,-2.2225,-2.2225,-2.1529,-2.0623,-1.9435,-1.8227,-1.7485,-1.7485,-1.7485,-1.7485,-1.7485,-1.7485,-1.7485,-1.7485,-1.7485,-1.7485,-1.7485,-1.5515,-1.4202,-1.3665,-1.1567,-1.0304,-0.9883,-1.1687,-1.2946,-1.3784,-1.5634,-1.6826,-1.7485,-1.7485,-1.7485,-1.7485,-1.7485,-1.7485,-1.7485,-1.7485,-1.7485,-1.7485,0.0,0.0,0.0,0.0,0.0,0.0,-2.3735,-2.3175,-2.2565,0.0,-2.126,-2.1026,-2.1131,-2.1683,-2.2012,-2.1894,-2.2526,-2.3079,-2.3438,-2.3379,-2.3538,-2.4053,-2.3945,-2.3945,-2.4102,-2.4469,-2.4427,0.0,0.0,0.0,0.0,0.0,0.0,-2.3009,0.0,0.0,-1.8022,-1.6374,-1.5499,-1.5317,-1.5658,-1.5778,-1.5863,-1.6556,-1.6783,-1.6783,-1.6783,-1.6783,-1.6871,-1.7247,-1.6714,-1.5868,-1.5755,-1.5077,-1.4369,-1.4213,-1.4267,-1.4488,-1.5452,-1.4976,-1.4665,-1.6717,-1.5719,0.0,-1.6655,-1.6291,-1.5862,-1.6928,-1.7122,-1.7122,-1.724,-1.727,-1.7294,-1.7294,-1.7342,-1.7852,-1.9145,-2.0336,-2.1123,-2.1123,-2.1123,-2.0623,-1.9435,-1.8227,-1.7485,-1.7485,-1.7485,-1.7485,-1.7485,-1.7485,-1.7485,-1.7485,-1.7485,-1.7485,-1.7485,-1.6225,-1.4976,-1.3665,-1.235,-1.1088,-1.0061,-1.2586,-1.3784,-1.4023,-1.6467,-1.7485,-1.7485,-1.7485,-1.7485,-1.7485,-1.7485,-1.7485,-1.7485,-1.7485,-1.7485,-1.7485,0.0,0.0,0.0,0.0,0.0,0.0,-2.2781,-2.2065,-2.1655,-2.1729,-2.0285,-1.9483,-1.9976,-1.9094,-1.9011,-2.0297,-2.0164,-2.0412,-2.1414,-2.0625,-2.1033,-2.3079,-2.2341,-2.2391,-2.3546,-2.3627,-2.3527,0.0,0.0,0.0,0.0,0.0,0.0,0.0,0.0,-1.7925,-1.6297,-1.481,-1.4562,-1.5123,-1.5579,-1.5778,-1.5886,-1.693,-1.7348,-1.7348,-1.7348,-1.7348,-1.7265,-1.6988,-1.669,-1.636,-1.5439,-1.5327,-1.5339,-1.4462,-1.4538,-1.4801,-1.4613,-1.4353,-1.4299,-1.4773,-1.4509,0.0,-1.4473,-1.4195,-1.4146,-1.4812,-1.4758,-1.4788,-1.5427,-1.5725,-1.5914,-1.5914,-1.6427,-1.7405,-1.9061,-2.0336,-2.1123,-2.1123,-2.1123,-2.0623,-1.9435,-1.8227,-1.7485,-1.7485,-1.7485,-1.7485,-1.7485,-1.7485,-1.7485,-1.7485,-1.7485,-1.7485,-1.7485,-1.6225,-1.4976,-1.3665,-1.235,-1.1571,-1.139,-1.3006,-1.4262,-1.5332,-1.6826,-1.7485,-1.7485,-1.7485,-1.7485,-1.7485,-1.7485,-1.7485,-1.7485,-1.7485,-1.7485,-1.7485,0.0,0.0,0.0,0.0,0.0,0.0,0.0,-2.0963,-2.0482,-1.9967,-1.8793,-1.7996,-1.7996,-1.7828,-1.797,-1.8664,-1.8989,-1.944,-2.0136,-1.9652,-1.9896,-2.1159,-2.1358,-2.1747,-2.235,-2.287,-2.3088,-2.2937,0.0,0.0,0.0,0.0,0.0,0.0,0.0,-1.6995,-1.5993,-1.4359,-1.4146,-1.5038,-1.5563,-1.5965,-1.6354,-1.7153,-1.7485,-1.7485,-1.7485,-1.7485,-1.7461,-1.7211,-1.6702,-1.6177,-1.5931,-1.5636,-1.5322,-1.4757,-1.4762,-1.4856,-1.4364,-1.4196,-1.4196,-1.4196,-1.4196,0.0,0.0,-1.4175,-1.4231,-1.4618,-1.4592,-1.4633,-1.5055,-1.5204,-1.5324,-1.5505,-1.6069,-1.6759,-1.7444,-1.9061,-1.9998,-1.9363,-1.9825,-1.9717,-1.8519,-1.7889,-1.7485,-1.7485,-1.7485,-1.7485,-1.7485,-1.7485,-1.7485,-1.7485,-1.7485,-1.7485,-1.7485,-1.6885,-1.5569,-1.3665,-1.3006,-1.235,-1.1752,-1.3066,-1.4381,-1.5693,-1.6944,-1.7485,-1.7485,-1.7485,-1.7485,-1.7485,-1.7485,-1.7485,-1.7485,-1.7485,-1.7485,-1.7485,-2.2593,-2.2371,0.0,0.0,0.0,0.0,0.0,0.0,-1.898,-1.7792,-1.7217,-1.6739,-1.6405,-1.6975,-1.7363,-1.7357,-1.8141,-1.8773,-1.9092,-1.8926,-1.8926,-1.9248,-2.0204,-2.0736,-2.0743,-2.1902,-2.2435,-2.2358,0.0,0.0,0.0,0.0,0.0,-2.0109,-1.7725,-1.6307,-1.5674,-1.4296,-1.4258,-1.5216,-1.5642,-1.6159,-1.6766,-1.7324,-1.7485,-1.7485,-1.7485,-1.7485,-1.7473,-1.7366,-1.6714,-1.6045,-1.6268,-1.5913,-1.5244,-1.4939,-1.5016,-1.5027,-1.4375,-1.4196,-1.4196,-1.4196,-1.4196,-1.4277,0.0,0.0,0.0,-1.4615,-1.465,-1.465,-1.465,-1.469,-1.4786,-1.4985,-1.5583,-1.5925,-1.5635,-1.7313,-1.8237,-1.7264,-1.8448,-1.8784,-1.7465,-1.7348,-1.7372,-1.7479,-1.7378,-1.7372,-1.7479,-1.7485,-1.7485,-1.7485,-1.7485,-1.7485,-1.7485,-1.7485,-1.6349,-1.4083,-1.4083,-1.3485,-1.247,-1.3545,-1.4738,-1.6048,-1.7062,-1.7485,-1.7485,-1.7485,-1.7485,-1.7485,-1.7485,-1.7485,-1.7485,-1.7485,-1.7485,-1.7485,-1.9687,-1.9627,-1.9368,0.0,0.0,0.0,0.0,0.0,-1.6691,-1.6502,-1.6016,-1.5934,-1.6604,-1.6047,-1.5977,-1.6624,-1.6826,-1.7105,-1.7597,-1.6734,-1.6903,-1.838,-1.784,-1.7927,-1.8731,-2.027,-2.0815,-2.0408,0.0,0.0,0.0,0.0,0.0,-1.7682,-1.6846,-1.546,-1.383,-1.4367,-1.4986,-1.5738,-1.5766,-1.6159,-1.6766,-1.7324,-1.7485,-1.7485,-1.7485,-1.7485,-1.7449,-1.6976,-1.6684,-1.6446,-1.5512,-1.5817,-1.6233,-1.474,-1.4961,-1.5468,-1.4473,-1.4196,-1.4196,-1.4196,-1.4196,-1.4083,-1.3705,0.0,-1.3539,-1.316,0.0,-1.3073,-1.3073,0.0,0.0,-1.336,-1.4245,-1.4857,-1.4857,-1.5605,-1.6146,-1.6033,-1.7976,-1.8648,-1.6974,-1.6783,-1.6994,-1.7467,-1.7088,-1.7,-1.7473,-1.7485,-1.7485,-1.7485,-1.7485,-1.7485,-1.7485,-1.7485,-1.6767,-1.5391,-1.5391,-1.5273,-1.5154,-1.5332,-1.6107,-1.7303,-1.7426,-1.7485,-1.7485,-1.7485,-1.7485,-1.7485,-1.7485,-1.7485,-1.7485,-1.7485,-1.7485,-1.7485,-1.8144,-1.8196,-1.7984,0.0,0.0,0.0,0.0,0.0,0.0,-1.5906,-1.545,-1.5235,-1.5234,-1.5044,-1.5176,-1.5813,-1.6004,-1.6158,-1.6391,-1.5987,-1.5938,-1.6285,-1.6759,-1.7196,-1.7555,-1.8749,-1.9259,-1.9069,-1.9353,0.0,0.0,0.0,0.0,-1.6697,-1.6151,-1.5341,-1.4356,-1.4637,-1.5108,-1.5778,-1.5778,-1.6159,-1.6766,-1.7324,-1.7485,-1.7485,-1.7485,-1.7485,-1.7467,-1.7235,-1.6702,-1.6239,-1.6378,-1.613,-1.563,-1.5244,-1.5238,-1.5155,-1.4391,-1.4451,-1.4571,-1.4283,-1.4451,-1.4478,-1.384,-1.3577,-1.3383,-1.3034,0.0,0.0,0.0,0.0,0.0,0.0,-1.3852,-1.44,-1.4183,-1.5035,-1.5679,-1.5817,-1.6693,-1.7134,-1.6736,-1.6678,-1.6906,-1.7461,-1.7006,-1.6912,-1.7467,-1.7485,-1.7485,-1.7485,-1.7485,-1.7485,-1.7485,-1.7485,-1.6885,-1.5575,-1.5575,-1.5575,-1.5575,-1.5575,-1.629,-1.7485,-1.7485,-1.7485,-1.7485,-1.7485,-1.7485,-1.7485,-1.7485,-1.7485,-1.7485,-1.7485,-1.7485,-1.7485,-1.6493,-1.6605,-1.6402,-1.5813,0.0,0.0,0.0,-1.5863,-1.5582,-1.5206,-1.4939,-1.4639,-1.4337,-1.4662,-1.5164,-1.5692,-1.6175,-1.6294,-1.5984,-1.5978,-1.566,-1.5066,-1.5935,-1.6448,-1.6432,-1.7383,-1.7781,-1.7648,-1.7621,0.0,0.0,0.0,0.0,-1.5875,-1.5403,-1.5053,-1.4826,-1.4963,-1.5437,-1.605,-1.605,-1.6337,-1.6766,-1.7324,-1.7485,-1.7485,-1.7485,-1.7485,-1.7473,-1.7342,-1.6708,-1.6159,-1.6813,-1.6286,-1.5523,-1.5743,-1.5642,-1.5322,-1.4636,-1.4675,-1.4856,-1.4304,-1.4478,-1.4598,-1.3964,-1.3642,-1.3405,-1.3157,-1.292,0.0,0.0,0.0,-1.2867,-1.2985,0.0,-1.389,-1.3626,-1.4406,-1.5066,-1.5322,-1.5468,-1.5834,-1.6378,-1.6337,-1.6551,-1.7229,-1.6777,-1.6777,-1.7467,-1.7485,-1.7485,-1.7485,-1.7485,-1.7485,-1.7485,-1.7485,-1.7062,-1.6107,-1.6107,-1.6107,-1.6107,-1.6107,-1.6644,-1.7485,-1.7485,-1.7485,-1.7485,-1.7485,-1.7485,-1.7485,-1.7485,-1.7485,-1.7485,-1.7485,-1.7485,-1.7485,-1.4299,-1.4299,-1.4304,-1.4256,-1.4261,-1.4261,-1.4267,-1.4267,-1.4256,-1.4261,-1.4256,-1.4277,-1.4448,-1.5456,-1.6252,-1.6562,-1.7588,-1.7731,-1.6625,-1.6591,-1.6198,-1.5428,-1.5112,-1.4997,-1.5032,-1.6096,-1.6451,-1.598,-1.7054,0.0,0.0,0.0,0.0,0.0,-1.4487,-1.4303,-1.437,-1.5342,-1.6136,-1.6667,-1.6667,-1.6673,-1.6766,-1.7324,-1.7485,-1.7485,-1.7485,-1.7485,-1.7443,-1.6894,-1.6678,-1.6568,-1.6045,-1.6239,-1.6551,-1.5959,-1.6177,-1.6429,-1.5305,-1.501,-1.4856,-1.4304,-1.4202,-1.4137,-1.3879,-1.3642,-1.3405,-1.3157,-1.292,-1.2813,-1.2813,-1.2813,-1.2813,0.0,-1.2974,0.0,0.0,-1.3402,-1.3742,-1.4213,-1.4729,-1.5232,-1.5766,-1.535,-1.5523,-1.6655,-1.6165,-1.6297,-1.7455,-1.7485,-1.7485,-1.7485,-1.7485,-1.7485,-1.7485,-1.7485,-1.7485,-1.7426,-1.7426,-1.7426,-1.7426,-1.7426,-1.7479,-1.7485,-1.7485,-1.7485,-1.7485,-1.7485,-1.7485,-1.7485,-1.7485,-1.7485,-1.7485,-1.7485,-1.7485,-1.7485,-1.4196,-1.4196,-1.4196,-1.4196,-1.4196,-1.4196,-1.4196,-1.4196,-1.4353,-1.4664,-1.474,-1.4883,-1.5294,-1.5693,-1.6132,-1.6617,-1.7038,-1.6932,-1.6115,-1.6098,-1.5852,-1.5411,-1.4908,-1.4925,-1.5443,-1.5294,-1.5142,-1.4948,-1.5059,-1.5053,0.0,0.0,0.0,0.0,-1.4205,-1.4593,-1.5135,-1.5606,-1.6153,-1.6667,-1.6262,-1.6348,-1.669,-1.6894,-1.6988,-1.7012,-1.736,-1.7485,-1.7467,-1.7318,-1.6994,-1.6754,-1.6894,-1.6568,-1.6153,-1.6348,-1.6257,-1.6039,-1.5642,-1.5828,-1.5919,-1.495,-1.5027,-1.5038,-1.4261,-1.3879,-1.3636,-1.34,-1.3157,-1.2942,-1.284,-1.2813,0.0,0.0,0.0,-1.3292,0.0,-1.3319,-1.348,-1.3475,-1.4278,-1.4931,-1.5227,-1.5439,-1.5851,-1.6655,-1.6482,-1.6702,-1.7467,-1.7485,-1.7485,-1.7485,-1.7485,-1.7485,-1.7485,-1.7485,-1.7485,-1.7485,-1.7485,-1.7485,-1.7485,-1.7485,-1.7485,-1.7485,-1.7485,-1.7485,-1.7485,-1.7485,-1.7485,-1.7485,-1.7485,-1.7485,-1.7485,-1.7485,-1.7485,-1.7485,-1.4196,-1.4196,-1.4196,-1.4196,-1.4196,-1.4196,-1.4196,-1.4196,-1.438,-1.4933,-1.5016,-1.5221,-1.5749,-1.5971,-1.6268,-1.6667,-1.6882,-1.6667,-1.5857,-1.5977,-1.5931,-1.5569,-1.5188,-1.5288,-1.6039,-1.5165,-1.4696,-1.4696,-1.4023,-1.3696,0.0,0.0,0.0,0.0,-1.3767,-1.4501,-1.5358,-1.5697,-1.6262,-1.6906,-1.6142,-1.6045,-1.6372,-1.6372,-1.6482,-1.6771,-1.733,-1.7485,-1.7485,-1.7485,-1.7247,-1.7024,-1.7372,-1.7012,-1.6482,-1.6882,-1.6696,-1.6372,-1.6165,-1.6378,-1.6464,-1.5529,-1.5546,-1.5557,-1.4669,-1.4282,-1.4037,-1.3699,-1.3335,-1.306,-1.291,-1.2932,-1.2856,0.0,0.0,0.0,0.0,-1.3125,-1.3227,-1.3238,-1.3931,-1.4519,-1.4871,-1.5093,-1.5552,-1.6343,-1.6372,-1.6598,-1.7211,-1.7372,-1.7485,-1.7485,-1.7485,-1.7485,-1.7485,-1.7485,-1.7485,-1.7485,-1.7485,-1.7485,-1.7485,-1.7485,-1.7485,-1.7485,-1.7485,-1.7485,-1.7485,-1.7485,-1.7485,-1.7485,-1.7485,-1.7485,-1.7485,-1.7485,-1.7485,-1.7485,-1.4196,-1.4196,-1.4196,-1.4196,-1.4196,-1.4196,-1.4196,-1.4196,-1.4386,-1.495,-1.5032,-1.5244,-1.584,-1.6378,-1.676,-1.676,-1.7223,-1.7029,-1.5942,-1.6372,-1.6452,-1.5863,-1.584,-1.6068,-1.6673,-1.5608,-1.5016,-1.5016,-1.3977,-1.348,0.0,0.0,0.0,0.0,-1.3315,-1.4099,-1.5112,-1.5549,-1.6389,-1.7342,-1.6257,-1.5778,-1.5778,-1.5846,-1.6177,-1.6771,-1.733,-1.7485,-1.7485,-1.7485,-1.7485,-1.7485,-1.7485,-1.7485,-1.7485,-1.7485,-1.7485,-1.7372,-1.6882,-1.676,-1.658,-1.5977,-1.5851,-1.5676,-1.5143,-1.4914,-1.4572,-1.4011,-1.3542,-1.3213,-1.313,-1.312,-1.3094,0.0,0.0,0.0,-1.2856,-1.2818,-1.298,-1.3389,-1.3647,-1.3995,-1.4637,-1.4407,-1.4658,-1.5738,-1.5766,-1.6056,-1.6684,-1.7211,-1.7467,-1.7485,-1.7485,-1.7485,-1.7485,-1.7485,-1.7485,-1.7485,-1.7485,-1.7485,-1.7485,-1.7485,-1.7485,-1.7485,-1.7485,-1.7485,-1.7485,-1.7485,-1.7485,-1.7485,-1.7485,-1.7485,-1.7485,-1.7485,-1.7485,-1.7485,-1.4196,-1.4196,-1.4196,-1.4196,-1.4196,-1.4196,-1.4196,-1.4196,-1.4554,-1.5462,-1.5569,-1.5965,-1.6936,-1.7217,-1.7265,-1.7265,-1.7443,-1.7223,-1.6487,-1.6586,-1.6649,-1.647,-1.605,-1.6068,-1.6673,-1.5608,-1.5016,-1.5016,-1.3977,-1.348,-1.347,0.0,0.0,0.0,-1.3315,-1.3849,-1.4537,-1.5019,-1.5625,-1.6188,-1.5942,-1.5778,-1.5857,-1.6274,-1.6568,-1.6771,-1.733,-1.7485,-1.7485,-1.7485,-1.7485,-1.7485,-1.7485,-1.7485,-1.7485,-1.7485,-1.7485,-1.7467,-1.7342,-1.7265,-1.7141,-1.6586,-1.6464,-1.6337,-1.5743,-1.5579,-1.541,-1.5112,-1.4953,-1.4641,-1.3822,-1.3672,-1.3484,-1.2878,-1.2862,-1.2888,-1.3001,-1.2872,-1.2856,-1.298,-1.3147,-1.3575,-1.4239,-1.4455,-1.492,-1.5743,-1.5668,-1.6065,-1.7229,-1.7024,-1.7099,-1.7473,-1.7485,-1.7485,-1.7485,-1.7485,-1.7485,-1.7485,-1.7485,-1.7485,-1.7485,-1.7485,-1.7485,-1.7485,-1.7485,-1.7485,-1.7485,-1.7485,-1.7485,-1.7485,-1.7485,-1.7485,-1.7485,-1.7485,-1.7485,-1.7485,-1.4196,-1.4196,-1.4196,-1.4196,-1.438,-1.4554,-1.4554,-1.4364,-1.4576,-1.5659,-1.5778,-1.6159,-1.7029,-1.7354,-1.7485,-1.7485,-1.7485,-1.7253,-1.676,-1.6906,-1.6976,-1.6684,-1.6592,-1.6696,-1.7024,-1.6165,-1.5619,-1.5344,-1.4347,-1.3738,-1.347,0.0,0.0,0.0,-1.3147,-1.3713,-1.4348,-1.5325,-1.5755,-1.5846,-1.6068,-1.6171,0.0,-1.6568,-1.6871,-1.7105,-1.7372,-1.7485,-1.7485,-1.7485,-1.7485,-1.7485,-1.7485,-1.7485,-1.7485,-1.7485,-1.7485,-1.7485,-1.7485,-1.7485,-1.7449,-1.7117,-1.7024,-1.69,-1.6348,-1.6171,-1.6101,-1.5735,-1.5542,-1.5335,-1.4694,-1.4335,-1.3822,-1.304,-1.2878,-1.2856,-1.2937,-1.2894,-1.2851,-1.2899,-1.3023,-1.3346,-1.397,-1.4184,-1.4596,-1.5411,-1.5376,-1.5595,-1.636,-1.658,-1.6865,-1.7129,-1.7135,-1.7247,-1.7485,-1.7247,-1.7247,-1.7485,-1.7485,-1.7485,-1.7485,-1.7485,-1.7485,-1.7485,-1.7485,-1.7485,-1.7485,-1.7485,-1.7485,-1.7485,-1.7485,-1.7485,-1.7485,-1.7485,-1.7485,-1.7485,-1.4196,-1.4196,-1.4196,-1.4196,-1.4647,-1.5027,-1.5116,-1.4735,-1.4768,-1.5766,-1.5942,-1.6153,-1.676,-1.7229,-1.7485,-1.7485,-1.7485,-1.7324,-1.6865,-1.7235,-1.7318,-1.6859,-1.7241,-1.7485,-1.7485,-1.6988,-1.6378,-1.5778,-1.4767,-1.4025,0.0,0.0,0.0,0.0,0.0,-1.3592,-1.4462,-1.5848,-1.6239,-1.5857,-1.6458,-1.6678,-1.6684,-1.6777,-1.7105,-1.7485,-1.7485,-1.7485,-1.7485,-1.7485,-1.7485,-1.7479,-1.7426,-1.7426,-1.7426,-1.7367,-1.7367,-1.7367,-1.7367,-1.7367,-1.7367,-1.7367,-1.7367,-1.7243,-1.6785,-1.6674,-1.6552,-1.604,-1.5827,-1.5655,-1.5641,-1.484,-1.4005,-1.3317,-1.3084,-1.2975,-1.309,-1.3101,-1.315,-1.3186,-1.3229,0.0,-1.3739,-1.3776,-1.4087,-1.4922,-1.49,-1.4922,-1.5221,-1.6119,-1.6661,-1.6789,-1.6789,-1.7,-1.743,-1.7,-1.7,-1.743,-1.7467,-1.7485,-1.7485,-1.7485,-1.7485,-1.7485,-1.7485,-1.7485,-1.7485,-1.7485,-1.7485,-1.7485,-1.7485,-1.7485,-1.7485,-1.7485,-1.7485,-1.7485,-1.4196,-1.4196,-1.4196,-1.4196,-1.4647,-1.5143,-1.5569,-1.5569,-1.5761,-1.6458,-1.6556,-1.6771,-1.7324,-1.7455,-1.7485,-1.7485,-1.7485,-1.7467,-1.736,-1.7455,-1.7461,-1.7354,-1.7455,-1.7485,-1.7485,-1.6988,-1.6378,-1.5778,-1.4767,-1.4025,0.0,0.0,0.0,0.0,0.0,-1.3685,-1.468,-1.5098,-1.5518,-1.5857,-1.6458,-1.6678,-1.6766,-1.7211,-1.7443,-1.7485,-1.7485,-1.7485,-1.7485,-1.7485,-1.7485,-1.7426,-1.7197,-1.7079,-1.702,-1.6773,-1.6655,-1.6655,-1.6655,-1.6655,-1.6655,-1.6655,-1.6655,-1.6644,-1.6539,-1.6527,-1.6575,-1.6774,-1.6733,-1.6628,-1.6257,-1.4967,-1.3907,-1.3767,-1.3717,-1.3936,-1.4616,-1.4679,-1.4485,-1.3846,-1.3938,-1.3975,-1.3602,-1.354,-1.3966,-1.4911,-1.4374,-1.4717,-1.6325,-1.6136,-1.6383,-1.7342,-1.7354,-1.7276,-1.7165,-1.7328,-1.7328,-1.7165,-1.7376,-1.7485,-1.7485,-1.7485,-1.7485,-1.7485,-1.7485,-1.7485,-1.7485,-1.7485,-1.7485,-1.7485,-1.7485,-1.7485,-1.7485,-1.7485,-1.7485,-1.7485,-1.4196,-1.4196,-1.4283,-1.4565,-1.5049,-1.5625,-1.6165,-1.6493,-1.669,-1.6678,-1.6678,-1.6789,-1.7088,-1.7342,-1.7485,-1.7485,-1.7485,-1.7485,-1.7485,-1.7485,-1.7485,-1.7485,-1.7485,-1.7485,-1.7485,-1.7241,-1.6684,-1.5778,-1.5058,-1.4303,0.0,-1.3034,0.0,-1.2835,0.0,-1.3986,-1.4574,-1.5471,-1.6039,-1.6343,-1.6894,-1.7117,-1.7129,-1.7372,-1.7485,-1.7485,-1.7309,-1.725,-1.725,-1.725,-1.7132,-1.695,-1.6779,-1.672,-1.672,-1.6537,-1.6478,-1.6478,-1.6478,-1.6478,-1.6478,-1.6478,-1.6478,-1.6478,-1.6478,-1.6478,-1.6537,-1.672,-1.672,-1.6623,-1.6107,-1.5124,-1.4361,-1.4518,-1.4189,-1.4195,-1.4973,-1.5101,-1.4955,-1.4547,-1.4414,-1.4256,-1.4104,-1.3832,-1.3899,-1.4532,-1.425,-1.4532,-1.5732,-1.5834,-1.6177,-1.7088,-1.7099,-1.7163,-1.7292,-1.7163,-1.7163,-1.7298,-1.7418,-1.7485,-1.7485,-1.7485,-1.7485,-1.7485,-1.7485,-1.7485,-1.7485,-1.7485,-1.7485,-1.7485,-1.7485,-1.7485,-1.7485,-1.7485,-1.7485,-1.7485,-1.4364,-1.4283,-1.4386,-1.5049,-1.5535,-1.5977,-1.6586,-1.7135,-1.7348,-1.6906,-1.6877,-1.6877,-1.6877,-1.7241,-1.7485,-1.7485,-1.7485,-1.7485,-1.7485,-1.7485,-1.7485,-1.7485,-1.7485,-1.7485,-1.7485,-1.7485,-1.7012,-1.5971,-1.537,-1.4629,-1.3719,-1.3083,-1.2862,-1.3084,-1.3916,-1.4445,-1.4801,-1.6144,-1.6771,-1.6894,-1.7342,-1.7485,-1.7479,-1.7426,-1.7367,-1.7367,-1.702,-1.6844,-1.679,-1.679,-1.6661,-1.6478,-1.6419,-1.6425,-1.6425,-1.6301,-1.6301,-1.6301,-1.6301,-1.6301,-1.6301,-1.6301,-1.6301,-1.6301,-1.6301,-1.6301,-1.6301,-1.6425,-1.6478,-1.6383,-1.5875,-1.5348,-1.4967,-1.5132,-1.4771,-1.465,-1.5327,-1.5551,-1.5545,-1.5381,-1.4922,-1.4694,-1.484,-1.4254,-1.4003,-1.4353,-1.4369,-1.4576,-1.5138,-1.5557,-1.6068,-1.6673,-1.6678,-1.6871,-1.7258,-1.6988,-1.707,-1.74,-1.7455,-1.7485,-1.7485,-1.7485,-1.7485,-1.7485,-1.7485,-1.7485,-1.7485,-1.7485,-1.7485,-1.7485,-1.7485,-1.7485,-1.7485,-1.7485,-1.7485,-1.7485,-1.4834,-1.4549,-1.4494,-1.5552,-1.5761,-1.5977,-1.6586,-1.7135,-1.7473,-1.7449,-1.7449,-1.7449,-1.7449,-1.7467,-1.7485,-1.7485,-1.7485,-1.7485,-1.7485,-1.7485,-1.7485,-1.7485,-1.7485,-1.7485,-1.7485,-1.7485,-1.7223,-1.6643,-1.5621,-1.4911,-1.4576,-1.334,-1.3139,-1.3812,-1.417,-1.4999,-1.6157,-1.6543,-1.6994,-1.7449,-1.7473,-1.7485,-1.7485,-1.7138,-1.702,-1.702,-1.6655,-1.6371,-1.62,-1.62,-1.6312,-1.6478,-1.6194,-1.614,-1.6081,-1.5774,-1.5655,-1.5655,-1.5655,-1.5655,-1.5655,-1.5655,-1.5655,-1.5655,-1.5655,-1.5655,-1.5774,-1.6081,-1.6307,-1.6383,-1.5875,-1.5738,-1.5635,-1.5473,-1.5809,-1.6198,-1.6537,-1.6952,-1.698,-1.6284,-1.5866,-1.5601,-1.5456,-1.4673,-1.4359,-1.4911,-1.4933,-1.5149,-1.5676,-1.5766,-1.6068,-1.6673,-1.6678,-1.6635,-1.6428,-1.7104,-1.734,-1.7129,-1.737,-1.7485,-1.7485,-1.7485,-1.7485,-1.7485,-1.7485,-1.7485,-1.7485,-1.7485,-1.7485,-1.7485,-1.7485,-1.7485,-1.7485,-1.7485,-1.7485,-1.7485,-1.5445,-1.5327,-1.5434,-1.6177,-1.6348,-1.6556,-1.7105,-1.7354,-1.7485,-1.7485,-1.7485,-1.7485,-1.7485,-1.7485,-1.7485,-1.7485,-1.7485,-1.7485,-1.7485,-1.7485,-1.7485,-1.7485,-1.7485,-1.7485,-1.7485,-1.7485,-1.7235,-1.6678,-1.5632,-1.486,-1.4437,-1.3784,-1.3891,-1.465,-1.5215,-1.5792,-1.6325,-1.691,-1.7324,-1.7485,-1.7485,-1.7485,-1.7479,-1.7138,-1.7026,-1.6967,-1.6431,-1.62,-1.6087,-1.5844,-1.5893,-1.5952,-1.5839,-1.5779,-1.5779,-1.5661,-1.5601,-1.5601,-1.5601,-1.5601,-1.5601,-1.5601,-1.5601,-1.5601,-1.5601,-1.5601,-1.5661,-1.5779,-1.5898,-1.6009,-1.6216,-1.5875,-1.5801,-1.6572,-1.6494,-1.6499,-1.7088,-1.7354,-1.7288,-1.663,-1.6101,-1.5794,-1.5697,-1.479,-1.4397,-1.4944,-1.4675,-1.4751,-1.5316,-1.5642,-1.5886,-1.6153,-1.6807,-1.6964,-1.6531,-1.7181,-1.743,-1.7328,-1.7436,-1.7126,-1.6408,-1.7126,-1.7485,-1.7485,-1.7485,-1.7485,-1.7485,-1.7485,-1.7485,-1.7485,-1.7485,-1.7485,-1.742,-1.6649,-1.6349,-1.6231,-1.6045,-1.5942,-1.605,-1.6795,-1.6789,-1.6882,-1.7443,-1.7485,-1.7485,-1.7485,-1.7485,-1.7485,-1.7485,-1.7485,-1.7485,-1.7485,-1.7485,-1.7485,-1.7485,-1.7485,-1.7485,-1.7485,-1.7485,-1.7485,-1.7485,-1.7485,-1.733,-1.697,-1.5929,-1.5321,-1.4996,-1.4556,-1.4741,-1.5499,-1.6025,-1.644,-1.6663,-1.7264,-1.7485,-1.7485,-1.7485,-1.7426,-1.7309,-1.6961,-1.6785,-1.6672,-1.614,-1.5963,-1.5903,-1.5661,-1.5601,-1.5601,-1.5601,-1.5601,-1.5601,-1.5601,-1.5601,-1.5601,-1.5601,-1.5601,-1.5601,-1.5601,-1.5601,-1.5601,-1.5601,-1.5601,-1.5601,-1.5601,-1.5601,-1.5774,-1.6307,-1.6025,-1.6051,-1.6973,-1.6829,-1.6797,-1.7205,-1.7372,-1.7324,-1.6771,-1.6165,-1.5863,-1.605,-1.506,-1.474,-1.5434,-1.4961,-1.4845,-1.5227,-1.5569,-1.5868,-1.6062,-1.6877,-1.7099,-1.6684,-1.7229,-1.7485,-1.7485,-1.7485,-1.6826,-1.5634,-1.6172,-1.6585,-1.6944,-1.6526,-1.6585,-1.6885,-1.6526,-1.6408,-1.6408,-1.6408,-1.6408,-1.6284,-1.5391,-1.5035,-1.4917,-1.6568,-1.6239,-1.6165,-1.7265,-1.7024,-1.6882,-1.7443,-1.7485,-1.7485,-1.7485,-1.7485,-1.7485,-1.7485,-1.7485,-1.7485,-1.7485,-1.7485,-1.7485,-1.7485,-1.7485,-1.7485,-1.7485,-1.7485,-1.7485,-1.7485,-1.7485,-1.7485,-1.7479,-1.6657,-1.6419,-1.6649,-1.5858,-1.576,-1.629,-1.6295,-1.6756,-1.7473,-1.7479,-1.7485,-1.7485,-1.7485,-1.7309,-1.6961,-1.6655,-1.6366,-1.6087,-1.572,-1.5601,-1.5601,-1.5601,-1.5601,-1.5601,-1.5601,-1.5601,-1.5601,-1.5601,-1.5601,-1.5601,-1.5601,-1.5601,-1.5601,-1.5601,-1.5601,-1.5601,-1.5601,-1.5601,-1.5601,-1.5601,-1.5601,-1.572,-1.6022,-1.6301,-1.6452,-1.6275,-1.6902,-1.7324,-1.6777,-1.7141,-1.7324,-1.6771,-1.6165,-1.605,-1.6649,-1.5642,-1.5439,-1.6574,-1.6142,-1.5772,-1.5772,-1.5778,-1.6062,-1.6667,-1.6678,-1.6684,-1.6678,-1.7229,-1.7485,-1.7485,-1.7485,-1.6826,-1.5575,-1.4321,-1.4441,-1.5569,-1.4321,-1.4441,-1.5515,-1.4262,-1.3725,-1.3725,-1.3725,-1.3725,-1.3725,-1.3725,-1.3725,-1.3725,-1.7223,-1.7111,-1.7047,-1.7455,-1.7354,-1.7324,-1.7467,-1.7485,-1.7485,-1.7485,-1.7485,-1.7485,-1.7485,-1.7485,-1.7485,-1.7485,-1.7485,-1.7485,-1.7485,-1.7485,-1.7485,-1.7485,-1.7485,-1.7485,-1.7485,-1.7485,-1.7485,-1.7485,-1.6669,-1.6343,-1.6419,-1.6198,-1.6407,-1.7116,-1.7116,-1.7264,-1.7485,-1.7485,-1.7485,-1.7485,-1.7256,-1.7079,-1.6967,-1.6436,-1.62,-1.6087,-1.572,-1.5601,-1.5601,-1.5601,-1.5601,-1.5601,-1.5601,-1.5601,-1.5601,-1.5601,-1.5601,-1.5601,-1.5601,-1.5601,-1.5601,-1.5601,-1.5601,-1.5601,-1.5601,-1.5601,-1.5601,-1.5601,-1.5601,-1.572,-1.6022,-1.614,-1.6284,-1.6376,-1.6662,-1.6744,-1.6605,-1.6576,-1.6426,-1.5886,-1.5457,-1.5456,-1.6045,-1.5434,-1.5316,-1.6045,-1.5565,-1.5418,-1.5761,-1.6171,-1.6286,-1.6074,-1.6819,-1.7093,-1.6678,-1.6342,-1.6225,-1.6166,-1.5332,-1.4679,-1.4262,-1.2946,-1.3066,-1.4262,-1.3904,-1.3904,-1.4262,-1.3844,-1.3725,-1.3725,-1.3725,-1.3725,-1.3605,-1.2651,-1.235,-1.223,-1.7485,-1.7485,-1.7485,-1.7485,-1.7485,-1.7485,-1.7485,-1.7485,-1.7485,-1.7485,-1.7485,-1.7485,-1.7485,-1.7485,-1.7485,-1.7485,-1.7485,-1.7485,-1.7485,-1.7485,-1.7485,-1.7485,-1.7485,-1.7485,-1.7485,-1.7485,-1.7485,-1.7485,-1.698,-1.6762,-1.6762,-1.6762,-1.6992,-1.7485,-1.7485,-1.7485,-1.7485,-1.7485,-1.7426,-1.7309,-1.7079,-1.6849,-1.6613,-1.6259,-1.6028,-1.5903,-1.5661,-1.5601,-1.5601,-1.5601,-1.5601,-1.5601,-1.5601,-1.5601,-1.5601,-1.5601,-1.5601,-1.5601,-1.5601,-1.5601,-1.5601,-1.5601,-1.5601,-1.5601,-1.5601,-1.5601,-1.5601,-1.5601,-1.5601,-1.5661,-1.5844,-1.6028,-1.614,-1.6312,-1.6419,-1.6351,-1.5984,-1.5827,-1.5528,-1.5003,-1.4783,-1.5038,-1.5892,-1.5552,-1.5564,-1.6389,-1.6003,-1.5962,-1.6389,-1.6404,-1.6392,-1.6458,-1.7129,-1.7108,-1.6297,-1.5858,-1.5332,-1.4857,-1.3545,-1.2951,-1.2886,-1.1567,-1.1687,-1.2946,-1.2466,-1.2526,-1.2891,-1.2406,-1.2225,-1.2225,-1.2225,-1.2225,-1.2105,-1.1325,-1.0967,-1.0846,-1.7485,-1.7485,-1.7485,-1.7485,-1.7485,-1.7485,-1.7485,-1.7485,-1.7485,-1.7485,-1.7485,-1.7485,-1.7485,-1.7485,-1.7485,-1.7485,-1.7485,-1.7485,-1.7485,-1.7485,-1.7485,-1.7485,-1.7485,-1.7485,-1.7485,-1.7485,-1.7485,-1.7485,-1.7485,-1.7485,-1.7485,-1.7485,-1.7485,-1.7485,-1.7485,-1.7485,-1.7485,-1.7485,-1.7315,-1.7026,-1.6967,-1.6613,-1.6087,-1.6087,-1.5844,-1.5601,-1.5601,-1.5601,-1.5601,-1.5601,-1.5601,-1.5601,-1.5601,-1.5601,-1.5601,-1.5601,-1.5601,-1.5601,-1.5601,-1.5601,-1.5601,-1.5601,-1.5601,-1.5601,-1.5601,-1.5601,-1.5601,-1.5601,-1.5601,-1.5601,-1.5601,-1.5844,-1.6087,-1.6087,-1.622,-1.6023,-1.5099,-1.4966,-1.4762,-1.4264,-1.4254,-1.4724,-1.6069,-1.5877,-1.6141,-1.7319,-1.7091,-1.7032,-1.7396,-1.6399,-1.629,-1.7337,-1.7361,-1.6767,-1.5451,-1.5391,-1.4679,-1.3426,-1.2169,-1.1571,-1.1511,-1.0365,-1.0425,-1.1511,-1.0304,-1.0486,-1.145,-1.0304,-0.9822,-0.9822,-0.9822,-0.9822,-0.9822,-0.9822,-0.9822,-0.9822,-1.7485,-1.7485,-1.7485,-1.7485,-1.7485,-1.7485,-1.7485,-1.7485,-1.7485,-1.7485,-1.7485,-1.7485,-1.7485,-1.7485,-1.7485,-1.7485,-1.7485,-1.7485,-1.7485,-1.7485,-1.7485,-1.7485,-1.7485,-1.7485,-1.7485,-1.7485,-1.7485,-1.7485,-1.7485,-1.7485,-1.7485,-1.7485,-1.7485,-1.7485,-1.7485,-1.7485,-1.7485,-1.7485,-1.7315,-1.6961,-1.672,-1.6431,-1.6087,-1.5844,-1.5661,-1.5601,-1.5601,-1.5601,-1.5601,-1.5601,-1.5601,-1.5601,-1.5601,-1.5601,-1.5601,-1.5601,-1.5601,-1.5601,-1.5601,-1.5601,-1.5601,-1.5601,-1.5601,-1.5601,-1.5601,-1.5601,-1.5601,-1.5601,-1.5601,-1.5601,-1.5601,-1.5661,-1.572,-1.572,-1.5289,-1.4895,-1.4664,-1.4444,-1.4256,-1.4148,-1.4519,-1.5026,-1.5728,-1.5756,-1.5836,-1.6072,-1.6023,-1.6172,-1.6484,-1.5324,-1.5088,-1.6031,-1.6048,-1.5451,-1.4143,-1.3126,-1.1989,-1.0725,-1.0425,-1.0243,-1.0243,-0.994,-0.9943,-1.0243,-0.994,-1.0001,-1.0243,-0.994,-0.9822,-0.9822,-0.9822,-0.9822,-0.9822,-0.9822,-0.9822,-0.9822,-1.7485,-1.7485,-1.7485,-1.7485,-1.7485,-1.7485,-1.7485,-1.7485,-1.7485,-1.7485,-1.7485,-1.7485,-1.7485,-1.7485,-1.7485,-1.7485,-1.7485,-1.7485,-1.7485,-1.7485,-1.7485,-1.7485,-1.7485,-1.7485,-1.7485,-1.7485,-1.7485,-1.7485,-1.7485,-1.7485,-1.7485,-1.7485,-1.7485,-1.7485,-1.7485,-1.7485,-1.7479,-1.7315,-1.7073,-1.672,-1.6425,-1.6135,-1.5844,-1.5661,-1.5601,-1.5601,-1.5601,-1.5601,-1.5601,-1.5601,-1.5601,-1.5601,-1.5601,-1.5601,-1.5601,-1.5601,-1.5601,-1.5601,-1.5601,-1.5601,-1.5601,-1.5601,-1.5601,-1.5601,-1.5601,-1.5601,-1.5601,-1.5601,-1.5601,-1.5601,-1.5601,-1.5601,-1.5601,-1.5601,-1.4961,-1.4483,-1.4313,-1.3917,-1.3733,-1.405,-1.4354,-1.4906,-1.5784,-1.5754,-1.5754,-1.604,-1.5389,-1.5141,-1.5439,-1.4258,-1.4181,-1.5564,-1.5035,-1.4083,-1.2831,-1.1507,-1.0486,-0.9822,-0.9822,-0.9822,-0.9822,-0.9822,-0.9822,-0.9822,-0.9822,-0.9822,-0.9822,-0.9822,-0.9822,-0.9822,-0.9822,-0.9822,-0.9822,-0.9822,-0.9822,-0.9822,-1.7485,-1.7485,-1.7485,-1.7485,-1.7485,-1.7485,-1.7485,-1.7485,-1.7485,-1.7485,-1.7485,-1.7485,-1.7485,-1.7485,-1.7485,-1.7485,-1.7485,-1.7485,-1.7485,-1.7485,-1.7485,-1.7485,-1.7485,-1.7485,-1.7485,-1.7485,-1.7485,-1.7485,-1.7485,-1.7485,-1.7485,-1.7485,-1.7485,-1.7485,-1.7485,-1.7485,-1.7485,-1.7138,-1.6785,-1.6478,-1.62,-1.5903,-1.5601,-1.5601,-1.5601,-1.5601,-1.5601,-1.5601,-1.5601,-1.5601,-1.5601,-1.5601,-1.5359,-1.5294,-1.5294,-1.5294,-1.5294,-1.5359,-1.5537,-1.5601,-1.5601,-1.5601,-1.5601,-1.5601,-1.5601,-1.5601,-1.5601,-1.5601,-1.5601,-1.5601,-1.5601,-1.5601,-1.5585,-1.5494,-1.485,-1.4318,-1.4092,-1.3492,-1.3352,-1.4092,-1.4261,-1.4745,-1.5924,-1.5779,-1.5833,-1.6301,-1.4922,-1.4197,-1.449,-1.3103,-1.3103,-1.4793,-1.3899,-1.2706,-1.145,-1.0365,-0.9822,-0.9822,-0.9822,-0.9822,-0.9822,-0.9822,-0.9822,-0.9822,-0.9822,-0.9822,-0.9822,-0.9822,-0.9822,-0.9822,-0.9822,-0.9822,-0.9822,-0.9822,-0.9822,-0.9822,-1.7485,-1.7485,-1.7485,-1.7485,-1.7485,-1.7485,-1.7485,-1.7485,-1.7485,-1.7485,-1.7485,-1.7485,-1.7485,-1.7485,-1.7485,-1.7485,-1.7485,-1.7485,-1.7485,-1.7485,-1.7485,-1.7485,-1.7485,-1.7485,-1.7485,-1.7485,-1.7485,-1.7485,-1.7485,-1.7485,-1.7485,-1.7485,-1.7485,-1.7485,-1.7485,-1.7485,-1.7485,-1.7138,-1.6785,-1.6478,-1.62,-1.5903,-1.5601,-1.5601,-1.5601,-1.5601,-1.5601,-1.5601,-1.5601,-1.5601,-1.5601,-1.5418,-1.4331,-1.3968,-1.3968,-1.3968,-1.3968,-1.4207,-1.5294,-1.5601,-1.5601,-1.5601,-1.5601,-1.5601,-1.5601,-1.5601,-1.5601,-1.5601,-1.5601,-1.5601,-1.5601,-1.5601,-1.5478,-1.4982,-1.4329,-1.3806,-1.375,-1.3633,-1.38,-1.4395,-1.5009,-1.5456,-1.565,-1.5655,-1.5661,-1.5715,-1.451,-1.3904,-1.4138,-1.192,-1.0959,-1.1551,-1.1611,-1.1137,-1.0122,-0.9883,-0.9822,-0.9822,-0.9822,-0.9822,-0.9822,-0.9822,-0.9822,-0.9822,-0.9822,-0.9822,-0.9822,-0.9822,-0.9822,-0.9822,-0.9822,-0.9822,-0.9822,-0.9822,-0.9822,-0.9822,-1.7485,-1.7485,-1.7485,-1.7485,-1.7485,-1.7485,-1.7485,-1.7485,-1.7485,-1.7485,-1.7485,-1.7485,-1.7485,-1.7485,-1.7485,-1.7485,-1.7485,-1.7485,-1.7485,-1.7485,-1.7485,-1.7485,-1.7485,-1.7485,-1.7485,-1.7485,-1.7485,-1.7485,-1.7485,-1.7485,-1.7485,-1.7485,-1.7485,-1.7479,-1.7315,-1.7256,-1.7197,-1.6731,-1.6436,-1.6253,-1.5957,-1.572,-1.5601,-1.5601,-1.5601,-1.5601,-1.5601,-1.5601,-1.5477,-1.4813,-1.5056,-1.5235,-1.3241,-1.3122,-1.3545,-1.2817,-1.3605,-1.4873,-1.5418,-1.5601,-1.5601,-1.5601,-1.5601,-1.5601,-1.5601,-1.5601,-1.5601,-1.5601,-1.5601,-1.5601,-1.5601,-1.5601,-1.5403,-1.4876,-1.4437,-1.4148,-1.4272,-1.4184,-1.4344,-1.4993,-1.5403,-1.5359,-1.4629,-1.457,-1.4272,-1.354,-1.2337,-1.1675,-1.1792,-0.999,-0.915,-0.9515,-0.9994,-0.9997,-0.9518,-0.97,-0.9822,-0.9822,-0.9822,-0.9822,-0.9822,-0.9822,-0.9822,-0.9822,-0.9822,-0.9822,-0.9822,-0.9822,-0.9822,-0.9822,-0.9822,-0.9822,-0.9822,-0.9822,-0.9822,-0.9822,-1.7485,-1.7485,-1.7485,-1.7485,-1.7485,-1.7485,-1.7485,-1.7485,-1.7485,-1.7485,-1.7485,-1.7485,-1.7485,-1.7485,-1.7485,-1.7485,-1.7244,-1.7179,-1.7485,-1.7244,-1.7185,-1.7479,-1.7485,-1.7485,-1.7485,-1.7485,-1.7485,-1.7485,-1.7485,-1.7485,-1.7485,-1.7485,-1.7485,-1.7479,-1.7256,-1.7079,-1.6961,-1.6436,-1.614,-1.6022,-1.5418,-1.5175,-1.5116,-1.4813,-1.4689,-1.4689,-1.4689,-1.4689,-1.457,-1.354,-1.3904,-1.4267,-1.1972,-1.1972,-1.2577,-1.1551,-1.2877,-1.4689,-1.4689,-1.4932,-1.5175,-1.5175,-1.5359,-1.5601,-1.5601,-1.5601,-1.5601,-1.5601,-1.5601,-1.5601,-1.5601,-1.5601,-1.5403,-1.4876,-1.4688,-1.463,-1.4755,-1.439,-1.4368,-1.5069,-1.4873,-1.4326,-1.3301,-1.3241,-1.2817,-1.1792,-1.0528,-0.9805,-0.9805,-0.8596,-0.7994,-0.8305,-0.8912,-0.9217,-0.9275,-0.9579,-0.97,-0.9822,-0.9822,-0.9822,-0.9822,-0.9822,-0.9822,-0.9822,-0.9822,-0.9822,-0.9822,-0.9822,-0.9822,-0.9822,-0.9822,-0.9822,-0.9822,-0.9822,-0.9822,-0.9822,-1.7485,-1.7485,-1.7485,-1.7485,-1.7485,-1.7485,-1.7485,-1.7485,-1.7485,-1.7485,-1.7485,-1.7485,-1.7485,-1.7485,-1.7485,-1.7485,-1.6408,-1.6225,-1.742,-1.6408,-1.6284,-1.742,-1.7485,-1.7485,-1.7485,-1.7485,-1.7485,-1.7485,-1.7485,-1.7485,-1.7485,-1.7485,-1.7485,-1.7485,-1.7485,-1.7309,-1.6967,-1.6602,-1.6312,-1.5963,-1.4451,-1.3844,-1.3725,-1.2457,-1.1972,-1.1972,-1.1972,-1.1972,-1.1972,-1.1852,-1.1912,-1.1732,-1.0347,-0.9983,-1.0044,-0.9983,-1.0887,-1.1972,-1.1972,-1.2877,-1.3844,-1.3844,-1.4748,-1.5601,-1.5601,-1.5601,-1.5601,-1.5601,-1.5601,-1.5601,-1.5601,-1.5601,-1.5403,-1.4876,-1.4771,-1.4761,-1.4782,-1.3761,-1.3243,-1.376,-1.2757,-1.1972,-1.1852,-1.1852,-1.1792,-1.1732,-1.0528,-0.9805,-0.9805,-0.8596,-0.7933,-0.7933,-0.8607,-0.9034,-0.9275,-0.9339,-0.9518,-0.9822,-0.9822,-0.9822,-0.9822,-0.9822,-0.9822,-0.9822,-0.9822,-0.9822,-0.9822,-0.9822,-0.9822,-0.9822,-0.9822,-0.9822,-0.9822,-0.9822,-0.9822,-0.9822,-1.7485,-1.7485,-1.7485,-1.7485,-1.7485,-1.7485,-1.7485,-1.7485,-1.7485,-1.7485,-1.6826,-1.6349,-1.6349,-1.5634,-1.5154,-1.5154,-1.4679,-1.4976,-1.6225,-1.5871,-1.6166,-1.742,-1.7485,-1.7485,-1.7485,-1.7485,-1.7485,-1.7485,-1.7485,-1.7485,-1.7485,-1.7485,-1.7485,-1.742,-1.622,-1.5623,-1.5451,-1.4073,-1.3476,-1.3301,-1.2697,-1.2457,-1.2397,-1.1912,-1.1671,-1.1671,-1.1671,-1.1671,-1.1551,-1.0767,-1.1068,-1.131,-0.9262,-0.914,-0.9623,-0.8839,-0.8961,-0.9323,-0.9323,-1.0891,-1.2637,-1.3485,-1.3421,-1.3421,-1.4207,-1.3784,-1.3181,-1.3181,-1.3844,-1.4391,-1.4391,-1.5056,-1.5403,-1.4876,-1.5077,-1.4879,-1.3796,-1.3471,-1.3159,-1.2509,-1.2032,-1.137,-1.0585,-1.0528,-1.0165,-0.938,-0.89,-0.8596,-0.8596,-0.8172,-0.7872,-0.7872,-0.8116,-0.8424,-0.8732,-0.9095,-0.9335,-0.9518,-0.97,-0.9822,-0.9822,-0.9822,-0.9822,-0.9822,-0.9822,-0.9822,-0.9822,-0.9822,-0.9822,-0.9822,-0.9822,-0.9822,-0.9822,-0.9822,-0.9822,-0.9822,-1.7485,-1.7485,-1.7485,-1.7485,-1.7485,-1.7485,-1.7485,-1.7485,-1.7361,-1.6944,-1.6172,-1.5451,-1.5035,-1.4202,-1.3725,-1.3725,-1.3725,-1.4262,-1.551,-1.5575,-1.6166,-1.742,-1.7485,-1.7303,-1.6885,-1.6885,-1.6708,-1.629,-1.629,-1.629,-1.6349,-1.6708,-1.6703,-1.6284,-1.5203,-1.4485,-1.3889,-1.2449,-1.1792,-1.1671,-1.1249,-1.1129,-1.1068,-1.0649,-1.0528,-1.0528,-1.0528,-1.0528,-1.0347,-0.9502,-0.9802,-1.0226,-0.8477,-0.8474,-0.9019,-0.8175,-0.7872,-0.7872,-0.7872,-0.9201,-1.0831,-1.2157,-1.2097,-1.1912,-1.2877,-1.2337,-1.1671,-1.1671,-1.2457,-1.3062,-1.3062,-1.3784,-1.4401,-1.4437,-1.4415,-1.4099,-1.3299,-1.2738,-1.2157,-1.1189,-1.0767,-1.0165,-0.9262,-0.9201,-0.8839,-0.7994,-0.7872,-0.7872,-0.7872,-0.7872,-0.7872,-0.7872,-0.7872,-0.7994,-0.8244,-0.8729,-0.9095,-0.9156,-0.9396,-0.9579,-0.964,-0.964,-0.97,-0.9822,-0.9822,-0.9822,-0.9822,-0.9822,-0.9822,-0.9822,-0.9822,-0.9822,-0.9822,-0.9822,-0.9822,-0.9822,-1.7485,-1.7485,-1.7485,-1.7485,-1.7485,-1.7485,-1.7485,-1.7485,-1.7062,-1.5752,-1.5569,-1.5095,-1.3844,-1.3665,-1.3665,-1.3665,-1.3665,-1.4202,-1.5515,-1.5569,-1.6172,-1.742,-1.7485,-1.6885,-1.5634,-1.5569,-1.4976,-1.3725,-1.3725,-1.3725,-1.3725,-1.4976,-1.4917,-1.3725,-1.4674,-1.4192,-1.2637,-1.2337,-1.1972,-1.1551,-1.0286,-0.9802,-0.9623,-0.8355,-0.7872,-0.7872,-0.7872,-0.7872,-0.7872,-0.7872,-0.7872,-0.7872,-0.7872,-0.7872,-0.7872,-0.7872,-0.7872,-0.7872,-0.7872,-0.7872,-0.8236,-0.9502,-1.0767,-1.1671,-1.1671,-1.1671,-1.1671,-1.1671,-1.1671,-1.1671,-1.1671,-1.1671,-1.2153,-1.3485,-1.2577,-1.2157,-1.3481,-1.143,-0.9805,-0.9802,-0.8656,-0.7872,-0.7872,-0.7872,-0.7872,-0.7872,-0.7872,-0.7872,-0.7872,-0.7872,-0.7872,-0.7872,-0.7872,-0.7872,-0.7872,-0.8244,-0.8552,-0.8915,-0.8915,-0.9034,-0.9275,-0.9275,-0.9457,-0.9822,-0.9822,-0.9822,-0.9822,-0.9822,-0.9822,-0.9822,-0.9822,-0.9822,-0.9822,-0.9822,-0.9822,-0.9822,-1.7485,-1.7485,-1.7485,-1.7485,-1.7485,-1.7485,-1.7485,-1.7485,-1.7062,-1.5752,-1.4798,-1.3784,-1.247,-1.1507,-1.1325,-1.223,-1.229,-1.2886,-1.4202,-1.4262,-1.4441,-1.4798,-1.4857,-1.4679,-1.4262,-1.4262,-1.4083,-1.3725,-1.3725,-1.3725,-1.3725,-1.4083,-1.4083,-1.3665,-1.2573,-1.1792,-1.1253,-0.9805,-0.914,-0.9019,-0.8596,-0.8477,-0.8416,-0.8052,-0.7872,-0.7872,-0.7872,-0.7872,-0.7872,-0.7872,-0.7872,-0.7872,-0.7872,-0.7872,-0.7872,-0.7872,-0.7872,-0.7872,-0.7872,-0.7872,-0.8236,-0.9502,-0.9441,-0.9262,-1.0165,-0.9684,-0.9019,-0.9019,-0.9744,-1.0347,-1.0347,-1.1129,-1.1852,-1.2213,-1.1972,-1.1551,-1.1012,-1.0286,-0.9441,-0.8599,-0.8113,-0.7872,-0.7872,-0.7872,-0.7872,-0.7872,-0.7872,-0.7872,-0.7872,-0.7872,-0.7872,-0.7872,-0.7872,-0.7872,-0.7872,-0.8244,-0.843,-0.8552,-0.8793,-0.9034,-0.9275,-0.9275,-0.9457,-0.9822,-0.9822,-0.9822,-0.9822,-0.9822,-0.9822,-0.9822,-0.9822,-0.9822,-0.9822,-0.9822,-0.9822,-0.9822,-1.7485,-1.7485,-1.7485,-1.7485,-1.7485,-1.7303,-1.6826,-1.6767,-1.6107,-1.4316,-1.3366,-1.241,-1.1088,-1.0243,-1.0122,-1.0906,-1.139,-1.229,-1.3605,-1.3186,-1.2891,-1.2891,-1.2406,-1.2406,-1.2886,-1.2891,-1.2646,-1.2165,-1.2165,-1.2165,-1.2165,-1.2582,-1.2462,-1.192,-1.1012,-1.035,-0.9751,-0.848,-0.7872,-0.7872,-0.7872,-0.7872,-0.7872,-0.7872,-0.7872,-0.7872,-0.7872,-0.7872,-0.7872,-0.7872,-0.7872,-0.7872,-0.7872,-0.7872,-0.7872,-0.7872,-0.7872,-0.7872,-0.7872,-0.7872,-0.8113,-0.8839,-0.8477,-0.8113,-0.89,-0.8477,-0.7872,-0.7872,-0.8538,-0.9019,-0.9019,-0.9684,-1.0347,-1.0891,-1.0528,-1.0105,-0.9862,-0.938,-0.8778,-0.7991,-0.7872,-0.7872,-0.7872,-0.7872,-0.7872,-0.7872,-0.7872,-0.7872,-0.7872,-0.7872,-0.7872,-0.7872,-0.7872,-0.7872,-0.7872,-0.8119,-0.8183,-0.8183,-0.8424,-0.8668,-0.8912,-0.8912,-0.9156,-0.946,-0.9579,-0.9579,-0.964,-0.9761,-0.9822,-0.9822,-0.9822,-0.9822,-0.9822,-0.9822,-0.9822,-0.9822,-1.7485,-1.742,-1.7303,-1.7303,-1.7244,-1.6767,-1.5634,-1.5451,-1.4555,-1.2053,-1.1692,-1.1209,-0.994,-0.9822,-0.9822,-0.9943,-1.1027,-1.223,-1.3426,-1.229,-1.1511,-1.1511,-1.0425,-1.0365,-1.1511,-1.1511,-1.0967,-0.9822,-0.9822,-0.9822,-0.9819,-1.0717,-1.0475,-0.9335,-0.993,-0.9511,-0.8369,-0.8058,-0.7872,-0.7872,-0.7872,-0.7872,-0.7872,-0.7872,-0.7872,-0.7872,-0.7872,-0.7872,-0.7872,-0.7872,-0.7872,-0.7872,-0.7872,-0.7872,-0.7872,-0.7872,-0.7872,-0.7872,-0.7872,-0.7872,-0.7872,-0.7872,-0.7872,-0.7872,-0.7872,-0.7872,-0.7872,-0.7872,-0.7872,-0.7872,-0.7872,-0.7872,-0.8294,-0.9444,-0.8656,-0.8294,-0.9441,-0.8656,-0.7872,-0.7872,-0.7872,-0.7872,-0.7872,-0.7872,-0.7872,-0.7872,-0.7872,-0.7872,-0.7872,-0.7872,-0.7872,-0.7872,-0.7872,-0.7872,-0.7872,-0.7872,-0.7872,-0.7872,-0.7872,-0.8058,-0.8369,-0.8369,-0.8613,-0.8915,-0.9156,-0.9278,-0.9275,-0.9579,-0.9761,-0.9761,-0.9761,-0.9761,-0.9822,-0.9822,-0.9822,-0.9822,-1.7485,-1.6703,-1.5989,-1.5989,-1.5213,-1.4441,-1.4143,-1.4083,-1.3545,-1.1933,-1.1692,-1.1209,-0.994,-0.9822,-1.0183,-1.1209,-1.1511,-1.1812,-1.2109,-1.0906,-1.0183,-1.0183,-0.994,-0.994,-1.0183,-1.0183,-1.0061,-0.9822,-0.9822,-0.9822,-0.9822,-1.0001,-0.9819,-0.9275,-0.9214,-0.8912,-0.8369,-0.8058,-0.7872,-0.7872,-0.7872,-0.7872,-0.7872,-0.7872,-0.7872,-0.7872,-0.7872,-0.7872,-0.7872,-0.7872,-0.7872,-0.7872,-0.7872,-0.7872,-0.7872,-0.7872,-0.7872,-0.7872,-0.7872,-0.7872,-0.7872,-0.7872,-0.7872,-0.7872,-0.7872,-0.7872,-0.7872,-0.7872,-0.7872,-0.7872,-0.7872,-0.7872,-0.7991,-0.8294,-0.8052,-0.7991,-0.8294,-0.8052,-0.7872,-0.7872,-0.7872,-0.7872,-0.7872,-0.7872,-0.7872,-0.7872,-0.7872,-0.7872,-0.7872,-0.7872,-0.7872,-0.7872,-0.7872,-0.7872,-0.7872,-0.7872,-0.7872,-0.7872,-0.7872,-0.8058,-0.8369,-0.8369,-0.8613,-0.8915,-0.8976,-0.8976,-0.8976,-0.9034,-0.9217,-0.9396,-0.9396,-0.9579,-0.9822,-0.9822,-0.9822,-0.9822,-1.593,-1.5634,-1.5391,-1.4798,-1.4143,-1.3485,-1.2826,-1.2771,-1.229,-1.0967,-1.0785,-1.0543,-0.9879,-0.9822,-1.0061,-1.0725,-1.0785,-1.0785,-1.0785,-1.0183,-0.9822,-0.9822,-0.9822,-0.9822,-0.9822,-0.9822,-0.9822,-0.9822,-0.9822,-0.9822,-0.9822,-0.964,-0.9396,-0.9095,-0.8793,-0.8488,-0.8119,-0.7994,-0.7872,-0.7872,-0.7872,-0.7872,-0.7872,-0.7872,-0.7872,-0.7872,-0.7872,-0.7872,-0.7872,-0.7872,-0.7872,-0.7872,-0.7872,-0.7872,-0.7872,-0.7872,-0.7872,-0.7872,-0.7872,-0.7872,-0.7872,-0.7872,-0.7872,-0.7872,-0.7872,-0.7872,-0.7872,-0.7872,-0.7872,-0.7872,-0.7872,-0.7872,-0.7872,-0.7872,-0.7872,-0.7872,-0.7872,-0.7872,-0.7872,-0.7872,-0.7872,-0.7872,-0.7872,-0.7872,-0.7872,-0.7872,-0.7872,-0.7872,-0.7872,-0.7872,-0.7872,-0.7872,-0.7872,-0.7872,-0.7872,-0.7872,-0.7872,-0.7872,-0.7872,-0.7994,-0.818,-0.818,-0.8241,-0.8424,-0.861,-0.8674,-0.8674,-0.8854,-0.8976,-0.9095,-0.9275,-0.9396,-0.9579,-0.9761,-0.97,-0.9518,-1.4441,-1.45,-1.4619,-1.3545,-1.3186,-1.2646,-1.1571,-1.139,-1.1027,-0.994,-0.9822,-0.9822,-0.9822,-0.9822,-0.9822,-0.9822,-0.9822,-0.9822,-0.9822,-0.9822,-0.9822,-0.9822,-0.9822,-0.9822,-0.9822,-0.9822,-0.9822,-0.9822,-0.9822,-0.9822,-0.9822,-0.9518,-0.9217,-0.8915,-0.8613,-0.8244,-0.7872,-0.7872,-0.7872,-0.7872,-0.7872,-0.7872,-0.7872,-0.7872,-0.7872,-0.7872,-0.7872,-0.7872,-0.7872,-0.7872,-0.7872,-0.7872,-0.7872,-0.7872,-0.7872,-0.7872,-0.7872,-0.7872,-0.7872,-0.7872,-0.7872,-0.7872,-0.7872,-0.7872,-0.7872,-0.7872,-0.7872,-0.7872,-0.7872,-0.7872,-0.7872,-0.7872,-0.7872,-0.7872,-0.7872,-0.7872,-0.7872,-0.7872,-0.7872,-0.7872,-0.7872,-0.7872,-0.7872,-0.7872,-0.7872,-0.7872,-0.7872,-0.7872,-0.7872,-0.7872,-0.7872,-0.7872,-0.7872,-0.7872,-0.7872,-0.7872,-0.7872,-0.7872,-0.7872,-0.7872,-0.7872,-0.7872,-0.7872,-0.7933,-0.8183,-0.8308,-0.8308,-0.861,-0.8732,-0.8854,-0.9034,-0.9156,-0.9278,-0.9518,-0.9457,-0.9095,-1.5391,-1.3665,-1.2169,-1.1989,-1.1084,-1.024,-1.0061,-1.0061,-1.0001,-0.9822,-0.9822,-0.9822,-0.9822,-0.9822,-0.9822,-0.9822,-0.9822,-0.9822,-0.9822,-0.9822,-0.9822,-0.9822,-0.9822,-0.9822,-0.9822,-0.9822,-0.9822,-0.9822,-0.9822,-0.9822,-0.9822,-0.9761,-0.946,-0.8915,-0.8854,-0.8485,-0.7872,-0.7872,-0.7872,-0.7872,-0.7872,-0.7872,-0.7872,-0.7872,-0.7872,-0.7872,-0.7872,-0.7872,-0.7872,-0.7872,-0.7872,-0.7872,-0.7872,-0.7872,-0.7872,-0.7872,-0.7872,-0.7872,-0.7872,-0.7872,-0.7872,-0.7872,-0.7872,-0.7872,-0.7872,-0.7872,-0.7872,-0.7872,-0.7872,-0.7872,-0.7872,-0.7872,-0.7872,-0.7872,-0.7872,-0.7872,-0.7872,-0.7872,-0.7872,-0.7872,-0.7872,-0.7872,-0.7872,-0.7872,-0.7872,-0.7872,-0.7872,-0.7872,-0.7872,-0.7872,-0.7872,-0.7872,-0.7872,-0.7872,-0.7872,-0.7872,-0.7872,-0.7872,-0.7872,-0.7872,-0.7872,-0.7872,-0.7872,-0.7933,-0.7933,-0.7994,-0.7994,-0.7994,-0.818,-0.8491,-0.8491,-0.8674,-0.8976,-0.8976,-0.8793,-0.8552,-1.2642,-1.1985,-1.145,-1.0789,-1.0183,-0.9822,-0.9822,-0.9822,-0.9822,-0.9822,-0.9822,-0.9822,-0.9822,-0.9822,-0.9822,-0.9822,-0.9822,-0.9822,-0.9822,-0.9822,-0.9822,-0.9822,-0.9822,-0.9822,-0.9822,-0.9822,-0.9822,-0.9822,-0.9822,-0.9822,-0.9822,-0.9822,-0.9457,-0.8915,-0.8915,-0.8546,-0.7872,-0.7872,-0.7872,-0.7872,-0.7872,-0.7872,-0.7872,-0.7872,-0.7872,-0.7872,-0.7872,-0.7872,-0.7872,-0.7872,-0.7872,-0.7872,-0.7872,-0.7872,-0.7872,-0.7872,-0.7872,-0.7872,-0.7872,-0.7872,-0.7872,-0.7872,-0.7872,-0.7872,-0.7872,-0.7872,-0.7872,-0.7872,-0.7872,-0.7872,-0.7872,-0.7872,-0.7872,-0.7872,-0.7872,-0.7872,-0.7872,-0.7872,-0.7872,-0.7872,-0.7872,-0.7872,-0.7872,-0.7872,-0.7872,-0.7872,-0.7872,-0.7872,-0.7872,-0.7872,-0.7872,-0.7872,-0.7872,-0.7872,-0.7872,-0.7872,-0.7872,-0.7872,-0.7872,-0.7872,-0.7872,-0.7872,-0.7872,-0.7872,-0.7872,-0.7872,-0.7872,-0.7872,-0.7994,-0.8119,-0.8308,-0.8613,-0.8854,-0.8671,-0.8552,-0.8369]}]]